[[{"header":{"parameterUnit":"m.s-1","parameterCategory":1,"la1":31.0,"la2":29.5877,"lo1":-88.7671,"lo2":-86.6584,"dx":0.0162,"dy":0.0185,"nx":115,"ny":88,"refTime":"2022-11-13T06:00:00:Z","depth":0,"parameterNumber":2,"parameterNumberName":"U-component_of_WINDS"},"data":[0.0,0.0,0.0,0.0,0.0,0.0,0.0,0.0,0.0,0.0,0.0,0.0,0.0,0.0,0.0,0.0,0.0,0.0,0.0,0.0,0.0,0.0,0.0,0.0,0.0,0.0,0.0,0.0,0.0,0.0,0.0,0.0,0.0,0.0,0.0,0.0,0.0,0.0,0.0,0.0,0.0,0.0,0.0,0.0,0.0,0.0,0.0,0.0,0.0,0.0,0.0,0.0,0.0,0.0,0.0,0.0,0.0,0.0,0.0,0.0,0.0,0.0,0.0,0.0,0.0,0.0,0.0,0.0,0.0,0.0,0.0,0.0,0.0,0.0,0.0,0.0,0.0,0.0,0.0,0.0,0.0,0.0,0.0,0.0,0.0,0.0,0.0,0.0,0.0,0.0,0.0,0.0,0.0,0.0,0.0,0.0,0.0,0.0,0.0,0.0,0.0,0.0,0.0,0.0,0.0,0.0,0.0,0.0,0.0,0.0,0.0,0.0,0.0,0.0,0.0,0.0,0.0,0.0,0.0,0.0,0.0,0.0,0.0,0.0,0.0,0.0,0.0,0.0,0.0,0.0,0.0,0.0,0.0,0.0,0.0,0.0,0.0,0.0,0.0,0.0,0.0,0.0,0.0,0.0,0.0,0.0,0.0,0.0,0.0,0.0,0.0,0.0,0.0,0.0,0.0,0.0,0.0,0.0,0.0,0.0,0.0,0.0,0.0,0.0,0.0,0.0,0.0,0.0,0.0,0.0,0.0,0.0,0.0,0.0,0.0,0.0,0.0,0.0,0.0,0.0,0.0,0.0,0.0,0.0,0.0,0.0,0.0,0.0,0.0,0.0,0.0,0.0,0.0,0.0,0.0,0.0,0.0,0.0,0.0,0.0,0.0,0.0,0.0,0.0,0.0,0.0,0.0,0.0,0.0,0.0,0.0,0.0,0.0,0.0,0.0,0.0,0.0,0.0,0.0,0.0,0.0,0.0,0.0,0.0,0.0,0.0,0.0,0.0,0.0,0.0,0.0,0.0,0.0,0.0,0.0,0.0,0.0,0.0,0.0,0.0,0.0,0.0,0.0,0.0,0.0,0.0,0.0,0.0,0.0,0.0,0.0,0.0,0.0,0.0,0.0,0.0,0.0,0.0,0.0,0.0,0.0,0.0,0.0,0.0,0.0,0.0,0.0,0.0,0.0,0.0,0.0,0.0,0.0,0.0,0.0,0.0,0.0,0.0,0.0,0.0,0.0,0.0,0.0,0.0,0.0,0.0,0.0,0.0,0.0,0.0,0.0,0.0,0.0,0.0,0.0,0.0,0.0,0.0,0.0,0.0,0.0,0.0,0.0,0.0,0.0,0.0,0.0,0.0,0.0,0.0,0.0,0.0,0.0,0.0,0.0,0.0,0.0,0.0,0.0,0.0,0.0,0.0,0.0,0.0,0.0,0.0,0.0,0.0,0.0,0.0,0.0,0.0,0.0,0.0,0.0,0.0,0.0,0.0,0.0,0.0,0.0,0.0,0.0,0.0,0.0,0.0,0.0,0.0,0.0,0.0,0.0,0.0,0.0,0.0,0.0,0.0,0.0,0.0,0.0,0.0,0.0,0.0,0.0,0.0,0.0,0.0,0.0,0.0,0.0,0.0,0.0,0.0,0.0,0.0,0.0,0.0,0.0,0.0,0.0,0.0,0.0,0.0,0.0,0.0,0.0,0.0,0.0,0.0,0.0,0.0,0.0,0.0,0.0,0.0,0.0,0.0,0.0,0.0,0.0,0.0,0.0,0.0,0.0,0.0,0.0,0.0,0.0,0.0,0.0,0.0,0.0,0.0,0.0,0.0,0.0,0.0,0.0,0.0,0.0,0.0,0.0,0.0,0.0,0.0,0.0,0.0,0.0,0.0,0.0,0.0,0.0,0.0,0.0,0.0,0.0,0.0,0.0,0.0,0.0,0.0,0.0,0.0,0.0,0.0,0.0,0.0,0.0,0.0,0.0,0.0,0.0,0.0,0.0,0.0,0.0,0.0,0.0,0.0,0.0,0.0,0.0,0.0,0.0,0.0,0.0,0.0,0.0,0.0,0.0,0.0,0.0,0.0,0.0,0.0,0.0,0.0,0.0,0.0,0.0,0.0,0.0,0.0,0.0,0.0,0.0,0.0,0.0,0.0,0.0,0.0,0.0,0.0,0.0,0.0,0.0,0.0,0.0,0.0,0.0,0.0,0.0,0.0,0.0,0.0,0.0,0.0,0.0,0.0,0.0,0.0,0.0,0.0,0.0,0.0,0.0,0.0,0.0,0.0,0.0,0.0,0.0,0.0,0.0,0.0,0.0,0.0,0.0,0.0,0.0,0.0,0.0,0.0,0.0,0.0,0.0,0.0,0.0,0.0,0.0,0.0,0.0,0.0,0.0,0.0,0.0,0.0,0.0,0.0,0.0,0.0,0.0,0.0,0.0,0.0,0.0,0.0,0.0,0.0,0.0,0.0,0.0,0.0,0.0,0.0,0.0,0.0,0.0,0.0,0.0,0.0,0.0,0.0,0.0,0.0,0.0,0.0,0.0,0.0,0.0,0.0,0.0,0.0,0.0,0.0,0.0,0.0,0.0,0.0,0.0,0.0,0.0,0.0,0.0,0.0,0.0,0.0,0.0,0.0,0.0,0.0,0.0,0.0,0.0,0.0,0.0,0.0,0.0,0.0,0.0,0.0,0.0,0.0,0.0,0.0,0.0,0.0,0.0,0.0,0.0,0.0,0.0,0.0,0.0,0.0,0.0,0.0,0.0,0.0,0.0,0.0,0.0,0.0,0.0,0.0,0.0,0.0,0.0,0.0,0.0,0.0,0.0,0.0,0.0,0.0,0.0,0.0,0.0,0.0,0.0,0.0,0.0,0.0,0.0,0.0,0.0,0.0,0.0,0.0,0.0,0.0,0.0,0.0,0.0,0.0,0.0,0.0,0.0,0.0,0.0,0.0,0.0,0.0,0.0,0.0,0.0,0.0,0.0,0.0,0.0,0.0,0.0,0.0,0.0,0.0,0.0,0.0,0.0,0.0,0.0,0.0,0.0,0.0,0.0,0.0,0.0,0.0,0.0,0.0,0.0,0.0,0.0,0.0,0.0,0.0,0.0,0.0,0.0,0.0,0.0,0.0,0.0,0.0,0.0,0.0,0.0,0.0,0.0,0.0,0.0,0.0,0.0,0.0,0.0,0.0,0.0,0.0,0.0,0.0,0.0,0.0,0.0,0.0,0.0,0.0,0.0,0.0,0.0,0.0,0.0,0.0,0.0,0.0,0.0,0.0,0.0,0.0,0.0,0.0,0.0,0.0,0.0,0.0,0.0,0.0,0.0,0.0,0.0,0.0,0.0,0.0,0.0,0.0,0.0,0.0,0.0,0.0,0.0,0.0,0.0,0.0,0.0,0.0,0.0,0.0,0.0,0.0,0.0,0.0,0.0,0.0,0.0,0.0,0.0,0.0,0.0,0.0,0.0,0.0,0.0,0.0,0.0,0.0,0.0,0.0,0.0,0.0,0.0,0.0,0.0,0.0,0.0,0.0,0.0,0.0,0.0,0.0,0.0,0.0,0.0,0.0,0.0,0.0,0.0,0.0,0.0,0.0,0.0,0.0,0.0,0.0,0.0,0.0,0.0,0.0,0.0,0.0,0.0,0.0,0.0,0.0,0.0,0.0,0.0,0.0,0.0,0.0,0.0,0.0,0.0,0.0,0.0,0.0,0.0,0.0,0.0,0.0,0.0,0.0,0.0,0.0,0.0,0.0,0.0,0.0,0.0,0.0,0.0,0.0,0.0,0.0,0.0,0.0,0.0,0.0,0.0,0.0,0.0,0.0,0.0,0.0,0.0,0.0,0.0,0.0,0.0,0.0,0.0,0.0,0.0,0.0,0.0,0.0,0.0,0.0,0.0,0.0,0.0,0.0,0.0,0.0,0.0,0.0,0.0,0.0,0.0,0.0,0.0,0.0,0.0,0.0,0.0,0.0,0.0,0.0,0.0,0.0,0.0,0.0,0.0,0.0,0.0,0.0,0.0,0.0,0.0,0.0,0.0,0.0,0.0,0.0,0.0,0.0,0.0,0.0,0.0,0.0,0.0,0.0,0.0,0.0,0.0,0.0,0.0,0.0,0.0,0.0,0.0,0.0,0.0,0.0,0.0,0.0,0.0,0.0,0.0,0.0,0.0,0.0,0.0,0.0,0.0,0.0,0.0,0.0,0.0,0.0,0.0,0.0,0.0,0.0,0.0,0.0,4.8758,0.0,0.0,0.0,4.7586,0.0,0.0,0.0,0.0,0.0,0.0,0.0,0.0,0.0,0.0,0.0,0.0,0.0,0.0,0.0,0.0,0.0,0.0,0.0,0.0,0.0,0.0,0.0,0.0,0.0,0.0,0.0,0.0,0.0,0.0,0.0,0.0,0.0,0.0,0.0,0.0,0.0,0.0,0.0,0.0,0.0,0.0,0.0,0.0,0.0,0.0,0.0,0.0,0.0,0.0,0.0,0.0,0.0,0.0,0.0,0.0,0.0,0.0,0.0,0.0,0.0,0.0,0.0,0.0,0.0,0.0,0.0,0.0,0.0,0.0,0.0,0.0,0.0,0.0,0.0,0.0,0.0,0.0,0.0,0.0,0.0,0.0,0.0,0.0,0.0,0.0,0.0,0.0,0.0,0.0,0.0,0.0,0.0,0.0,0.0,0.0,0.0,0.0,0.0,0.0,0.0,0.0,0.0,0.0,0.0,0.0,0.0,0.0,0.0,0.0,4.8881,5.0,4.8427,4.7686,4.7805,0.0,0.0,0.0,0.0,0.0,0.0,0.0,0.0,0.0,0.0,0.0,0.0,0.0,0.0,0.0,0.0,0.0,0.0,0.0,0.0,0.0,0.0,0.0,0.0,0.0,0.0,0.0,0.0,0.0,0.0,0.0,0.0,0.0,0.0,0.0,0.0,0.0,0.0,0.0,0.0,0.0,0.0,0.0,0.0,0.0,0.0,0.0,0.0,0.0,0.0,0.0,0.0,0.0,0.0,0.0,0.0,0.0,0.0,0.0,0.0,0.0,0.0,0.0,0.0,0.0,0.0,0.0,0.0,0.0,0.0,0.0,0.0,0.0,0.0,0.0,0.0,0.0,0.0,0.0,0.0,0.0,0.0,0.0,0.0,0.0,0.0,0.0,0.0,0.0,0.0,0.0,0.0,0.0,0.0,0.0,0.0,0.0,0.0,0.0,0.0,0.0,0.0,0.0,0.0,0.0,0.0,0.0,0.0,0.0,0.0,0.0,0.0,4.8833,4.809,4.7886,0.0,0.0,0.0,0.0,0.0,0.0,0.0,0.0,0.0,0.0,0.0,0.0,0.0,0.0,0.0,0.0,0.0,0.0,0.0,0.0,0.0,0.0,0.0,0.0,0.0,0.0,0.0,0.0,0.0,0.0,0.0,0.0,0.0,0.0,0.0,0.0,0.0,0.0,0.0,0.0,0.0,0.0,0.0,0.0,0.0,0.0,0.0,0.0,0.0,0.0,0.0,0.0,0.0,0.0,0.0,0.0,0.0,0.0,0.0,0.0,0.0,0.0,0.0,0.0,0.0,0.0,0.0,0.0,0.0,0.0,0.0,0.0,0.0,0.0,0.0,0.0,0.0,0.0,0.0,0.0,0.0,0.0,0.0,0.0,0.0,0.0,0.0,0.0,0.0,0.0,0.0,0.0,0.0,0.0,0.0,0.0,0.0,0.0,0.0,0.0,0.0,0.0,0.0,0.0,0.0,0.0,0.0,0.0,0.0,0.0,4.9579,5.0063,4.9936,0.0,4.8025,0.0,0.0,0.0,0.0,0.0,0.0,0.0,0.0,0.0,0.0,0.0,0.0,0.0,0.0,0.0,0.0,0.0,0.0,0.0,0.0,0.0,0.0,0.0,0.0,0.0,0.0,0.0,0.0,0.0,0.0,0.0,0.0,0.0,0.0,0.0,0.0,0.0,0.0,0.0,0.0,0.0,0.0,0.0,0.0,0.0,0.0,0.0,0.0,0.0,0.0,0.0,0.0,0.0,0.0,0.0,0.0,0.0,0.0,0.0,0.0,0.0,0.0,0.0,0.0,0.0,0.0,0.0,0.0,0.0,0.0,0.0,0.0,0.0,0.0,0.0,0.0,0.0,0.0,0.0,0.0,0.0,0.0,0.0,0.0,0.0,0.0,0.0,0.0,0.0,0.0,0.0,0.0,0.0,0.0,0.0,0.0,0.0,0.0,0.0,0.0,0.0,0.0,0.0,0.0,0.0,0.0,0.0,0.0,0.0,0.0,5.0232,5.0127,4.9296,4.8592,0.0,0.0,0.0,0.0,0.0,0.0,0.0,0.0,0.0,0.0,0.0,0.0,0.0,0.0,0.0,0.0,0.0,0.0,0.0,0.0,0.0,0.0,0.0,0.0,0.0,0.0,0.0,0.0,0.0,0.0,0.0,0.0,0.0,0.0,0.0,0.0,0.0,0.0,0.0,0.0,0.0,0.0,0.0,0.0,0.0,0.0,0.0,0.0,0.0,0.0,0.0,0.0,0.0,0.0,0.0,0.0,0.0,0.0,0.0,0.0,0.0,0.0,0.0,0.0,0.0,0.0,0.0,0.0,0.0,0.0,0.0,0.0,0.0,0.0,0.0,0.0,0.0,0.0,0.0,0.0,0.0,0.0,0.0,0.0,0.0,0.0,0.0,0.0,0.0,0.0,0.0,0.0,0.0,0.0,0.0,0.0,0.0,0.0,0.0,0.0,0.0,0.0,0.0,0.0,0.0,0.0,0.0,0.0,0.0,0.0,5.0139,5.0374,5.0089,4.9641,4.8945,4.8048,0.0,0.0,0.0,0.0,0.0,0.0,0.0,0.0,0.0,0.0,0.0,0.0,0.0,0.0,0.0,0.0,0.0,0.0,0.0,0.0,0.0,0.0,0.0,0.0,0.0,0.0,0.0,0.0,0.0,0.0,0.0,0.0,0.0,0.0,0.0,0.0,0.0,0.0,0.0,0.0,0.0,0.0,0.0,0.0,0.0,0.0,0.0,0.0,0.0,0.0,0.0,0.0,0.0,0.0,0.0,0.0,0.0,0.0,0.0,0.0,0.0,0.0,0.0,0.0,0.0,0.0,0.0,0.0,0.0,0.0,0.0,0.0,0.0,0.0,0.0,0.0,0.0,0.0,0.0,0.0,0.0,0.0,0.0,0.0,0.0,0.0,0.0,0.0,0.0,0.0,0.0,0.0,0.0,0.0,0.0,0.0,0.0,0.0,0.0,0.0,0.0,0.0,0.0,0.0,0.0,0.0,0.0,0.0,4.9415,4.949,4.9721,5.0278,5.1797,5.1245,0.0,0.0,0.0,0.0,0.0,0.0,0.0,0.0,0.0,0.0,0.0,0.0,0.0,0.0,0.0,0.0,0.0,0.0,0.0,0.0,0.0,0.0,0.0,0.0,0.0,0.0,0.0,0.0,0.0,0.0,0.0,0.0,0.0,0.0,0.0,0.0,0.0,0.0,0.0,0.0,0.0,0.0,0.0,0.0,0.0,0.0,0.0,0.0,0.0,0.0,0.0,0.0,0.0,0.0,0.0,0.0,0.0,0.0,0.0,0.0,0.0,0.0,0.0,0.0,0.0,0.0,0.0,0.0,0.0,0.0,0.0,0.0,0.0,0.0,0.0,0.0,0.0,0.0,0.0,0.0,0.0,0.0,0.0,0.0,0.0,0.0,0.0,0.0,0.0,0.0,0.0,0.0,0.0,0.0,0.0,0.0,0.0,0.0,0.0,0.0,0.0,0.0,0.0,0.0,0.0,0.0,0.0,0.0,0.0,5.0241,5.1034,5.2058,5.3248,5.2064,5.0577,0.0,0.0,0.0,0.0,0.0,0.0,0.0,0.0,0.0,0.0,0.0,0.0,0.0,0.0,0.0,0.0,0.0,0.0,0.0,0.0,0.0,0.0,0.0,0.0,0.0,0.0,0.0,0.0,0.0,0.0,0.0,0.0,0.0,0.0,0.0,0.0,0.0,0.0,0.0,0.0,0.0,0.0,0.0,0.0,0.0,0.0,0.0,0.0,0.0,0.0,0.0,0.0,0.0,0.0,0.0,0.0,0.0,0.0,0.0,0.0,0.0,0.0,0.0,0.0,0.0,0.0,0.0,0.0,0.0,0.0,0.0,0.0,0.0,0.0,0.0,0.0,0.0,0.0,0.0,0.0,0.0,0.0,0.0,0.0,0.0,0.0,0.0,0.0,0.0,0.0,0.0,0.0,0.0,0.0,0.0,0.0,0.0,0.0,0.0,0.0,0.0,0.0,0.0,0.0,0.0,0.0,0.0,0.0,0.0,5.16,5.3054,5.4123,5.4645,5.3082,5.125,0.0,0.0,0.0,0.0,0.0,0.0,0.0,0.0,0.0,0.0,0.0,0.0,0.0,0.0,0.0,0.0,0.0,0.0,0.0,0.0,0.0,0.0,0.0,0.0,0.0,0.0,0.0,0.0,0.0,0.0,0.0,0.0,0.0,0.0,0.0,0.0,0.0,0.0,0.0,0.0,0.0,0.0,0.0,0.0,0.0,0.0,0.0,0.0,0.0,0.0,0.0,0.0,0.0,0.0,0.0,0.0,0.0,0.0,0.0,0.0,0.0,0.0,0.0,0.0,0.0,0.0,0.0,0.0,0.0,0.0,0.0,0.0,0.0,0.0,0.0,0.0,0.0,0.0,0.0,0.0,0.0,0.0,0.0,0.0,0.0,0.0,0.0,0.0,0.0,0.0,0.0,0.0,0.0,0.0,0.0,0.0,0.0,0.0,0.0,0.0,0.0,0.0,0.0,0.0,0.0,0.0,0.0,0.0,5.2268,5.3505,5.5321,5.5607,5.4256,5.4929,5.3519,0.0,0.0,0.0,0.0,0.0,0.0,0.0,0.0,0.0,0.0,0.0,0.0,0.0,0.0,0.0,0.0,0.0,0.0,0.0,0.0,0.0,0.0,0.0,0.0,0.0,0.0,0.0,0.0,0.0,0.0,0.0,0.0,0.0,0.0,0.0,0.0,0.0,0.0,0.0,0.0,0.0,0.0,0.0,0.0,0.0,0.0,0.0,0.0,0.0,0.0,0.0,0.0,0.0,0.0,0.0,0.0,0.0,0.0,0.0,0.0,0.0,0.0,0.0,0.0,0.0,0.0,0.0,0.0,0.0,0.0,0.0,0.0,0.0,0.0,0.0,0.0,0.0,0.0,0.0,0.0,0.0,0.0,0.0,0.0,0.0,0.0,0.0,0.0,0.0,0.0,0.0,0.0,0.0,0.0,0.0,0.0,0.0,0.0,0.0,0.0,0.0,0.0,0.0,0.0,0.0,0.0,0.0,0.0,0.0,5.4591,5.6415,5.7221,5.6758,5.5402,5.3859,0.0,0.0,0.0,0.0,0.0,0.0,0.0,0.0,0.0,0.0,0.0,0.0,0.0,0.0,0.0,0.0,0.0,0.0,0.0,0.0,0.0,0.0,0.0,0.0,0.0,0.0,0.0,0.0,0.0,0.0,0.0,0.0,0.0,0.0,0.0,0.0,0.0,0.0,0.0,0.0,0.0,0.0,0.0,0.0,0.0,0.0,0.0,0.0,0.0,0.0,0.0,0.0,0.0,0.0,0.0,0.0,0.0,0.0,0.0,0.0,0.0,0.0,0.0,0.0,0.0,0.0,0.0,0.0,0.0,0.0,0.0,0.0,0.0,0.0,0.0,0.0,0.0,0.0,0.0,0.0,0.0,0.0,0.0,0.0,0.0,0.0,0.0,0.0,0.0,0.0,0.0,0.0,0.0,0.0,0.0,0.0,0.0,0.0,0.0,0.0,0.0,0.0,0.0,0.0,0.0,0.0,0.0,0.0,0.0,5.7463,5.829,5.8776,5.8911,5.6537,5.4649,5.331,0.0,0.0,0.0,0.0,0.0,0.0,0.0,0.0,0.0,0.0,0.0,0.0,0.0,0.0,0.0,0.0,0.0,0.0,0.0,0.0,0.0,0.0,0.0,0.0,0.0,0.0,0.0,0.0,0.0,0.0,0.0,0.0,0.0,0.0,0.0,0.0,0.0,0.0,0.0,0.0,0.0,0.0,0.0,0.0,0.0,0.0,0.0,0.0,0.0,0.0,0.0,0.0,0.0,0.0,0.0,0.0,0.0,0.0,0.0,0.0,0.0,0.0,0.0,0.0,0.0,0.0,0.0,0.0,0.0,0.0,0.0,0.0,0.0,0.0,0.0,0.0,0.0,0.0,0.0,0.0,0.0,0.0,0.0,0.0,0.0,0.0,0.0,0.0,0.0,0.0,0.0,0.0,0.0,0.0,0.0,0.0,0.0,0.0,0.0,0.0,0.0,0.0,0.0,0.0,0.0,0.0,0.0,0.0,6.1669,6.076,6.037,6.0621,5.8284,5.5934,0.0,0.0,0.0,0.0,0.0,0.0,0.0,0.0,0.0,0.0,0.0,0.0,0.0,0.0,0.0,0.0,0.0,0.0,0.0,0.0,0.0,0.0,0.0,0.0,0.0,0.0,0.0,0.0,0.0,0.0,0.0,0.0,0.0,0.0,0.0,0.0,0.0,0.0,0.0,0.0,0.0,0.0,0.0,0.0,0.0,0.0,0.0,0.0,0.0,0.0,0.0,0.0,0.0,0.0,0.0,0.0,0.0,0.0,0.0,0.0,0.0,0.0,0.0,0.0,0.0,0.0,0.0,0.0,0.0,0.0,0.0,0.0,0.0,0.0,0.0,0.0,0.0,0.0,0.0,0.0,0.0,0.0,0.0,0.0,0.0,0.0,0.0,0.0,0.0,0.0,0.0,0.0,0.0,0.0,0.0,0.0,0.0,0.0,0.0,0.0,0.0,0.0,0.0,0.0,0.0,0.0,0.0,0.0,0.0,6.2452,6.2201,6.2137,6.2477,6.0021,5.8209,0.0,0.0,0.0,0.0,0.0,0.0,0.0,0.0,0.0,0.0,0.0,0.0,0.0,0.0,0.0,0.0,0.0,0.0,0.0,0.0,0.0,0.0,0.0,0.0,0.0,0.0,0.0,0.0,0.0,0.0,0.0,0.0,0.0,0.0,0.0,0.0,0.0,0.0,0.0,0.0,0.0,0.0,0.0,0.0,0.0,0.0,0.0,0.0,0.0,0.0,0.0,0.0,0.0,0.0,0.0,0.0,0.0,0.0,0.0,0.0,0.0,0.0,0.0,0.0,0.0,0.0,0.0,0.0,0.0,0.0,0.0,0.0,0.0,0.0,0.0,0.0,0.0,0.0,0.0,0.0,0.0,0.0,0.0,0.0,0.0,0.0,0.0,0.0,0.0,0.0,0.0,0.0,0.0,0.0,0.0,0.0,0.0,0.0,0.0,0.0,0.0,0.0,0.0,0.0,0.0,0.0,0.0,0.0,6.0951,6.4352,6.436,6.4479,6.4821,6.194,5.9919,0.0,0.0,0.0,0.0,0.0,0.0,0.0,0.0,0.0,0.0,0.0,0.0,0.0,0.0,0.0,0.0,0.0,0.0,0.0,0.0,0.0,0.0,0.0,0.0,0.0,0.0,0.0,0.0,0.0,0.0,0.0,0.0,0.0,0.0,0.0,0.0,0.0,0.0,0.0,0.0,0.0,0.0,0.0,0.0,0.0,0.0,0.0,0.0,0.0,0.0,0.0,0.0,0.0,0.0,0.0,0.0,0.0,0.0,0.0,0.0,0.0,0.0,0.0,0.0,0.0,0.0,0.0,0.0,0.0,0.0,0.0,0.0,0.0,0.0,0.0,0.0,0.0,0.0,0.0,0.0,0.0,0.0,0.0,0.0,0.0,0.0,0.0,0.0,0.0,0.0,0.0,0.0,0.0,0.0,0.0,0.0,0.0,0.0,0.0,0.0,0.0,0.0,0.0,0.0,0.0,0.0,0.0,0.0,6.2947,6.6516,6.6751,6.6863,6.6978,6.3909,6.1527,0.0,0.0,0.0,0.0,0.0,0.0,0.0,0.0,0.0,0.0,0.0,0.0,0.0,0.0,0.0,0.0,0.0,0.0,0.0,0.0,0.0,0.0,0.0,0.0,0.0,0.0,0.0,0.0,0.0,0.0,0.0,0.0,0.0,0.0,0.0,0.0,0.0,0.0,0.0,0.0,0.0,0.0,0.0,0.0,0.0,0.0,0.0,0.0,0.0,0.0,0.0,0.0,0.0,0.0,0.0,0.0,0.0,0.0,0.0,0.0,0.0,0.0,0.0,0.0,0.0,0.0,0.0,0.0,0.0,0.0,0.0,0.0,0.0,0.0,0.0,0.0,0.0,0.0,0.0,0.0,0.0,0.0,0.0,0.0,0.0,0.0,0.0,0.0,0.0,0.0,0.0,0.0,0.0,0.0,0.0,0.0,0.0,0.0,0.0,0.0,0.0,0.0,0.0,0.0,0.0,0.0,0.0,0.0,6.4519,6.7779,6.7623,6.7692,6.8039,6.592,6.3834,0.0,0.0,0.0,0.0,0.0,0.0,0.0,0.0,0.0,0.0,0.0,0.0,0.0,0.0,0.0,0.0,0.0,0.0,0.0,0.0,0.0,0.0,0.0,0.0,0.0,0.0,0.0,0.0,0.0,0.0,0.0,0.0,0.0,0.0,0.0,0.0,0.0,0.0,0.0,0.0,0.0,0.0,0.0,0.0,0.0,0.0,0.0,0.0,-4.9664,0.0,0.0,0.0,0.0,0.0,0.0,0.0,0.0,0.0,0.0,0.0,0.0,0.0,0.0,0.0,0.0,0.0,0.0,0.0,0.0,0.0,0.0,0.0,0.0,0.0,0.0,0.0,0.0,0.0,0.0,0.0,0.0,0.0,0.0,0.0,0.0,0.0,0.0,0.0,0.0,0.0,0.0,0.0,0.0,0.0,0.0,0.0,0.0,0.0,0.0,0.0,0.0,0.0,0.0,0.0,0.0,0.0,0.0,0.0,6.5448,6.8463,6.8373,6.8438,6.8789,6.786,6.6319,0.0,0.0,0.0,0.0,0.0,0.0,0.0,0.0,0.0,0.0,0.0,0.0,0.0,0.0,0.0,0.0,0.0,0.0,0.0,0.0,0.0,0.0,0.0,0.0,0.0,0.0,0.0,0.0,0.0,0.0,0.0,0.0,0.0,0.0,0.0,0.0,0.0,0.0,0.0,0.0,0.0,0.0,0.0,0.0,0.0,0.0,0.0,0.0,0.0,0.0,0.0,0.0,0.0,0.0,0.0,0.0,0.0,0.0,0.0,0.0,0.0,0.0,0.0,0.0,0.0,0.0,0.0,0.0,0.0,0.0,0.0,0.0,0.0,0.0,0.0,0.0,0.0,0.0,0.0,0.0,0.0,0.0,0.0,0.0,0.0,0.0,0.0,0.0,0.0,0.0,0.0,0.0,0.0,0.0,0.0,0.0,0.0,0.0,0.0,0.0,0.0,0.0,0.0,0.0,0.0,0.0,0.0,6.4407,6.6556,6.9226,6.9306,6.9442,6.9728,6.9758,6.8674,6.6396,0.0,0.0,0.0,0.0,0.0,0.0,0.0,0.0,0.0,0.0,0.0,0.0,0.0,0.0,0.0,0.0,0.0,0.0,0.0,0.0,0.0,0.0,0.0,0.0,0.0,0.0,0.0,0.0,0.0,0.0,0.0,0.0,0.0,0.0,0.0,0.0,0.0,0.0,-2.9518,-3.4769,0.0,0.0,0.0,0.0,0.0,0.0,0.0,0.0,-5.1228,0.0,0.0,0.0,0.0,0.0,0.0,0.0,0.0,0.0,0.0,0.0,0.0,0.0,0.0,0.0,0.0,0.0,0.0,0.0,0.0,0.0,0.0,0.0,0.0,0.0,0.0,0.0,0.0,0.0,0.0,0.0,0.0,0.0,0.0,0.0,0.0,0.0,0.0,0.0,0.0,0.0,0.0,0.0,0.0,0.0,0.0,0.0,0.0,0.0,0.0,0.0,0.0,0.0,0.0,0.0,0.0,6.6917,6.7695,6.9154,7.1267,7.1226,7.1325,7.1706,7.1564,7.0412,6.8192,0.0,0.0,0.0,0.0,0.0,0.0,0.0,0.0,0.0,0.0,0.0,0.0,0.0,0.0,0.0,0.0,0.0,0.0,0.0,0.0,0.0,0.0,0.0,0.0,0.0,0.0,0.0,0.0,0.0,0.0,0.0,0.0,0.0,0.0,0.0,0.0,0.0,0.0,0.0,-3.7103,-3.9797,0.0,0.0,0.0,0.0,0.0,0.0,0.0,0.0,-5.3315,0.0,0.0,0.0,0.0,0.0,0.0,0.0,0.0,0.0,0.0,0.0,0.0,0.0,0.0,0.0,0.0,0.0,0.0,0.0,0.0,0.0,0.0,0.0,0.0,0.0,0.0,0.0,0.0,0.0,0.0,0.0,0.0,0.0,0.0,0.0,0.0,0.0,0.0,0.0,0.0,0.0,0.0,0.0,0.0,0.0,0.0,0.0,0.0,0.0,0.0,0.0,0.0,0.0,0.0,0.0,6.7856,6.9244,7.0647,7.2219,7.2227,7.2363,7.2639,7.231,7.1142,0.0,0.0,0.0,0.0,0.0,0.0,0.0,0.0,0.0,0.0,0.0,0.0,0.0,0.0,0.0,0.0,0.0,0.0,0.0,0.0,0.0,0.0,0.0,0.0,0.0,0.0,0.0,0.0,0.0,0.0,0.0,0.0,0.0,0.0,0.0,0.0,0.0,0.0,0.0,0.0,-3.8926,-4.0941,-4.4013,0.0,0.0,0.0,0.0,0.0,0.0,-5.3248,-5.4123,0.0,0.0,0.0,0.0,0.0,0.0,0.0,0.0,0.0,0.0,0.0,0.0,0.0,0.0,0.0,0.0,0.0,0.0,0.0,0.0,0.0,0.0,0.0,0.0,0.0,0.0,0.0,0.0,0.0,0.0,0.0,0.0,0.0,0.0,0.0,0.0,0.0,0.0,0.0,0.0,0.0,0.0,0.0,0.0,0.0,0.0,0.0,0.0,0.0,0.0,0.0,0.0,0.0,0.0,0.0,6.8457,7.0448,7.2129,7.3457,7.3565,7.3662,7.3674,7.3246,7.1977,0.0,0.0,0.0,0.0,0.0,0.0,0.0,0.0,0.0,0.0,0.0,0.0,0.0,0.0,0.0,0.0,0.0,0.0,0.0,0.0,0.0,0.0,0.0,0.0,0.0,0.0,0.0,0.0,0.0,0.0,0.0,0.0,0.0,0.0,0.0,0.0,0.0,0.0,0.0,0.0,0.0,-4.2058,-4.4217,-4.5723,0.0,0.0,0.0,0.0,-5.3788,-5.4512,0.0,0.0,0.0,0.0,0.0,0.0,0.0,0.0,0.0,0.0,0.0,0.0,0.0,0.0,0.0,0.0,0.0,0.0,0.0,0.0,0.0,0.0,0.0,0.0,0.0,0.0,0.0,0.0,0.0,0.0,0.0,0.0,0.0,0.0,0.0,0.0,0.0,0.0,0.0,0.0,0.0,0.0,0.0,0.0,0.0,0.0,0.0,0.0,0.0,0.0,0.0,0.0,0.0,0.0,0.0,0.0,7.0186,7.223,7.4219,7.6044,7.6338,7.6164,7.5595,7.548,7.3696,0.0,0.0,0.0,0.0,0.0,0.0,0.0,0.0,0.0,0.0,0.0,0.0,0.0,0.0,0.0,0.0,0.0,0.0,0.0,0.0,0.0,0.0,0.0,0.0,0.0,0.0,0.0,0.0,0.0,0.0,0.0,0.0,0.0,0.0,0.0,0.0,0.0,0.0,0.0,0.0,0.0,-4.263,-4.4975,-4.6417,-4.8064,0.0,0.0,-5.3031,-5.6591,-5.7147,0.0,0.0,0.0,0.0,0.0,0.0,0.0,0.0,0.0,0.0,0.0,0.0,0.0,0.0,0.0,0.0,0.0,0.0,0.0,0.0,0.0,0.0,0.0,0.0,0.0,0.0,0.0,0.0,0.0,0.0,0.0,0.0,0.0,0.0,0.0,0.0,0.0,0.0,0.0,0.0,0.0,0.0,0.0,0.0,0.0,0.0,0.0,0.0,0.0,0.0,0.0,0.0,0.0,0.0,0.0,6.8331,7.1163,7.3704,7.5778,7.7226,7.7485,7.75,7.7316,7.6286,7.4389,0.0,0.0,0.0,0.0,0.0,0.0,0.0,0.0,0.0,0.0,0.0,0.0,0.0,0.0,0.0,0.0,0.0,0.0,0.0,0.0,0.0,0.0,0.0,0.0,0.0,0.0,0.0,0.0,0.0,0.0,0.0,0.0,0.0,0.0,0.0,0.0,0.0,0.0,0.0,0.0,0.0,0.0,-4.5528,-4.7174,0.0,0.0,0.0,-5.3635,-5.7236,0.0,0.0,0.0,0.0,0.0,0.0,0.0,0.0,0.0,0.0,0.0,0.0,0.0,0.0,0.0,0.0,0.0,0.0,0.0,0.0,0.0,0.0,0.0,0.0,0.0,0.0,0.0,0.0,0.0,0.0,0.0,0.0,0.0,0.0,0.0,0.0,0.0,0.0,0.0,0.0,0.0,0.0,0.0,0.0,0.0,0.0,0.0,0.0,0.0,0.0,0.0,0.0,0.0,0.0,0.0,0.0,0.0,7.2416,7.5447,7.7716,7.9057,7.928,7.9297,7.9076,7.747,0.0,0.0,0.0,0.0,0.0,0.0,0.0,0.0,0.0,0.0,0.0,0.0,0.0,0.0,0.0,0.0,0.0,0.0,0.0,0.0,0.0,0.0,0.0,0.0,0.0,0.0,0.0,-0.7393,0.0,0.0,0.0,0.0,0.0,0.0,0.0,0.0,0.0,0.0,0.0,0.0,0.0,0.0,-4.4407,-4.6531,-4.7975,-5.0043,0.0,0.0,-5.4406,-5.7608,-5.803,-5.8185,0.0,0.0,0.0,0.0,0.0,0.0,0.0,0.0,0.0,0.0,0.0,0.0,0.0,0.0,0.0,0.0,0.0,0.0,0.0,0.0,0.0,0.0,0.0,0.0,0.0,0.0,0.0,0.0,0.0,0.0,0.0,0.0,0.0,0.0,0.0,0.0,0.0,0.0,0.0,0.0,0.0,0.0,0.0,0.0,0.0,0.0,0.0,0.0,0.0,0.0,0.0,0.0,0.0,0.0,0.0,7.4369,7.7803,8.0532,8.2569,8.2832,8.228,8.0977,7.9754,7.7109,0.0,0.0,0.0,0.0,0.0,0.0,0.0,0.0,0.0,0.0,0.0,0.0,0.0,0.0,0.0,0.0,0.0,0.0,0.0,0.0,0.0,0.0,0.0,0.0,0.0,0.0,0.0,0.0,0.0,0.0,0.0,0.0,0.0,0.0,0.0,0.0,0.0,0.0,0.0,0.0,0.0,-4.4026,-4.8288,-4.8646,-4.963,0.0,0.0,-5.5946,-5.8129,-5.938,-6.0353,-6.0907,0.0,0.0,0.0,0.0,0.0,0.0,0.0,0.0,0.0,0.0,0.0,0.0,0.0,0.0,0.0,0.0,0.0,0.0,0.0,0.0,0.0,0.0,0.0,0.0,0.0,0.0,0.0,0.0,0.0,0.0,0.0,0.0,0.0,0.0,0.0,0.0,0.0,0.0,0.0,0.0,0.0,0.0,0.0,0.0,0.0,0.0,0.0,0.0,0.0,0.0,0.0,0.0,0.0,7.3716,7.5485,7.9491,8.2104,8.2989,8.3213,8.2817,8.1862,8.0931,7.8717,0.0,0.0,0.0,0.0,0.0,0.0,0.0,0.0,0.0,0.0,0.0,0.0,0.0,0.0,0.0,0.0,0.0,0.0,0.0,0.0,0.0,0.0,0.0,0.0,0.0,0.0,0.0,0.0,-1.183,-1.4619,-1.8605,0.0,0.0,0.0,0.0,0.0,0.0,0.0,0.0,0.0,0.0,-4.5154,-4.7519,-4.9525,0.0,0.0,-5.5877,-5.7394,-5.9891,-6.1212,-6.1885,-6.1813,-6.2393,0.0,0.0,0.0,0.0,0.0,0.0,0.0,0.0,0.0,0.0,0.0,0.0,0.0,0.0,0.0,0.0,0.0,0.0,0.0,0.0,0.0,0.0,0.0,0.0,0.0,0.0,0.0,0.0,0.0,0.0,0.0,0.0,0.0,0.0,0.0,0.0,0.0,0.0,0.0,0.0,0.0,0.0,0.0,0.0,0.0,0.0,0.0,0.0,0.0,0.0,0.0,0.0,7.5707,7.7164,8.1102,8.3368,8.3868,8.4016,8.3807,8.3125,8.207,8.0106,0.0,0.0,0.0,0.0,0.0,0.0,0.0,0.0,0.0,0.0,0.0,0.0,0.0,0.0,0.0,0.0,0.0,0.0,0.0,0.0,0.0,0.0,0.0,0.0,0.0,0.0,0.0,0.0,-1.2576,-1.5869,-2.0933,0.0,0.0,0.0,0.0,0.0,0.0,0.0,0.0,0.0,0.0,-4.5914,-4.7604,-4.9902,-5.2623,-5.5591,-5.662,-5.7915,-6.053,-6.2105,-6.2983,-6.294,0.0,0.0,0.0,0.0,0.0,0.0,0.0,0.0,0.0,0.0,0.0,0.0,0.0,0.0,0.0,0.0,0.0,0.0,0.0,0.0,0.0,0.0,0.0,0.0,0.0,0.0,0.0,0.0,0.0,0.0,5.1926,0.0,0.0,0.0,0.0,0.0,0.0,0.0,0.0,0.0,0.0,0.0,0.0,0.0,0.0,0.0,0.0,0.0,0.0,0.0,0.0,0.0,0.0,7.7155,7.9916,8.2634,8.4593,8.5552,8.5813,8.5599,8.4913,8.3295,8.1196,7.8683,0.0,0.0,0.0,0.0,0.0,0.0,0.0,0.0,0.0,0.0,0.0,0.0,0.0,0.0,0.0,0.0,0.0,0.0,0.0,0.0,0.0,0.0,0.0,0.0,0.0,0.0,-1.0586,-1.3592,-1.6963,0.0,0.0,0.0,0.0,0.0,0.0,0.0,0.0,0.0,0.0,-4.3997,-4.5982,-4.9038,-4.9845,-5.1336,-5.4568,-5.5851,-5.7225,-5.9737,-6.2,-6.3698,0.0,0.0,0.0,0.0,0.0,0.0,0.0,0.0,0.0,0.0,0.0,0.0,0.0,0.0,0.0,0.0,0.0,0.0,0.0,0.0,0.0,0.0,0.0,0.0,0.0,0.0,0.0,5.8981,5.7978,0.0,0.0,0.0,0.0,0.0,0.0,0.0,0.0,0.0,0.0,0.0,6.4973,6.7246,0.0,0.0,0.0,0.0,0.0,0.0,0.0,0.0,0.0,0.0,0.0,0.0,7.9423,8.1073,8.3674,8.5245,8.5779,8.5958,8.5709,8.5028,8.4944,8.2708,7.8122,0.0,0.0,0.0,0.0,0.0,0.0,0.0,0.0,0.0,0.0,0.0,0.0,0.0,0.0,0.0,0.0,0.0,0.0,0.0,0.0,0.0,0.0,0.0,0.0,0.0,-1.1932,0.0,0.0,0.0,0.0,0.0,0.0,0.0,0.0,0.0,0.0,0.0,-3.8966,-4.1164,-4.4723,-4.7581,-4.8805,-5.1784,-5.4719,0.0,0.0,0.0,0.0,0.0,0.0,0.0,0.0,0.0,0.0,0.0,0.0,0.0,0.0,-7.6285,-7.38,-7.3088,-7.3165,-7.4108,0.0,0.0,0.0,0.0,0.0,0.0,0.0,0.0,0.0,0.0,0.0,0.0,0.0,0.0,0.0,0.0,6.0791,0.0,0.0,0.0,0.0,0.0,0.0,0.0,0.0,6.8175,6.8976,6.9021,7.1332,7.2164,0.0,7.2024,7.1874,0.0,0.0,0.0,0.0,0.0,0.0,0.0,0.0,8.1603,8.2988,8.4977,8.5973,8.5923,8.612,8.5984,8.5452,8.5568,8.3672,7.9489,7.8012,7.3724,0.0,0.0,0.0,0.0,0.0,0.0,0.0,0.0,0.0,0.0,0.0,0.0,0.0,0.0,0.0,0.0,0.0,0.0,0.0,0.0,0.0,0.0,0.0,-1.3036,0.0,0.0,0.0,0.0,0.0,0.0,0.0,0.0,0.0,-3.4257,-3.7387,-4.0402,-4.2258,-4.5988,-4.8937,-4.978,0.0,0.0,0.0,0.0,0.0,0.0,0.0,-6.6384,-6.7125,-6.8634,-7.0003,-7.1131,-7.4085,-7.6549,-7.7322,0.0,0.0,-7.7,-7.6179,-7.6175,-7.6939,-7.8116,-7.9131,-7.9349,-8.1418,-8.309,0.0,0.0,0.0,0.0,0.0,0.0,0.0,0.0,6.4766,6.4252,0.0,6.2828,0.0,0.0,0.0,0.0,0.0,0.0,0.0,0.0,7.2821,7.4251,7.569,7.6104,7.6844,7.7807,7.7231,7.7485,7.8112,7.3332,0.0,0.0,0.0,0.0,0.0,0.0,8.3707,8.5473,8.6508,8.6729,8.617,8.6366,8.6384,8.6146,8.535,8.425,8.2806,7.988,7.1671,5.7171,5.1311,0.0,0.0,0.0,0.0,0.0,0.0,0.0,0.0,0.0,0.0,0.0,0.0,0.0,0.0,0.0,0.0,0.0,0.0,0.0,0.0,-1.3481,0.0,0.0,0.0,0.0,0.0,0.0,0.0,0.0,0.0,0.0,-3.5874,-3.9266,-4.2699,-4.5157,0.0,0.0,0.0,0.0,-5.453,-5.8053,-5.856,-5.983,-6.3388,-6.637,-6.8499,-6.917,0.0,0.0,-7.5764,-7.7434,-7.8692,-7.9527,-8.1107,-8.1813,-8.0295,-7.9639,-7.9412,-7.948,-7.9962,-8.0473,-8.1365,-8.3491,-8.5508,7.0731,0.0,0.0,0.0,0.0,6.9614,7.0048,7.033,7.0587,7.0254,6.9491,6.9198,0.0,0.0,0.0,0.0,0.0,0.0,7.1541,7.3366,7.3934,7.5148,7.68,7.6869,7.7611,7.8777,7.8625,7.8922,7.936,7.8735,7.7571,7.6169,0.0,0.0,0.0,0.0,8.5851,8.6547,8.7039,8.7209,8.7102,8.6684,8.6307,8.6107,8.6131,8.5921,8.5333,7.5383,7.0555,7.1532,4.7399,0.0,0.0,0.0,0.0,0.0,0.0,0.0,0.0,0.0,0.0,0.0,0.0,0.0,0.0,0.0,0.0,0.0,0.0,0.0,-1.2446,-1.5066,-1.7378,0.0,0.0,0.0,0.0,0.0,0.0,0.0,0.0,0.0,-3.8271,-4.1102,-4.3151,0.0,0.0,-5.029,-5.0547,-5.5182,-5.8951,-6.0048,-6.1826,0.0,-6.5143,-6.7073,-6.8767,-6.9983,-7.245,-7.4638,-7.5571,-7.7759,-7.9428,-7.9776,-8.2225,-8.3828,-8.2655,-8.1704,-8.1314,-8.1747,-8.2276,-8.2648,-8.3039,-8.5507,-8.7909,7.464,7.3515,7.2738,7.224,7.2113,7.2664,7.287,7.2765,7.3008,7.258,7.1709,7.1366,7.0592,6.9424,6.9459,0.0,0.0,0.0,7.394,7.5763,7.6482,7.7667,7.9251,7.9504,8.0043,8.0932,8.0911,8.1293,8.2279,8.2991,8.2742,8.1656,0.0,0.0,8.4129,8.6115,8.7693,8.8614,8.8551,8.8521,8.8545,8.7803,8.7254,8.6935,8.7436,8.4439,7.7528,7.5508,6.8529,5.5778,4.215,2.9056,0.0,0.0,0.0,0.0,0.0,0.0,0.0,0.0,0.0,0.0,0.0,-0.797,-0.8589,0.0,0.0,0.0,-1.1626,-1.2871,-1.4773,-1.739,0.0,0.0,0.0,0.0,0.0,0.0,0.0,-3.4624,-3.744,-3.9836,-4.1163,-4.296,-4.4442,-4.5379,-4.8719,-5.1465,-5.2659,0.0,-5.9869,-6.1744,-6.3434,-6.514,-6.6966,-6.8991,-7.1225,-7.3385,-7.5259,-7.6871,-7.7946,-7.9794,-8.1112,-8.1784,-8.3577,-8.4986,-8.4396,-8.3982,-8.3614,-8.364,-8.4369,-8.4944,-8.4984,-8.7525,-8.9647,7.8293,7.7747,7.5068,7.4179,7.4515,7.4626,7.4116,7.3216,7.3216,7.2511,7.1359,7.0961,7.0809,7.0874,7.0874,0.0,7.1809,7.394,7.6193,7.8609,7.9804,8.1061,8.2464,8.2922,8.3335,8.3701,8.3427,8.4242,8.5905,8.6139,8.6742,8.7697,8.5794,8.5885,8.7905,8.8221,8.9267,9.1168,9.0543,9.017,9.0111,8.9359,8.8737,8.8297,8.7913,8.0596,6.6554,7.6091,6.3729,2.505,3.512,3.0505,0.497,0.0,0.0,0.0,0.0,0.0,0.0,0.0,0.0,0.0,0.0,0.0,0.0,0.0,0.0,0.0,-1.4868,0.0,-1.7755,-2.0181,0.0,0.0,0.0,-2.6874,-2.8046,-3.137,-3.4603,-3.7294,0.0,0.0,-4.4184,-4.4909,-4.6241,-4.8922,-5.0571,-5.2768,-5.6431,-5.7294,-5.899,-6.3264,-6.43,-6.5705,-6.8989,-7.1905,-7.5061,-7.8059,-7.938,-8.0308,-8.147,-8.2611,-8.3567,-8.4121,-8.5147,-8.5762,-8.5749,-8.6289,-8.6643,-8.5165,-8.6138,-8.725,-8.7375,-8.9333,-9.1081,7.9727,7.9593,7.8877,7.7953,7.6934,7.6992,7.6399,7.5617,7.5551,7.519,7.4498,7.4106,7.438,7.5192,7.5192,7.5637,7.6526,7.7919,7.9293,8.0764,8.1059,8.1586,8.2263,8.2499,8.2962,8.3483,8.3591,8.4311,8.5646,8.6759,8.7923,8.9136,8.9648,8.9528,8.9061,9.037,9.1107,9.1297,9.0653,9.0108,8.9609,8.943,8.9499,8.9702,7.945,7.6937,8.2814,5.6185,4.0854,3.8893,2.4095,1.2315,0.5554,0.4162,0.0,0.0,0.0,0.0,0.0,0.0,0.0,0.0,0.0,-0.7982,-0.8439,0.0,-0.9718,0.0,-1.5878,-1.8468,-1.9056,-2.0742,0.0,0.0,-2.6047,-2.7109,-3.0261,-3.2149,-3.4525,-3.8004,-4.0401,-4.2486,-4.4618,-4.6287,-4.83,-5.0536,-5.1025,-5.2321,-5.5171,-5.9562,-6.3086,-6.4937,-6.7776,-7.0473,-7.1948,-7.5146,-7.8499,-8.1454,-8.2012,-8.2223,-8.2622,-8.3908,-8.4964,-8.5274,-8.688,-8.7562,-8.6607,-8.8027,-8.8764,-8.7665,-8.801,-8.8741,-8.8791,-9.096,-9.2813,7.9915,7.9498,7.9891,7.956,7.8651,7.8712,7.8207,7.7352,7.7352,7.6805,7.5838,7.558,7.5948,7.6745,7.7213,7.7841,7.8466,7.981,8.098,8.2008,8.2184,8.2475,8.2892,8.2974,8.3558,8.4737,8.4817,8.5697,8.7486,8.8492,8.9691,9.1112,9.1949,9.2096,9.1375,9.1827,9.1871,9.1415,9.1566,9.1316,9.0453,8.4621,8.3975,8.8786,7.048,6.2963,6.8383,4.3917,2.9041,2.6216,1.306,0.5834,0.5781,0.4648,0.456,0.0,0.0,0.0,0.0,0.0,0.0,0.0,0.0,0.0,0.0,0.0,-1.093,-1.4346,-1.734,-1.9552,-2.058,-2.2323,-2.4603,-2.7423,-2.7811,-2.9278,-3.2597,-3.4262,-3.6437,-3.9659,-4.2008,-4.4096,-4.536,-4.7368,-4.9538,-5.1734,-5.2634,-5.3991,-5.6226,-6.0093,-6.3428,-6.5782,-6.8556,-7.1732,-7.4951,-7.7648,-8.0224,-8.2774,-8.3659,-8.3825,-8.3991,-8.5202,-8.6389,-8.6471,-8.8073,-8.9037,-8.769,-8.9228,-9.032,-8.9257,-8.9819,-9.0694,-9.0477,-9.2279,-9.3905,7.9903,7.914,7.9926,8.0294,8.0241,8.0367,7.9661,7.8418,7.8277,7.7473,7.6292,7.6383,7.6768,7.7217,7.827,7.8819,7.9089,8.0602,8.1798,8.2559,8.2944,8.3332,8.3839,8.3665,8.4571,8.6271,8.6244,8.7516,8.9738,9.0337,9.1311,9.2633,9.3152,9.337,9.3249,9.2504,9.1982,9.1666,9.2469,9.2588,9.1816,7.8478,7.6089,8.4544,6.0758,4.5337,4.1548,3.4652,2.2408,0.462,0.4808,0.5503,0.522,0.5139,0.4534,0.0,0.1967,0.0,0.0,0.0,0.0,0.0,0.0,0.0,0.0,-1.0068,-1.2718,-1.6693,-1.8849,-2.0702,-2.2327,-2.4356,-2.6323,-2.8386,-2.9901,-3.1858,-3.4467,-3.6662,-3.9104,-4.1675,-4.4241,-4.6016,-4.6936,-4.8747,-5.0743,-5.3079,-5.4825,-5.6437,-5.8328,-6.032,-6.3218,-6.6807,-6.8653,-7.2629,-7.7952,-8.0017,-8.1435,-8.3893,-8.497,-8.5368,-8.5401,-8.6791,-8.7926,-8.808,-8.9322,-8.9985,-8.8475,-9.0193,-9.1261,-8.9893,-9.1362,-9.2691,-9.2178,-9.3122,-9.4198,8.17,8.1525,8.1737,8.2113,8.27,8.2568,8.0684,7.7515,7.6639,7.6322,7.6575,7.7984,7.8794,7.9289,7.9934,8.0312,8.0611,8.1302,8.1698,8.1672,8.2361,8.2984,8.3634,8.4032,8.4775,8.5922,8.6404,8.7407,8.8634,8.9625,9.074,9.191,9.2431,9.1995,9.0754,0.0,0.0,0.0,9.1471,9.1295,9.0919,7.8171,7.2056,7.3255,4.8426,0.0,3.6689,2.206,1.1299,0.6188,0.7089,0.0,0.0,0.0,0.0,0.0,0.0,0.0,0.0,0.0,0.0,0.0,-0.6864,-0.7904,-0.9646,-1.3004,-1.5861,-1.7636,-1.9423,-2.1787,-2.501,-2.5742,-2.7381,-3.0724,-3.1476,-3.2462,-3.4854,-3.7244,-3.9905,-4.2702,-4.5146,-4.7417,-4.9243,-5.117,-5.299,-5.5036,-5.7007,-5.8452,-5.9684,-6.294,-6.6291,-6.8929,-7.2663,-7.7264,-8.1547,-8.2229,-8.3132,-8.5878,-8.6726,-8.6825,-8.691,-8.8262,-8.9403,-8.9409,-9.0848,-9.1529,-9.002,-9.1764,-9.2817,-9.1414,-9.2611,-9.3694,-9.2979,-9.3363,-9.4001,8.2774,0.0,8.3214,8.3312,0.0,8.2613,8.0989,7.8694,7.8983,7.9122,7.9177,7.9342,7.9877,8.074,8.0755,8.0823,8.1005,8.1674,8.1845,8.1782,8.2893,8.3701,8.4335,8.462,8.5559,8.6861,8.7013,8.7558,8.8579,8.9376,9.012,9.0827,9.0141,8.9652,8.9504,8.56,8.3115,8.2206,7.5441,7.2333,7.2522,5.944,5.5181,6.0337,0.0,0.0,0.0,0.0,0.0,0.0,0.0,0.0,0.0,0.0,0.0,0.2961,-0.0,-0.2367,-0.3825,-0.562,-0.6553,-0.6097,-0.8124,-1.0119,-1.1154,-1.4726,-1.764,-1.8822,-2.075,-2.3176,-2.5806,-2.7022,-2.8778,-3.1439,-3.171,-3.281,-3.5061,-3.7809,-4.0505,-4.2987,-4.5684,-4.7838,-4.9251,-5.1706,-5.368,-5.508,-5.7491,-5.9461,-6.0801,-6.3439,-6.6725,-7.0508,-7.4285,-7.8286,-8.1698,-8.2829,-8.393,-8.6469,-8.7289,-8.7289,-8.7289,-8.8371,-8.9423,-8.9819,-9.0676,-9.0967,-9.0511,-9.1584,-9.2387,-9.1958,-9.2974,-9.4175,-9.4073,-9.4311,-9.4575,8.3448,8.3349,8.4008,8.3736,8.2732,8.2058,8.1098,8.0185,0.0,0.0,0.0,8.0281,8.0437,8.1359,8.1217,8.1111,8.1047,8.1862,8.2203,8.2237,8.3602,8.4489,8.503,8.5378,8.6303,8.7703,8.7501,8.7669,8.8328,8.8822,8.9214,8.9248,8.7038,8.595,8.5568,7.503,6.8765,6.7358,5.8294,5.3867,5.4231,4.0753,3.818,4.8304,2.3997,1.5602,2.545,1.45,0.8007,0.7813,0.5406,0.3997,0.4108,0.2603,0.2047,0.2435,-0.0,-0.1706,-0.1894,-0.4516,-0.5997,-0.5997,-0.9724,-1.232,-1.2668,-1.6044,-1.8792,-1.9879,-2.2209,-2.4364,-2.6126,-2.8088,-3.0051,-3.1859,-3.2061,-3.2991,-3.5399,-3.822,-4.0916,-4.3329,-4.6076,-4.8296,-4.9552,-5.2057,-5.4119,-5.5296,-5.7849,-6.0477,-6.2012,-6.4324,-6.7762,-7.2769,-7.5624,-7.8086,-8.1151,-8.2608,-8.4155,-8.6744,-8.7389,-8.7455,-8.7541,-8.8161,-8.9116,-9.0017,-9.0119,-9.0357,-9.0485,-9.136,-9.1833,-9.1975,-9.3253,-9.4559,-9.5341,-9.5417,-9.5477,8.3803,8.2749,8.3007,8.2912,8.2442,8.2143,8.1698,8.1,8.0226,7.9644,7.9228,7.9903,8.0141,8.0072,8.1088,8.136,8.1018,8.214,8.2547,0.0,8.343,8.4351,8.4998,8.5641,8.6355,8.6928,8.7356,8.7147,8.6508,8.7045,8.7458,8.6974,8.3441,7.9022,7.3611,5.7804,4.9646,5.0175,5.4491,5.6261,5.4727,4.2012,3.4803,3.3766,2.0787,1.4089,1.576,1.2323,0.984,0.8918,0.6985,0.51,0.3466,0.3028,0.2242,0.1114,-0.0557,-0.2043,-0.3156,-0.5009,-0.5935,-0.6123,-0.9689,-1.2471,-1.3096,-1.7011,-1.9727,-2.0646,-2.2748,-2.4867,-2.6677,-2.868,-3.0753,-3.2597,-3.2907,-3.3963,-3.6126,-3.8778,-4.1377,-4.38,-4.6516,-4.9741,-5.2413,-5.3652,-5.5296,-5.7873,-5.9317,-6.1608,-6.5101,-6.7882,-7.1172,-7.5323,-7.7299,-7.9173,-8.1279,-8.2729,-8.3995,-8.6864,-8.7633,-8.8051,-8.7985,-8.8647,-8.9613,-9.0666,-9.0738,-9.0916,-9.1053,-9.2459,-9.3033,-9.3374,-9.4227,-9.5294,-9.6162,-9.6393,-9.6568,8.4826,8.4605,8.4268,8.3513,8.254,8.1263,8.0765,8.0784,8.0208,7.9869,7.9663,7.9732,8.0136,8.0771,8.0946,8.1114,8.1308,8.2258,8.2701,8.2696,8.3881,8.4555,8.4741,8.5816,8.6444,8.6406,8.6593,8.6114,8.5101,8.4391,8.4398,8.4225,7.2383,6.3954,6.0137,5.212,4.4679,3.846,3.7558,3.7091,3.7029,2.9608,2.5302,2.4283,1.7486,1.4171,1.4374,1.1444,0.9568,0.9528,0.7411,0.5919,0.484,0.42,0.3197,0.1667,-0.037,-0.2035,-0.3513,-0.4995,-0.6291,-0.7579,-1.0421,-1.2835,-1.4342,-1.758,-2.0001,-2.0649,-2.3634,-2.606,-2.6966,-2.9707,-3.1948,-3.279,-3.3027,-3.3858,-3.6031,-3.8703,-4.1401,-4.3914,-4.6663,-4.9469,-5.247,-5.3788,-5.523,-5.8106,-5.9989,-6.279,-6.6792,-6.8535,-7.0922,-7.4603,-7.5771,-7.7121,-7.9694,-8.1408,-8.3035,-8.5237,-8.6777,-8.76,-8.7753,-8.8279,-8.8943,-9.0002,-9.0143,-9.0296,-9.1025,-9.188,-9.2631,-9.3386,-9.4384,-9.5491,-9.6363,-9.7446,-9.8392,8.5223,8.5195,8.4487,8.3521,8.2176,8.0344,8.0053,8.0749,8.0675,8.0742,8.0742,8.0048,8.0421,8.1357,8.0949,8.1049,8.1617,8.2243,8.261,8.2743,8.3944,8.4498,8.4356,8.5368,8.5762,8.5582,8.5303,8.4398,8.2908,8.1049,7.9803,7.753,6.1577,5.2271,5.0949,4.9001,4.3096,3.3531,2.5755,2.2069,2.245,2.0082,1.8752,1.886,1.6537,1.5072,1.5264,1.1425,0.952,0.9693,0.7598,0.6311,0.6196,0.5545,0.4146,0.2038,0.0185,-0.1849,-0.3884,-0.4995,-0.6657,-0.868,-1.0971,-1.3031,-1.535,-1.7981,-1.9834,-2.0714,-2.4376,-2.6979,-2.7509,-3.041,-3.2822,-3.2954,-3.2939,-3.4037,-3.6142,-3.8645,-4.1194,-4.389,-4.6477,-4.9255,-5.1769,-5.3641,-5.5672,-5.8604,-6.0589,-6.3453,-6.7148,-6.8435,-7.0158,-7.3152,-7.4486,-7.5816,-7.8139,-8.0296,-8.2229,-8.3954,-8.6029,-8.7161,-8.7501,-8.7654,-8.8547,-9.0061,-9.0058,-9.0535,-9.1731,-9.1986,-9.2399,-9.3297,-9.4453,-9.5522,-9.6693,-9.804,-9.9555,8.3922,8.2187,8.206,8.1371,8.0677,8.0081,8.056,8.1459,8.1368,8.1392,8.1673,8.1205,8.1034,8.12,8.1547,8.1769,8.1935,8.2194,8.2444,8.251,8.3235,8.3662,8.3563,8.3824,8.3933,8.3707,8.2874,8.1307,7.9062,7.7188,7.294,6.5634,5.6325,5.1658,5.0854,4.5175,4.0865,3.8829,3.15,2.6543,2.4234,2.3294,2.2311,2.0916,1.8862,1.7523,1.6898,1.2784,1.0274,0.9779,0.7624,0.6311,0.6196,0.6082,0.4489,0.1295,0.0739,-0.1109,-0.4625,-0.518,-0.6291,-0.868,-1.0981,-1.3264,-1.5654,-1.7683,-1.9225,-2.0593,-2.431,-2.6785,-2.716,-3.041,-3.2983,-3.3451,-3.3617,-3.4563,-3.7115,-3.9318,-4.1427,-4.3811,-4.6418,-4.9385,-5.3036,-5.4802,-5.6935,-6.0601,-6.1682,-6.3812,-6.7765,-6.876,-7.0158,-7.358,-7.5159,-7.6562,-7.8528,-8.0403,-8.1972,-8.4059,-8.6,-8.7323,-8.7887,-8.868,-8.9713,-9.0901,-9.1562,-9.2012,-9.3309,-9.3917,-9.351,-9.3875,-9.4747,-9.5676,-9.7211,-9.811,-9.8926,8.391,8.2909,8.1594,8.041,7.9369,7.8941,7.9815,8.1162,8.1114,8.1886,8.3081,8.2938,8.2674,8.2198,8.2379,8.2741,8.3169,8.3348,8.3212,8.2824,8.3117,8.2547,8.1591,8.1851,8.1857,8.1459,8.076,7.9237,7.633,7.1464,6.5942,6.0555,5.4179,5.0318,4.861,4.4691,4.0933,3.7254,3.3513,3.0369,2.7973,2.5251,2.2879,2.0682,1.8946,1.717,1.5348,1.245,1.0978,1.0735,0.9657,0.894,0.8581,0.7886,0.5876,0.2053,-0.0927,-0.3153,-0.5039,-0.5227,-0.6914,-1.0502,-1.1668,-1.3566,-1.6933,-1.8321,-1.9082,-1.9948,-2.3806,-2.6592,-2.7148,-3.041,-3.2954,-3.3543,-3.4427,-3.6067,-3.8333,-4.0611,-4.2839,-4.5145,-4.6497,-4.9126,-5.3738,-5.7219,-5.9805,-6.1908,-6.2571,-6.4691,-6.8324,-6.9242,-7.0837,-7.4006,-7.5507,-7.5949,-7.6996,-7.8959,-8.0916,-8.2755,-8.4989,-8.6966,-8.8079,-8.8498,-8.9465,-9.1625,-9.1612,-9.2144,-9.3615,-9.3495,-9.3131,-9.3758,-9.4839,-9.5866,-9.8166,-9.8598,-9.922,8.3156,8.2831,8.1376,8.02,7.9297,7.8969,7.9753,8.1294,8.1556,8.255,8.3998,8.4138,8.3821,8.33,8.303,8.316,8.3584,8.3407,8.3008,8.2449,8.2325,8.141,8.0012,7.9911,7.96,7.8672,7.7663,7.5595,7.2022,6.6016,6.0821,5.7137,5.3061,4.9568,4.6864,4.4251,4.0557,3.631,3.4177,3.2171,2.9871,2.6856,2.4057,2.1867,1.9867,1.7472,1.4868,1.2743,1.1683,1.1483,1.1259,1.0974,1.0428,0.9528,0.7093,0.283,-0.1498,-0.4306,-0.4715,-0.4905,-0.6798,-1.1182,-1.1951,-1.3645,-1.7227,-1.8557,-1.8769,-1.9371,-2.321,-2.613,-2.6954,-3.0218,-3.2703,-3.3202,-3.4967,-3.7144,-3.9379,-4.162,-4.3865,-4.5859,-4.6635,-4.888,-5.4008,-5.8612,-6.202,-6.252,-6.3324,-6.5308,-6.8593,-6.9915,-7.1235,-7.5024,-7.5766,-7.5769,-7.5773,-7.8055,-7.9989,-8.1528,-8.3788,-8.5983,-8.739,-8.7614,-8.8152,-8.9634,-9.0391,-9.1467,-9.2824,-9.2753,-9.2716,-9.312,-9.4124,-9.5777,-9.7654,-9.8351,-9.8932,8.1081,8.067,8.0626,8.0752,8.111,8.0705,8.1392,8.2313,8.303,8.3601,8.401,8.4121,8.4187,8.3995,8.3028,8.2606,8.2546,8.1856,8.1506,8.1249,8.0928,8.0313,7.9397,7.8175,7.6783,7.5393,7.3702,6.9716,6.4061,6.0983,5.8301,5.5224,5.2256,4.9567,4.6819,4.2685,3.9132,3.6606,3.4073,3.1321,2.8902,2.772,2.6615,2.4825,2.2444,1.9451,1.6848,1.4343,1.269,1.2084,1.1599,1.1135,1.1097,1.0347,0.7691,0.3237,-0.0951,-0.3428,-0.381,-0.4,-0.6085,-1.0432,-1.1564,-1.3451,-1.7608,-1.8192,-1.864,-1.9167,-2.2879,-2.557,-2.6482,-2.99,-3.2554,-3.3455,-3.5404,-3.768,-3.9899,-4.2459,-4.4063,-4.5939,-4.728,-4.9818,-5.4794,-5.9212,-6.2076,-6.3119,-6.3535,-6.5436,-6.9239,-7.0411,-7.2184,-7.5001,-7.6346,-7.6375,-7.6646,-7.8316,-7.9938,-8.1385,-8.3196,-8.4764,-8.5339,-8.5879,-8.6987,-8.814,-8.9567,-9.081,-9.1843,-9.2651,-9.3074,-9.3652,-9.4446,-9.5886,-9.7203,-9.7615,-9.8308,8.1356,8.0299,8.0155,8.0081,7.9904,7.9444,7.9936,8.0867,8.079,8.1566,8.278,8.2938,8.3158,8.3539,8.264,8.2549,8.2938,8.2288,8.1893,8.1392,8.0958,7.9817,7.7988,7.8056,7.6314,7.3174,7.2236,6.8746,6.258,5.9067,5.6416,5.4145,5.1471,4.8394,4.493,4.2107,3.9194,3.6007,3.41,3.192,2.9159,2.832,2.6342,2.2659,2.0878,1.8512,1.5544,1.4178,1.3368,1.309,1.2716,1.2069,1.1323,0.8043,0.5432,0.3461,-0.0577,-0.3265,-0.382,-0.3817,-0.59,-1.0621,-1.1375,-1.3263,-1.7055,-1.8282,-1.8568,-1.9389,-2.2497,-2.512,-2.6538,-2.9898,-3.347,-3.5558,-3.7824,-3.9982,-4.2281,-4.464,-4.6376,-4.7485,-4.9723,-5.3058,-5.574,-5.9591,-6.2365,-6.3128,-6.3811,-6.6166,-6.975,-7.1091,-7.2313,-7.5411,-7.6462,-7.6462,-7.6462,-7.844,-8.0212,-8.1725,-8.3369,-8.4782,-8.5597,-8.5953,-8.6791,-8.7765,-8.9274,-9.048,-9.1527,-9.2301,-9.284,-9.3474,-9.4374,-9.5869,-9.6808,-9.7874,-9.8796,8.1442,8.0504,8.0394,8.0149,7.9652,7.9032,7.9099,7.9627,7.9509,8.0269,8.1628,8.1909,8.2282,8.2552,8.1974,8.1839,8.2213,8.2078,8.1535,8.1017,8.0601,7.9414,7.7652,7.6999,7.4773,7.1046,6.907,6.5497,6.0579,5.7268,5.4795,5.2576,4.9801,4.661,4.3222,4.1265,3.8503,3.5338,3.3783,3.1586,2.8778,2.7289,2.4482,2.0578,1.9297,1.765,1.5081,1.4775,1.4403,1.3966,1.3598,1.2922,1.154,0.7675,0.468,0.3286,-0.0578,-0.3266,-0.3438,-0.3624,-0.571,-1.0243,-1.0998,-1.2893,-1.7311,-1.819,-1.8674,-2.0114,-2.2685,-2.5261,-2.7228,-3.0597,-3.3765,-3.5912,-3.8679,-4.1249,-4.2874,-4.5735,-4.748,-4.8791,-5.1688,-5.4573,-5.6735,-5.976,-6.1752,-6.2968,-6.4228,-6.678,-6.999,-7.1925,-7.3062,-7.5801,-7.6462,-7.6733,-7.7268,-7.8968,-8.0153,-8.1647,-8.3286,-8.4701,-8.5482,-8.5806,-8.6366,-8.7496,-8.8791,-9.0033,-9.1007,-9.185,-9.2611,-9.3236,-9.4759,-9.6358,-9.7433,-9.8562,-9.9315,8.1195,8.0951,8.129,8.095,8.0288,7.9803,7.9563,7.91,7.9574,8.0172,8.0861,8.1064,8.1486,8.1745,8.1186,8.0632,8.0601,8.0601,8.0322,7.99,7.9587,7.8956,7.7852,7.4745,7.1841,6.9106,6.3452,5.9224,5.661,5.5347,5.3365,5.0305,4.7296,4.4561,4.1958,3.9673,3.7371,3.4983,3.2934,3.0271,2.7014,2.479,2.1967,1.8901,1.8252,1.7496,1.6096,1.5911,1.557,1.4635,1.3966,1.3046,1.1545,0.8871,0.6245,0.3288,-0.0767,-0.2865,-0.3055,-0.3244,-0.5142,-0.9122,-1.0059,-1.2178,-1.6663,-1.7694,-1.8773,-2.133,-2.3748,-2.613,-2.8666,-3.1376,-3.3191,-3.364,-3.7933,-4.0903,-4.1898,-4.492,-4.8295,-5.0311,-5.2755,-5.484,-5.7198,-5.9524,-6.1495,-6.3003,-6.4647,-6.697,-6.9881,-7.1925,-7.4183,-7.583,-7.6579,-7.6995,-7.8242,-7.9557,-8.0404,-8.1329,-8.3139,-8.4606,-8.4923,-8.5278,-8.538,-8.6307,-8.8375,-8.965,-9.1476,-9.2291,-9.2891,-9.3723,-9.5355,-9.6616,-9.7558,-9.85,-9.9599,8.1374,8.129,8.0625,8.036,7.9995,7.9005,7.8501,7.831,7.8611,7.9064,7.9747,8.0192,8.0706,8.0925,8.0601,8.0212,7.9789,7.9505,7.922,7.9016,7.837,7.6799,7.4816,7.3359,7.0317,6.5492,6.062,5.7307,5.5498,5.3493,5.1191,4.8952,4.5538,4.2793,4.0979,3.912,3.7189,3.4997,3.276,3.0045,2.6851,2.4476,2.1714,1.9151,1.7933,1.7221,1.6834,1.6447,1.5817,1.5157,1.4391,1.3323,1.2165,0.9312,0.6872,0.5036,0.0386,-0.2697,-0.308,-0.3256,-0.516,-0.8798,-0.991,-1.2199,-1.6335,-1.7612,-1.8912,-2.1449,-2.3901,-2.6364,-2.8764,-3.1316,-3.3457,-3.5241,-3.8958,-4.178,-4.3314,-4.6385,-4.9613,-5.2677,-5.3842,-5.5812,-5.8935,-6.1014,-6.1789,-6.291,-6.4303,-6.6077,-6.9116,-7.0988,-7.2719,-7.501,-7.5908,-7.7072,-7.7971,-7.9483,-8.1032,-8.1929,-8.3469,-8.4852,-8.5073,-8.5199,-8.5105,-8.5975,-8.788,-8.9706,-9.15,-9.2756,-9.3473,-9.3935,-9.5075,-9.6135,-9.7222,-9.839,-9.9659,8.123,8.0841,8.0239,7.975,7.9255,7.8375,7.7894,7.7729,7.7724,7.8163,7.8869,7.9376,7.9881,8.023,8.0212,7.9789,7.922,7.8789,7.8354,7.8179,7.7532,7.5853,7.3212,7.0733,6.7206,6.2223,5.8496,5.5973,5.4172,5.2061,4.9509,4.6668,4.3732,4.1414,3.9609,3.802,3.6254,3.477,3.1743,2.9022,2.667,2.374,2.1173,1.9167,1.8187,1.7472,1.7028,1.6426,1.581,1.5376,1.444,1.3575,1.262,0.9356,0.6313,0.3707,0.0583,-0.2332,-0.3099,-0.4054,-0.5784,-0.9084,-1.0395,-1.2521,-1.5931,-1.7225,-1.8681,-2.2326,-2.4197,-2.6454,-2.9499,-3.15,-3.3807,-3.6205,-3.9195,-4.2468,-4.5366,-4.7588,-5.0598,-5.3549,-5.5067,-5.7191,-6.008,-6.1472,-6.1958,-6.2881,-6.3915,-6.5434,-6.856,-7.0526,-7.2706,-7.445,-7.5821,-7.678,-7.7405,-7.9247,-8.1402,-8.2673,-8.386,-8.5138,-8.5831,-8.6021,-8.6053,-8.7396,-8.9146,-9.0738,-9.2469,-9.3606,-9.4405,-9.4768,-9.5123,-9.6393,-9.7837,-9.8938,-10.0203,8.0841,7.9995,7.9873,7.9162,7.8245,7.7988,7.7724,7.7323,7.7478,7.7985,7.843,7.8933,7.9232,7.9577,7.9445,7.922,7.8789,7.8209,7.7475,7.6853,7.6288,7.5078,7.2237,6.7307,6.2858,5.9224,5.7087,5.4851,5.2503,5.0984,4.8177,4.3915,4.19,4.006,3.8169,3.6261,3.5505,3.4557,3.0319,2.7669,2.6638,2.2615,2.0003,1.9206,1.8637,1.8081,1.7149,1.6515,1.5957,1.5454,1.4452,1.3799,1.23,0.899,0.5542,0.1178,-0.0785,-0.1956,-0.3308,-0.5065,-0.7232,-0.9586,-1.1523,-1.3733,-1.598,-1.7179,-1.9208,-2.3481,-2.4903,-2.6942,-3.0728,-3.2385,-3.3824,-3.6221,-3.9628,-4.34,-4.7837,-4.8761,-5.0916,-5.4497,-5.6144,-5.7447,-6.1066,-6.1831,-6.2143,-6.2949,-6.4457,-6.6416,-6.8539,-7.0677,-7.3045,-7.4493,-7.5796,-7.6422,-7.7263,-7.9418,-8.1446,-8.2656,-8.3918,-8.5441,-8.6274,-8.6463,-8.6885,-8.8267,-8.9641,-9.1322,-9.2726,-9.361,-9.4584,-9.5136,-9.5924,-9.7173,-9.8034,-9.8913,-9.9636,8.0239,7.9873,7.888,7.8529,7.8611,7.825,7.8062,7.809,7.8138,7.8216,7.8216,7.8655,7.8941,7.8811,7.8866,7.8789,7.8179,7.7652,7.6375,7.4772,7.4,7.0733,6.6822,6.3129,6.0073,5.7434,5.6265,5.4388,5.1409,4.9023,4.5865,4.2124,3.9562,3.784,3.6548,3.5948,3.5505,3.4543,3.0509,2.7669,2.624,2.2518,2.0166,1.979,1.8783,1.8202,1.7643,1.6729,1.5897,1.5331,1.4963,1.4113,1.2819,1.1386,0.7547,-0.0,-0.0,-0.1182,-0.3157,-0.5703,-0.8257,-1.0867,-1.2194,-1.3544,-1.5839,-1.7802,-2.0268,-2.363,-2.5712,-2.8374,-3.1218,-3.2692,-3.4717,-3.8333,-4.1255,-4.4428,-4.7402,-4.905,-5.0922,-5.4464,-5.5665,-5.8053,-6.1039,-6.2504,-6.2768,-6.3796,-6.5046,-6.6859,-6.8784,-7.0815,-7.3076,-7.4439,-7.5603,-7.6205,-7.7361,-7.9642,-8.1362,-8.2588,-8.3992,-8.5692,-8.6263,-8.6463,-8.6949,-8.7644,-8.9055,-9.0576,-9.1735,-9.276,-9.3869,-9.5143,-9.5556,-9.6275,-9.6926,-9.7678,-9.8379,7.9627,7.9162,7.856,7.8418,7.856,7.8339,7.8304,7.8399,7.8537,7.8352,7.8226,7.8629,7.8639,7.8175,7.8489,7.7709,7.6622,7.6109,7.4646,7.2348,7.0556,6.7446,6.3701,6.0876,5.8586,5.6694,5.4993,5.2288,4.9459,4.6726,4.3626,4.0186,3.8068,3.6949,3.61,3.4381,3.3945,3.2681,2.9081,2.6014,2.5103,2.2051,2.0463,1.9677,1.8698,1.7769,1.7214,1.6522,1.5884,1.5685,1.5112,1.3884,1.1211,1.2248,0.8791,-0.0,-0.0,-0.0598,-0.2198,-0.5367,-0.8761,-1.1415,-1.2941,-1.449,-1.6138,-1.8348,-2.0672,-2.3375,-2.6092,-2.8867,-3.1698,-3.4142,-3.6907,-3.9478,-4.3044,-4.5886,-4.7873,-4.8651,-5.117,-5.4276,-5.6544,-5.8228,-6.2647,-6.3394,-6.3803,-6.4415,-6.5606,-6.7342,-6.8963,-7.094,-7.2895,-7.4224,-7.5349,-7.587,-7.6795,-7.8781,-8.1179,-8.256,-8.4452,-8.5993,-8.6409,-8.6685,-8.6969,-8.7667,-8.8717,-8.9773,-9.1147,-9.2501,-9.3753,-9.4703,-9.4902,-9.5284,-9.596,-9.6381,-9.7051,7.9225,7.8179,7.8704,7.8684,7.8236,7.8488,7.8582,7.8598,7.8407,7.8338,7.8317,7.8543,7.822,7.7718,7.7882,7.668,7.4364,7.4601,7.2478,6.9905,6.7195,6.4505,6.2837,6.0299,5.7815,5.5842,5.2848,5.019,4.7382,4.5,4.19,3.902,3.7479,3.6727,3.5492,3.2976,3.1355,3.0889,2.6905,2.4207,2.3285,2.1438,1.9882,1.9227,1.8313,1.7228,1.633,1.5877,1.5479,1.5678,1.5318,1.2906,0.9464,1.0927,0.766,-0.0,-0.0,-0.0,-0.0,-0.4835,-0.9086,-1.2191,-1.4756,-1.6096,-1.6686,-1.8535,-2.1235,-2.3304,-2.5858,-2.9117,-3.2168,-3.6378,-3.8831,-4.0352,-4.4025,-4.702,-4.7747,-4.8256,-5.0552,-5.5429,-5.6795,-5.9323,-6.2356,-6.4368,-6.4727,-6.5066,-6.6423,-6.8322,-6.9927,-7.1768,-7.3291,-7.4241,-7.5019,-7.56,-7.6615,-7.7751,-8.0337,-8.259,-8.4812,-8.6322,-8.6571,-8.6882,-8.7147,-8.7624,-8.8275,-8.9512,-9.1147,-9.2501,-9.3636,-9.4429,-9.4669,-9.4941,-9.5261,-9.5236,-9.5712,7.9061,7.8766,7.8658,7.8869,7.9055,7.8933,7.902,7.9163,7.866,7.8317,7.8003,7.7724,7.7521,7.7402,7.7152,7.6167,7.4181,7.3265,7.1202,6.6764,6.4104,6.2231,6.1086,5.9654,5.7087,5.4337,5.305,5.0046,4.6296,4.3556,4.1315,3.8988,3.6783,3.5633,3.529,3.2592,3.1114,3.0231,2.6125,2.3567,2.2719,2.1087,1.9565,1.8915,1.7784,1.6921,1.589,1.447,1.3661,1.3878,1.4537,1.2971,0.8734,0.5062,-0.0,-0.0,-0.0,-0.0,-0.0,-0.569,-1.0379,-1.4291,-1.546,-1.6212,-1.6494,-1.9792,-2.194,-2.3888,-2.7126,-3.0203,-3.2668,-3.6495,-3.894,-4.0675,-4.4095,-4.7149,-4.7416,-4.8304,-5.0823,-5.3849,-5.5894,-5.7915,-6.231,-6.335,-6.43,-6.5548,-6.7373,-6.9257,-7.1044,-7.252,-7.3603,-7.4648,-7.4871,-7.5402,-7.6207,-7.7654,-8.0386,-8.265,-8.4697,-8.6148,-8.6573,-8.6682,-8.6823,-8.7102,-8.7518,-8.9016,-9.0768,-9.1488,-9.2346,-9.3359,-9.4365,-9.4099,-9.3972,-9.4097,-9.4419,7.8512,7.8358,7.8366,7.8766,7.9207,7.9122,7.9173,7.9272,7.8889,7.8423,7.828,7.7819,7.7526,7.7144,7.6205,7.4686,7.223,6.9798,6.744,6.4628,6.2742,6.132,5.9778,5.8297,5.5749,5.2827,5.1107,4.8209,4.475,4.2167,4.011,3.8603,3.637,3.5232,3.4241,3.1503,2.9465,2.7917,2.4575,2.2123,2.1564,2.0722,1.9314,1.8467,1.7518,1.67,1.6185,1.4161,1.2542,1.1949,1.2388,1.1609,0.7954,-0.0,-0.0,-0.0,-0.0,-0.0,-0.0,-0.8756,-1.2201,-1.5139,-1.5662,-1.6024,-1.7006,-2.0308,-2.2688,-2.4105,-2.737,-3.1101,-3.3158,-3.6934,-3.933,-4.1424,-4.4797,-4.7156,-4.7674,-4.8899,-5.0978,-5.391,-5.5915,-5.8379,-6.0955,-6.2434,-6.3711,-6.4924,-6.7563,-6.9638,-7.1128,-7.2558,-7.4015,-7.492,-7.4947,-7.5312,-7.5789,-7.7689,-8.0659,-8.271,-8.4436,-8.54,-8.6005,-8.6259,-8.64,-8.6682,-8.7102,-8.8379,-8.9871,-9.0576,-9.1536,-9.2856,-9.3435,-9.2962,-9.2602,-9.2617,-9.3039,7.7833,7.7741,7.8277,7.875,7.8971,7.9233,7.919,7.922,7.8933,7.8555,7.8644,7.8209,7.7591,7.6887,7.5333,7.2857,6.9694,6.6391,6.4178,6.337,6.2457,6.0783,5.8862,5.6478,5.4132,5.2087,4.9483,4.6256,4.34,4.1045,3.9383,3.773,3.6059,3.4658,3.2866,2.9658,2.7036,2.5602,2.2679,2.0629,2.0414,1.9938,1.9274,1.8183,1.729,1.6144,1.5233,1.3436,1.1416,0.9604,0.9012,0.8198,0.6134,-0.0,-0.0,-0.0,-0.0,-0.0,-1.0223,-1.2658,-1.3655,-1.4936,-1.531,-1.6058,-1.7559,-2.0781,-2.3228,-2.5236,-2.8122,-3.1451,-3.3868,-3.7124,-4.0117,-4.2262,-4.5344,-4.7339,-4.8127,-4.956,-5.1771,-5.3699,-5.5556,-5.8046,-6.0203,-6.1944,-6.3127,-6.4718,-6.736,-6.9584,-7.1034,-7.2716,-7.4321,-7.5028,-7.5028,-7.6456,-7.7254,-7.7908,-8.0902,-8.3312,-8.4827,-8.515,-8.5823,-8.6308,-8.6514,-8.6383,-8.6931,-8.8108,-8.9117,-9.0097,-9.1156,-9.2503,-9.2723,-9.2364,-9.1869,-9.1261,-9.2091,7.8113,7.8413,7.8642,7.9001,7.9294,7.9016,7.8843,7.8789,7.838,7.8354,7.8179,7.7475,7.7092,7.6438,7.4868,7.198,6.8435,6.5273,6.337,6.2731,6.1968,6.054,5.7343,5.5086,5.2354,4.9142,4.7063,4.475,4.2234,4.0287,3.9073,3.7809,3.5405,3.3538,3.147,2.8134,2.5333,2.404,2.1473,1.9995,1.9898,1.9517,1.8946,1.7901,1.6892,1.537,1.3436,1.143,0.9216,0.7223,0.5377,0.4139,0.3092,0.1223,-0.0,-0.0,-0.6114,-1.0564,-1.2679,-1.3797,-1.4374,-1.5004,-1.575,-1.7249,-1.9293,-2.215,-2.4647,-2.6873,-2.9147,-3.1668,-3.3984,-3.7098,-3.9657,-4.2163,-4.485,-4.6937,-4.8174,-5.0127,-5.2076,-5.3357,-5.5237,-5.7078,-5.9173,-6.0871,-6.1865,-6.3548,-6.6542,-6.841,-6.9689,-7.2184,-7.4662,-7.5028,-7.5028,-7.709,-7.898,-7.9488,-8.1146,-8.4124,-8.5611,-8.5611,-8.615,-8.6736,-8.6821,-8.6483,-8.6415,-8.7134,-8.8275,-8.9512,-9.0203,-9.1059,-9.1453,-9.1801,-9.1303,-9.1005,-9.2123,7.768,7.7714,7.7638,7.7705,7.7995,7.7913,7.7629,7.7486,7.7343,7.7262,7.6887,7.5911,7.5484,7.4743,7.2085,6.9128,6.6556,6.4625,6.3241,6.2421,6.1968,5.9703,5.5991,5.3734,5.0643,4.7479,4.5011,4.3158,4.1271,4.0303,3.9136,3.7734,3.5422,3.2974,3.0726,2.7627,2.4708,2.2886,2.1063,2.0011,1.9906,1.9266,1.8236,1.7525,1.6564,1.5051,1.2705,1.0942,0.8917,0.6668,0.4594,0.3335,0.2278,-0.0,-0.0,-0.0,-0.7954,-1.2791,-1.2856,-1.3581,-1.4053,-1.5054,-1.6346,-1.838,-2.0654,-2.3512,-2.6629,-2.8756,-2.9824,-3.2018,-3.4626,-3.694,-3.9706,-4.274,-4.5221,-4.6752,-4.8434,-5.0842,-5.2235,-5.3286,-5.5514,-5.7263,-5.83,-5.9617,-6.035,-6.2524,-6.5471,-6.7185,-6.8469,-7.1426,-7.4554,-7.4859,-7.5001,-7.6814,-7.8895,-7.9905,-8.1573,-8.4575,-8.6065,-8.6065,-8.625,-8.6681,-8.6674,-8.6234,-8.6472,-8.6806,-8.7518,-8.8819,-8.9182,-8.9863,-9.0875,-9.1568,-9.0877,-9.087,-9.2097,7.7196,7.6789,7.6546,7.6524,7.6784,7.6703,7.6591,7.6278,7.5707,7.5683,7.5627,7.3842,7.3086,7.26,6.9905,6.6746,6.4299,6.3546,6.2861,6.1968,6.1178,5.8819,5.5138,5.2209,4.9142,4.5807,4.3244,4.1288,4.0691,3.972,3.8745,3.6765,3.4798,3.2171,2.9284,2.6412,2.4235,2.2175,2.0937,2.0239,1.9822,1.8729,1.768,1.7134,1.6239,1.4327,1.1774,0.9756,0.7935,0.6071,0.4399,0.3344,0.2491,0.0412,-0.0,-0.3485,-0.8764,-1.1157,-1.3004,-1.3145,-1.386,-1.4818,-1.7411,-1.9291,-2.2126,-2.531,-2.8824,-3.0272,-3.1314,-3.2353,-3.5277,-3.7346,-3.9985,-4.2757,-4.5024,-4.6786,-4.8249,-5.0294,-5.226,-5.3923,-5.6208,-5.7532,-5.8467,-5.8962,-5.9928,-6.1829,-6.4721,-6.6873,-6.8398,-7.1418,-7.3854,-7.4464,-7.5143,-7.6537,-7.83,-7.9847,-8.2065,-8.5144,-8.6065,-8.6096,-8.6312,-8.6736,-8.6489,-8.6335,-8.6489,-8.6918,-8.7575,-8.8067,-8.8761,-8.9792,-9.1081,-9.1463,-9.1013,-9.1195,-9.2203,7.7061,7.6409,7.6379,7.6524,7.6724,7.6472,7.6219,7.5875,7.4022,7.31,7.3008,7.1058,7.0399,7.0044,6.8481,6.6208,6.4402,6.3169,6.241,6.1468,5.9795,5.7045,5.3189,5.0293,4.7641,4.4605,4.2244,4.0917,4.0109,3.894,3.7174,3.4997,3.3187,3.0343,2.7283,2.5255,2.2797,2.0945,2.032,2.0231,1.9838,1.8814,1.8052,1.7149,1.5107,1.2522,1.0372,0.8539,0.6267,0.4413,0.376,0.2912,0.1452,-0.2279,-0.7043,-0.9308,-1.007,-0.9151,-1.2186,-1.3167,-1.4082,-1.5327,-1.7668,-2.0353,-2.4032,-2.7327,-3.0231,-3.0742,-3.2131,-3.3521,-3.5508,-3.7909,-4.0668,-4.252,-4.4293,-4.584,-4.7472,-5.0116,-5.2146,-5.4463,-5.6655,-5.7625,-5.8576,-5.9028,-5.9672,-6.1692,-6.3721,-6.5917,-6.8297,-7.1409,-7.3299,-7.3881,-7.4608,-7.6069,-7.7997,-7.9544,-8.2095,-8.5353,-8.6004,-8.6065,-8.6342,-8.6674,-8.6767,-8.6705,-8.6835,-8.705,-8.756,-8.8032,-8.865,-8.9544,-9.075,-9.1155,-9.1257,-9.188,-9.259,7.6441,7.5836,7.5563,7.5467,7.5429,7.5179,7.4386,7.3039,7.1988,7.1119,7.0186,6.8535,6.7289,6.681,6.5614,6.4653,6.3322,6.279,6.1982,6.0655,5.8791,5.5964,5.2404,4.9567,4.6855,4.3762,4.1486,4.0319,3.9526,3.8549,3.678,3.42,3.2384,2.9951,2.6066,2.4451,2.2383,2.0912,2.0223,2.0085,1.9734,1.8814,1.8134,1.7879,1.4849,1.2033,0.9804,0.777,0.5687,0.3811,0.3375,0.2733,-0.0,-0.5015,-1.1299,-1.2476,-1.1851,-1.1788,-1.2968,-1.333,-1.4594,-1.6948,-1.9508,-2.2943,-2.6911,-2.9434,-3.0781,-3.0769,-3.2034,-3.3665,-3.5683,-3.7633,-4.0062,-4.1955,-4.3523,-4.5753,-4.76,-4.9882,-5.228,-5.4697,-5.7059,-5.7738,-5.8431,-5.8686,-5.9528,-6.1672,-6.3738,-6.6015,-6.8474,-7.1192,-7.256,-7.3246,-7.4141,-7.5289,-7.7513,-7.94,-8.1882,-8.4724,-8.5965,-8.6089,-8.6459,-8.6644,-8.6674,-8.7112,-8.7728,-8.782,-8.7815,-8.8193,-8.8734,-8.9596,-9.0452,-9.1137,-9.1766,-9.2556,-9.3365,7.573,7.5142,7.5006,7.4594,7.4318,7.4179,7.2857,7.087,7.0135,6.9191,6.776,6.6259,6.488,6.4038,6.4084,6.365,6.2742,6.241,6.1445,5.9954,5.7828,5.4925,5.1499,4.867,4.6151,4.3118,4.0805,3.9931,3.9136,3.775,3.5593,3.36,3.1365,2.8721,2.5871,2.3822,2.2184,2.052,2.0223,2.0101,1.9569,1.8875,1.7851,1.6426,1.4192,1.1531,0.9266,0.696,0.4663,0.3817,0.3381,0.2524,-0.084,-0.6295,-1.1354,-1.2797,-1.3027,-1.3016,-1.3395,-1.3664,-1.521,-1.8006,-2.1708,-2.5231,-2.9331,-3.0672,-3.0974,-3.1433,-3.2721,-3.434,-3.6134,-3.8081,-3.9985,-4.1697,-4.2782,-4.5369,-4.7907,-4.9705,-5.2146,-5.4849,-5.674,-5.8205,-5.8497,-5.8387,-5.9591,-6.167,-6.3791,-6.6145,-6.8575,-7.1218,-7.2017,-7.2851,-7.3219,-7.4621,-7.7463,-7.9731,-8.2125,-8.4003,-8.525,-8.5811,-8.5881,-8.6188,-8.652,-8.7173,-8.8035,-8.7881,-8.7476,-8.8193,-8.9023,-8.9714,-9.0489,-9.1645,-9.2386,-9.3166,-9.3621,7.5066,7.4456,7.4731,7.4594,7.4179,7.3901,7.2544,7.0107,6.8586,6.6987,6.5632,6.4513,6.3811,6.3422,6.3735,6.3675,6.3145,6.2279,6.0748,5.8491,5.6034,5.3073,5.0031,4.7508,4.524,4.3453,4.1,3.9736,3.8729,3.5975,3.3987,3.1982,3.0153,2.6896,2.4441,2.2806,2.1561,2.0529,2.0279,2.0071,1.936,1.847,1.6982,1.4528,1.1782,0.9263,0.7022,0.5084,0.4013,0.3381,0.3366,0.1259,-0.2314,-0.6946,-1.0757,-1.2916,-1.3558,-1.3763,-1.3962,-1.4116,-1.4898,-1.7833,-2.2096,-2.672,-3.0236,-3.0431,-3.0982,-3.2621,-3.3814,-3.5773,-3.785,-3.9767,-4.1012,-4.1719,-4.2742,-4.4851,-4.7182,-4.9244,-5.1719,-5.4697,-5.6613,-5.8074,-5.8497,-5.8344,-6.029,-6.2351,-6.5202,-6.7391,-6.9126,-7.133,-7.1739,-7.2283,-7.2402,-7.4236,-7.771,-7.9992,-8.1698,-8.3131,-8.4436,-8.4966,-8.5119,-8.5458,-8.6035,-8.6466,-8.6963,-8.705,-8.705,-8.7508,-8.8173,-8.9507,-9.0522,-9.1444,-9.2447,-9.3385,-9.3537,7.4731,7.4318,7.3363,7.2628,7.2057,7.1942,7.0107,6.7549,6.6495,6.5343,6.3792,6.3266,6.3057,6.3248,6.3409,6.3169,6.2279,6.0771,5.927,5.7197,5.4337,5.1538,4.8888,4.698,4.4815,4.3385,4.1146,3.972,3.9315,3.5167,3.2986,3.1176,2.9545,2.6896,2.4245,2.1977,2.0945,2.0529,2.032,2.0111,1.9261,1.7336,1.5838,1.44,0.996,0.8048,0.6594,0.4674,0.382,0.339,0.338,0.0422,-0.3591,-0.7827,-1.1244,-1.3195,-1.3613,-1.4024,-1.5066,-1.5431,-1.6863,-2.1612,-2.5635,-2.8882,-3.037,-3.0503,-3.1408,-3.2968,-3.4898,-3.6882,-3.8597,-4.0186,-4.1373,-4.1706,-4.2684,-4.4363,-4.6582,-4.8811,-5.1875,-5.515,-5.6845,-5.8133,-5.8322,-5.83,-6.0776,-6.3302,-6.6187,-6.8544,-7.0041,-7.099,-7.1319,-7.2045,-7.2335,-7.3884,-7.7315,-7.9171,-8.0814,-8.235,-8.3831,-8.3862,-8.4161,-8.4766,-8.5164,-8.5648,-8.6041,-8.6134,-8.6373,-8.6404,-8.7113,-8.8439,-8.9831,-9.1137,-9.2325,-9.3487,-9.3571,7.4268,7.3516,7.2114,7.1278,7.0696,7.0255,6.8132,6.5582,6.5266,6.4188,6.2677,6.2373,6.2565,6.2925,6.3257,6.2967,6.1897,6.0,5.8218,5.574,5.3073,5.0262,4.8229,4.659,4.499,4.3368,4.1634,4.027,3.8518,3.4344,3.2171,3.0772,2.9354,2.6508,2.4038,2.1561,2.032,2.032,2.032,1.9903,1.9059,1.6728,1.4195,1.2937,0.8914,0.6589,0.5534,0.4045,0.3621,0.2981,0.1915,-0.0425,-0.4678,-0.9151,-1.2787,-1.3629,-1.3824,-1.444,-1.5691,-1.7573,-1.9647,-2.3568,-2.6571,-2.8986,-3.0346,-3.1084,-3.2661,-3.4336,-3.6047,-3.7593,-3.954,-4.0889,-4.1563,-4.1833,-4.1849,-4.3296,-4.664,-4.9236,-5.2514,-5.5788,-5.6842,-5.7807,-5.8884,-5.9234,-6.1461,-6.4182,-6.6965,-6.9025,-7.014,-7.0664,-7.0598,-7.1491,-7.2525,-7.4444,-7.6759,-7.8581,-8.0404,-8.193,-8.2971,-8.2905,-8.3234,-8.3776,-8.4198,-8.4381,-8.4742,-8.525,-8.5273,-8.4966,-8.6036,-8.7399,-8.9113,-9.1021,-9.2571,-9.3571,-9.3571,7.3491,7.2107,7.1154,7.0634,7.022,6.8915,6.7141,6.5053,6.4472,6.335,6.1981,6.2154,6.2369,6.2751,6.3057,6.2694,6.1874,5.9613,5.7186,5.4695,5.1804,4.9271,4.7343,4.5949,4.5147,4.394,4.2211,4.0266,3.7613,3.4696,3.2261,2.9616,2.8041,2.5933,2.3635,2.1353,2.032,2.032,2.032,1.9694,1.8424,1.6308,1.3353,1.1037,0.7865,0.5534,0.4261,0.3837,0.3411,0.3198,0.0213,-0.2339,-0.5099,-1.0424,-1.3412,-1.3607,-1.3819,-1.4639,-1.6295,-1.9238,-2.195,-2.448,-2.7318,-2.8722,-3.0672,-3.2275,-3.3963,-3.5472,-3.7386,-3.9381,-4.0825,-4.1597,-4.1818,-4.1818,-4.1833,-4.3417,-4.6769,-4.9535,-5.28,-5.5451,-5.6312,-5.7185,-5.8809,-6.0273,-6.2576,-6.5046,-6.7749,-6.9371,-7.0257,-7.0283,-7.0023,-7.1106,-7.2325,-7.4196,-7.63,-7.815,-7.9964,-8.1362,-8.2136,-8.1864,-8.2067,-8.2456,-8.2845,-8.3057,-8.3472,-8.3886,-8.3664,-8.3348,-8.4871,-8.6505,-8.9119,-9.1181,-9.2625,-9.3571,-9.3571,7.4105,7.2673,7.0947,6.9488,6.8217,6.7214,6.5682,6.3716,6.2645,6.1918,6.157,6.1522,6.1955,6.2408,6.2393,6.2125,6.1468,5.7894,5.5051,5.3737,5.0262,4.795,4.627,4.552,4.5038,4.4016,4.2773,4.0729,3.7984,3.5069,3.2481,2.9847,2.6762,2.4588,2.3258,2.1561,2.032,2.032,2.0111,1.9686,1.8215,1.5036,1.2084,0.9984,0.6594,0.4261,0.3411,0.3411,0.3411,0.277,-0.0426,-0.3189,-0.5733,-1.0632,-1.3407,-1.403,-1.444,-1.6741,-1.9029,-2.176,-2.3691,-2.5872,-2.7437,-2.9111,-3.1059,-3.2628,-3.4501,-3.6551,-3.828,-4.005,-4.1392,-4.1628,-4.1833,-4.2227,-4.284,-4.5019,-4.778,-5.0141,-5.274,-5.4735,-5.6226,-5.7678,-5.9293,-6.0951,-6.3039,-6.5123,-6.7673,-6.8838,-6.981,-6.9538,-6.9344,-7.0831,-7.2231,-7.3887,-7.5837,-7.8166,-7.9682,-8.0765,-8.1001,-8.0701,-8.0995,-8.1231,-8.1589,-8.2007,-8.2238,-8.2466,-8.2244,-8.2397,-8.3919,-8.5939,-8.8075,-9.0514,-9.2255,-9.3131,-9.3571,7.3178,7.1268,6.9704,6.8039,6.6382,6.5565,6.4374,6.285,6.1715,6.1426,6.1595,6.1617,6.173,6.2083,6.2074,6.0861,6.0133,5.6533,5.3425,5.1993,4.8531,4.6839,4.5825,4.5217,4.4945,4.4203,4.2674,4.0463,3.72,3.4803,3.1937,2.8972,2.5929,2.4298,2.3133,2.1621,2.032,2.032,2.0111,1.9261,1.6937,1.3979,1.1024,0.8498,0.5747,0.3411,0.3411,0.3411,0.2985,0.1704,-0.0851,-0.4039,-0.7008,-1.0196,-1.3401,-1.403,-1.5908,-1.8208,-2.0504,-2.2383,-2.4371,-2.6317,-2.7808,-2.9631,-3.1856,-3.4072,-3.5732,-3.7581,-3.9122,-4.0378,-4.1628,-4.1849,-4.2038,-4.2447,-4.3823,-4.6005,-4.8176,-5.055,-5.272,-5.4693,-5.585,-5.7656,-5.984,-6.1718,-6.3394,-6.5496,-6.7596,-6.8514,-6.9443,-6.9171,-6.9259,-7.0682,-7.245,-7.4353,-7.6375,-7.8499,-7.9605,-8.0287,-8.0165,-7.9836,-7.9866,-8.0248,-8.0428,-8.0754,-8.1106,-8.1274,-8.0872,-8.1367,-8.2772,-8.4409,-8.6178,-8.8663,-9.1413,-9.2455,-9.2996,7.0615,6.8245,6.7363,6.6347,6.5251,6.4268,6.3249,6.2373,6.2324,6.1933,6.1686,6.2023,6.2041,6.1708,6.158,6.0141,5.7575,5.4783,5.2333,4.9895,4.7295,4.6229,4.5612,4.5165,4.4643,4.3788,4.2123,3.9458,3.604,3.2969,3.0314,2.7983,2.5301,2.4327,2.3179,2.1639,2.0537,2.032,1.9686,1.8417,1.5882,1.2922,1.0179,0.7438,0.4898,0.3624,0.3198,0.3198,0.2344,0.0426,-0.2763,-0.5523,-0.8282,-1.1474,-1.2963,-1.4651,-1.7161,-1.9037,-2.1345,-2.3014,-2.4231,-2.597,-2.7585,-2.9921,-3.2603,-3.4843,-3.6913,-3.8678,-4.0187,-4.1012,-4.1849,-4.1849,-4.2038,-4.3027,-4.443,-4.6405,-4.8373,-5.055,-5.272,-5.4312,-5.5094,-5.6933,-5.9795,-6.185,-6.3699,-6.6065,-6.7903,-6.8358,-6.8952,-6.8926,-6.9512,-7.1123,-7.2871,-7.5045,-7.6884,-7.8478,-7.9247,-7.9776,-7.9447,-7.9178,-7.9208,-7.9327,-7.9682,-8.0007,-8.0213,-8.0176,-7.9958,-8.0395,-8.1278,-8.3055,-8.5083,-8.7445,-9.0288,-9.1276,-9.1865,6.9498,6.7796,6.7232,6.6001,6.415,6.3202,6.2788,6.2373,6.1353,6.0821,6.0652,6.0796,6.1126,6.1035,5.9085,5.8119,5.6043,5.3591,5.1116,4.8688,4.6544,4.5658,4.4975,4.4533,4.4102,4.327,4.148,3.8605,3.5239,3.1743,2.9085,2.7386,2.5091,2.4317,2.3142,2.1379,2.0729,1.9871,1.923,1.7133,1.482,1.1863,0.9126,0.6592,0.4478,0.3627,0.3199,0.2344,0.1491,0.0213,-0.4249,-0.7223,-0.7862,-1.1474,-1.4024,-1.6951,-1.841,-1.967,-2.241,-2.3568,-2.4365,-2.6011,-2.8081,-3.0271,-3.2957,-3.52,-3.7652,-3.9552,-4.0806,-4.1628,-4.1849,-4.1849,-4.2431,-4.3823,-4.5404,-4.7582,-4.9573,-5.1755,-5.3719,-5.4312,-5.5114,-5.7284,-5.9977,-6.1756,-6.3778,-6.648,-6.8061,-6.8539,-6.8847,-6.8847,-6.9927,-7.1526,-7.2858,-7.5044,-7.6515,-7.8036,-7.8622,-7.9028,-7.8878,-7.8789,-7.8908,-7.9058,-7.9088,-7.9148,-7.9442,-7.9467,-7.9197,-7.987,-8.0956,-8.2489,-8.4443,-8.6758,-8.8828,-8.9969,-9.0871,6.772,6.6477,6.6227,6.5097,6.3538,6.2323,6.1911,6.1667,6.1159,6.082,6.082,6.0722,6.0644,6.0205,5.7906,5.6086,5.4851,5.1698,4.9149,4.7366,4.5852,4.5215,4.4482,4.3797,4.3062,4.2015,4.009,3.7085,3.397,3.051,2.765,2.7407,2.5301,2.4051,2.306,2.1492,1.9943,1.9099,1.7855,1.5793,1.309,1.0589,0.8282,0.5749,0.3845,0.3636,0.3199,0.1704,0.0639,-0.0426,-0.5313,-0.8074,-0.9133,-1.253,-1.5487,-1.8006,-1.9547,-2.1037,-2.3188,-2.3975,-2.451,-2.5902,-2.8412,-3.0752,-3.348,-3.5924,-3.8277,-4.0378,-4.1218,-4.1849,-4.1849,-4.2038,-4.3434,-4.4817,-4.6786,-4.8965,-5.1153,-5.3144,-5.4122,-5.4524,-5.5996,-5.7982,-6.0135,-6.1733,-6.4031,-6.667,-6.8151,-6.8371,-6.868,-6.8847,-7.0392,-7.243,-7.3376,-7.4703,-7.6288,-7.7857,-7.8384,-7.8908,-7.8849,-7.8789,-7.8789,-7.8819,-7.8908,-7.8908,-7.8849,-7.8933,-7.9046,-7.987,-8.0925,-8.2489,-8.4187,-8.6176,-8.7872,-8.9014,-8.9798,6.5582,6.4446,6.4354,6.3726,6.2809,6.1447,6.0821,6.0941,6.1301,6.1614,6.1518,6.1049,6.0435,5.9144,5.6576,5.4101,5.2392,4.9551,4.7553,4.5883,4.5029,4.4583,4.4377,4.3745,4.2419,4.0467,3.7933,3.5166,3.2043,2.9203,2.7553,2.7386,2.5301,2.3842,2.3446,2.1251,1.945,1.7391,1.6646,1.5057,1.1136,0.8664,0.7234,0.4268,0.3431,0.3444,0.2992,0.1704,-0.0,-0.2341,-0.5528,-0.8501,-1.1258,-1.358,-1.6531,-1.8483,-2.0046,-2.2021,-2.3382,-2.4173,-2.4769,-2.5952,-2.7984,-3.1034,-3.4111,-3.6775,-3.8915,-4.0791,-4.1628,-4.1849,-4.1849,-4.284,-4.4026,-4.6005,-4.7978,-5.016,-5.2335,-5.374,-5.4333,-5.4904,-5.6162,-5.8145,-6.0294,-6.209,-6.423,-6.6959,-6.8048,-6.8319,-6.868,-6.8847,-7.0718,-7.2877,-7.3661,-7.4896,-7.724,-7.847,-7.8644,-7.8789,-7.8789,-7.8789,-7.8789,-7.8789,-7.8789,-7.8933,-7.9046,-7.919,-7.9445,-8.037,-8.1579,-8.315,-8.4569,-8.5759,-8.6984,-8.8279,-8.8943,6.389,6.3224,6.2539,6.1875,6.1349,6.0628,6.0411,6.0364,6.0484,6.0604,6.0556,6.0095,5.9038,5.748,5.478,5.2361,5.0146,4.8242,4.6278,4.5506,4.4578,4.4233,4.394,4.3259,4.1713,3.9488,3.6729,3.2807,2.9442,2.7917,2.7381,2.7162,2.5172,2.3805,2.3409,2.1234,1.8586,1.6029,1.5277,1.3537,0.986,0.7616,0.5967,0.4277,0.3438,0.3441,0.2781,0.1278,-0.0213,-0.2129,-0.7016,-1.0204,-1.2752,-1.4856,-1.6802,-1.8798,-2.0564,-2.2583,-2.3787,-2.4585,-2.5166,-2.7365,-2.9762,-3.2511,-3.4897,-3.7358,-3.933,-4.0996,-4.1849,-4.1849,-4.2243,-4.3434,-4.4817,-4.6986,-4.9161,-5.1348,-5.3336,-5.3951,-5.4544,-5.5262,-5.6328,-5.8307,-6.0475,-6.2623,-6.4579,-6.6183,-6.7256,-6.7983,-6.8654,-6.9293,-7.1015,-7.2877,-7.3661,-7.5049,-7.7534,-7.8789,-7.8789,-7.8789,-7.8789,-7.8789,-7.8789,-7.8789,-7.8789,-7.919,-7.9445,-7.9698,-8.037,-8.1683,-8.2887,-8.393,-8.498,-8.616,-8.6831,-8.7795,-8.8295,6.2985,6.2659,6.1837,6.1174,6.0841,6.0339,6.0171,6.0171,6.0003,5.9811,5.9835,5.9327,5.8056,5.5799,5.3187,5.1025,4.9101,4.6897,4.5902,4.5129,4.456,4.418,4.3626,4.2844,4.0513,3.8292,3.3932,2.9987,2.7382,2.7047,2.6937,2.673,2.5052,2.3729,2.3128,2.0778,1.7754,1.4985,1.4446,1.2053,0.9016,0.739,0.5983,0.451,0.3881,0.3662,0.279,0.1282,-0.0426,-0.2766,-0.7228,-1.0378,-1.2927,-1.5723,-1.7721,-1.9318,-2.1135,-2.3214,-2.4196,-2.4971,-2.5732,-2.8327,-3.0504,-3.2623,-3.5234,-3.7659,-3.9608,-4.1077,-4.1613,-4.1833,-4.2431,-4.3434,-4.5404,-4.7582,-4.975,-5.1755,-5.3336,-5.4333,-5.4544,-5.4714,-5.6516,-5.9042,-6.1195,-6.3554,-6.5347,-6.6233,-6.7137,-6.7307,-6.8125,-6.9763,-7.1472,-7.3192,-7.4127,-7.5534,-7.8004,-7.8789,-7.8789,-7.8789,-7.8789,-7.8789,-7.8789,-7.8789,-7.8903,-7.9587,-8.0121,-8.037,-8.1306,-8.2755,-8.3542,-8.4442,-8.5512,-8.6436,-8.6984,-8.7375,-8.7762,6.2659,6.2495,6.1672,6.1174,6.0674,6.0339,6.0171,6.0171,5.9666,5.9473,5.9134,5.8624,5.7033,5.4697,5.2745,5.0601,4.8439,4.6635,4.5695,4.4939,4.4578,4.399,4.3418,4.2844,4.0077,3.6115,3.1756,2.9151,2.695,2.7036,2.6873,2.6366,2.5069,2.3578,2.2382,1.9846,1.6686,1.4935,1.3498,1.1258,0.9009,0.7156,0.6189,0.5174,0.412,0.3456,0.2582,0.1071,-0.0639,-0.3617,-0.7231,-0.998,-1.3158,-1.599,-1.7784,-1.9607,-2.2182,-2.3796,-2.4542,-2.4646,-2.6418,-2.8392,-3.0562,-3.2797,-3.5568,-3.7664,-3.9601,-4.0527,-4.125,-4.2022,-4.2636,-4.4211,-4.6405,-4.8373,-5.0355,-5.2335,-5.3548,-5.4544,-5.4544,-5.4714,-5.724,-5.9931,-6.2113,-6.4279,-6.5545,-6.6455,-6.6797,-6.7137,-6.7789,-6.9874,-7.1793,-7.3661,-7.5049,-7.6765,-7.8644,-7.8789,-7.8789,-7.8789,-7.8789,-7.8789,-7.8789,-7.8789,-7.9332,-8.037,-8.0756,-8.1442,-8.2489,-8.393,-8.4569,-8.5231,-8.6038,-8.6864,-8.7017,-8.7408,-8.7408,6.2331,6.1647,6.115,6.065,6.0339,6.0171,6.0171,6.0171,5.9666,5.9304,5.8453,5.6664,5.4697,5.2902,5.2207,5.0054,4.7158,4.5883,4.5318,4.4578,4.4388,4.3799,4.2844,4.1866,3.9478,3.5309,3.0962,2.8359,2.6961,2.7101,2.7122,2.6756,2.4855,2.3549,2.277,1.9999,1.6614,1.4855,1.3177,1.1131,0.9093,0.7432,0.6169,0.5144,0.4094,0.279,0.1283,-0.0426,-0.213,-0.4471,-0.7659,-1.0224,-1.302,-1.606,-1.8301,-2.015,-2.2741,-2.4047,-2.4542,-2.5,-2.6714,-2.9301,-3.1376,-3.3214,-3.5623,-3.7768,-3.9079,-3.978,-4.0576,-4.177,-4.2823,-4.5805,-4.7978,-4.9573,-5.1348,-5.2952,-5.4333,-5.4714,-5.4883,-5.6328,-5.8307,-6.0655,-6.2671,-6.4478,-6.5742,-6.6283,-6.6283,-6.6626,-6.7112,-6.9353,-7.1925,-7.3816,-7.5686,-7.7387,-7.8789,-7.8789,-7.8789,-7.8789,-7.8789,-7.8789,-7.8789,-7.8789,-7.9445,-8.0894,-8.1954,-8.2755,-8.393,-8.5013,-8.5792,-8.6315,-8.6744,-8.7289,-8.7289,-8.7289,-8.7408]},{"header":{"parameterUnit":"m.s-1","parameterCategory":1,"la1":31.0,"la2":29.5877,"lo1":-88.7671,"lo2":-86.6584,"dx":0.0162,"dy":0.0185,"nx":115,"ny":88,"refTime":"2022-11-13T06:00:00:Z","depth":0,"parameterNumber":3,"parameterNumberName":"V-component_of_WINDS"},"data":[0.0,0.0,0.0,0.0,0.0,0.0,0.0,0.0,0.0,0.0,0.0,0.0,0.0,0.0,0.0,0.0,0.0,0.0,0.0,0.0,0.0,0.0,0.0,0.0,0.0,0.0,0.0,0.0,0.0,0.0,0.0,0.0,0.0,0.0,0.0,0.0,0.0,0.0,0.0,0.0,0.0,0.0,0.0,0.0,0.0,0.0,0.0,0.0,0.0,0.0,0.0,0.0,0.0,0.0,0.0,0.0,0.0,0.0,0.0,0.0,0.0,0.0,0.0,0.0,0.0,0.0,0.0,0.0,0.0,0.0,0.0,0.0,0.0,0.0,0.0,0.0,0.0,0.0,0.0,0.0,0.0,0.0,0.0,0.0,0.0,0.0,0.0,0.0,0.0,0.0,0.0,0.0,0.0,0.0,0.0,0.0,0.0,0.0,0.0,0.0,0.0,0.0,0.0,0.0,0.0,0.0,0.0,0.0,0.0,0.0,0.0,0.0,0.0,0.0,0.0,0.0,0.0,0.0,0.0,0.0,0.0,0.0,0.0,0.0,0.0,0.0,0.0,0.0,0.0,0.0,0.0,0.0,0.0,0.0,0.0,0.0,0.0,0.0,0.0,0.0,0.0,0.0,0.0,0.0,0.0,0.0,0.0,0.0,0.0,0.0,0.0,0.0,0.0,0.0,0.0,0.0,0.0,0.0,0.0,0.0,0.0,0.0,0.0,0.0,0.0,0.0,0.0,0.0,0.0,0.0,0.0,0.0,0.0,0.0,0.0,0.0,0.0,0.0,0.0,0.0,0.0,0.0,0.0,0.0,0.0,0.0,0.0,0.0,0.0,0.0,0.0,0.0,0.0,0.0,0.0,0.0,0.0,0.0,0.0,0.0,0.0,0.0,0.0,0.0,0.0,0.0,0.0,0.0,0.0,0.0,0.0,0.0,0.0,0.0,0.0,0.0,0.0,0.0,0.0,0.0,0.0,0.0,0.0,0.0,0.0,0.0,0.0,0.0,0.0,0.0,0.0,0.0,0.0,0.0,0.0,0.0,0.0,0.0,0.0,0.0,0.0,0.0,0.0,0.0,0.0,0.0,0.0,0.0,0.0,0.0,0.0,0.0,0.0,0.0,0.0,0.0,0.0,0.0,0.0,0.0,0.0,0.0,0.0,0.0,0.0,0.0,0.0,0.0,0.0,0.0,0.0,0.0,0.0,0.0,0.0,0.0,0.0,0.0,0.0,0.0,0.0,0.0,0.0,0.0,0.0,0.0,0.0,0.0,0.0,0.0,0.0,0.0,0.0,0.0,0.0,0.0,0.0,0.0,0.0,0.0,0.0,0.0,0.0,0.0,0.0,0.0,0.0,0.0,0.0,0.0,0.0,0.0,0.0,0.0,0.0,0.0,0.0,0.0,0.0,0.0,0.0,0.0,0.0,0.0,0.0,0.0,0.0,0.0,0.0,0.0,0.0,0.0,0.0,0.0,0.0,0.0,0.0,0.0,0.0,0.0,0.0,0.0,0.0,0.0,0.0,0.0,0.0,0.0,0.0,0.0,0.0,0.0,0.0,0.0,0.0,0.0,0.0,0.0,0.0,0.0,0.0,0.0,0.0,0.0,0.0,0.0,0.0,0.0,0.0,0.0,0.0,0.0,0.0,0.0,0.0,0.0,0.0,0.0,0.0,0.0,0.0,0.0,0.0,0.0,0.0,0.0,0.0,0.0,0.0,0.0,0.0,0.0,0.0,0.0,0.0,0.0,0.0,0.0,0.0,0.0,0.0,0.0,0.0,0.0,0.0,0.0,0.0,0.0,0.0,0.0,0.0,0.0,0.0,0.0,0.0,0.0,0.0,0.0,0.0,0.0,0.0,0.0,0.0,0.0,0.0,0.0,0.0,0.0,0.0,0.0,0.0,0.0,0.0,0.0,0.0,0.0,0.0,0.0,0.0,0.0,0.0,0.0,0.0,0.0,0.0,0.0,0.0,0.0,0.0,0.0,0.0,0.0,0.0,0.0,0.0,0.0,0.0,0.0,0.0,0.0,0.0,0.0,0.0,0.0,0.0,0.0,0.0,0.0,0.0,0.0,0.0,0.0,0.0,0.0,0.0,0.0,0.0,0.0,0.0,0.0,0.0,0.0,0.0,0.0,0.0,0.0,0.0,0.0,0.0,0.0,0.0,0.0,0.0,0.0,0.0,0.0,0.0,0.0,0.0,0.0,0.0,0.0,0.0,0.0,0.0,0.0,0.0,0.0,0.0,0.0,0.0,0.0,0.0,0.0,0.0,0.0,0.0,0.0,0.0,0.0,0.0,0.0,0.0,0.0,0.0,0.0,0.0,0.0,0.0,0.0,0.0,0.0,0.0,0.0,0.0,0.0,0.0,0.0,0.0,0.0,0.0,0.0,0.0,0.0,0.0,0.0,0.0,0.0,0.0,0.0,0.0,0.0,0.0,0.0,0.0,0.0,0.0,0.0,0.0,0.0,0.0,0.0,0.0,0.0,0.0,0.0,0.0,0.0,0.0,0.0,0.0,0.0,0.0,0.0,0.0,0.0,0.0,0.0,0.0,0.0,0.0,0.0,0.0,0.0,0.0,0.0,0.0,0.0,0.0,0.0,0.0,0.0,0.0,0.0,0.0,0.0,0.0,0.0,0.0,0.0,0.0,0.0,0.0,0.0,0.0,0.0,0.0,0.0,0.0,0.0,0.0,0.0,0.0,0.0,0.0,0.0,0.0,0.0,0.0,0.0,0.0,0.0,0.0,0.0,0.0,0.0,0.0,0.0,0.0,0.0,0.0,0.0,0.0,0.0,0.0,0.0,0.0,0.0,0.0,0.0,0.0,0.0,0.0,0.0,0.0,0.0,0.0,0.0,0.0,0.0,0.0,0.0,0.0,0.0,0.0,0.0,0.0,0.0,0.0,0.0,0.0,0.0,0.0,0.0,0.0,0.0,0.0,0.0,0.0,0.0,0.0,0.0,0.0,0.0,0.0,0.0,0.0,0.0,0.0,0.0,0.0,0.0,0.0,0.0,0.0,0.0,0.0,0.0,0.0,0.0,0.0,0.0,0.0,0.0,0.0,0.0,0.0,0.0,0.0,0.0,0.0,0.0,0.0,0.0,0.0,0.0,0.0,0.0,0.0,0.0,0.0,0.0,0.0,0.0,0.0,0.0,0.0,0.0,0.0,0.0,0.0,0.0,0.0,0.0,0.0,0.0,0.0,0.0,0.0,0.0,0.0,0.0,0.0,0.0,0.0,0.0,0.0,0.0,0.0,0.0,0.0,0.0,0.0,0.0,0.0,0.0,0.0,0.0,0.0,0.0,0.0,0.0,0.0,0.0,0.0,0.0,0.0,0.0,0.0,0.0,0.0,0.0,0.0,0.0,0.0,0.0,0.0,0.0,0.0,0.0,0.0,0.0,0.0,0.0,0.0,0.0,0.0,0.0,0.0,0.0,0.0,0.0,0.0,0.0,0.0,0.0,0.0,0.0,0.0,0.0,0.0,0.0,0.0,0.0,0.0,0.0,0.0,0.0,0.0,0.0,0.0,0.0,0.0,0.0,0.0,0.0,0.0,0.0,0.0,0.0,0.0,0.0,0.0,0.0,0.0,0.0,0.0,0.0,0.0,0.0,0.0,0.0,0.0,0.0,0.0,0.0,0.0,0.0,0.0,0.0,0.0,0.0,0.0,0.0,0.0,0.0,0.0,0.0,0.0,0.0,0.0,0.0,0.0,0.0,0.0,0.0,0.0,0.0,0.0,0.0,0.0,0.0,0.0,0.0,0.0,0.0,0.0,0.0,0.0,0.0,0.0,0.0,0.0,0.0,0.0,0.0,0.0,0.0,0.0,0.0,0.0,0.0,0.0,0.0,0.0,0.0,0.0,0.0,0.0,0.0,0.0,0.0,0.0,0.0,0.0,0.0,0.0,0.0,0.0,0.0,0.0,0.0,0.0,0.0,0.0,0.0,0.0,0.0,0.0,0.0,0.0,0.0,0.0,0.0,0.0,0.0,0.0,0.0,0.0,0.0,0.0,0.0,0.0,0.0,0.0,0.0,0.0,0.0,0.0,0.0,0.0,0.0,0.0,0.0,0.0,0.0,0.0,0.0,0.0,0.0,0.0,0.0,0.0,0.0,0.0,0.0,0.0,0.0,0.0,0.0,0.0,0.0,0.0,0.0,0.0,0.0,0.0,0.0,0.0,0.0,0.0,0.0,0.0,0.0,0.0,0.0,0.0,0.0,0.0,0.0,0.0,0.0,-1.3179,0.0,0.0,0.0,-1.0223,0.0,0.0,0.0,0.0,0.0,0.0,0.0,0.0,0.0,0.0,0.0,0.0,0.0,0.0,0.0,0.0,0.0,0.0,0.0,0.0,0.0,0.0,0.0,0.0,0.0,0.0,0.0,0.0,0.0,0.0,0.0,0.0,0.0,0.0,0.0,0.0,0.0,0.0,0.0,0.0,0.0,0.0,0.0,0.0,0.0,0.0,0.0,0.0,0.0,0.0,0.0,0.0,0.0,0.0,0.0,0.0,0.0,0.0,0.0,0.0,0.0,0.0,0.0,0.0,0.0,0.0,0.0,0.0,0.0,0.0,0.0,0.0,0.0,0.0,0.0,0.0,0.0,0.0,0.0,0.0,0.0,0.0,0.0,0.0,0.0,0.0,0.0,0.0,0.0,0.0,0.0,0.0,0.0,0.0,0.0,0.0,0.0,0.0,0.0,0.0,0.0,0.0,0.0,0.0,0.0,0.0,0.0,0.0,0.0,0.0,-1.2869,-1.1773,-1.1292,-1.0681,-0.9943,0.0,0.0,0.0,0.0,0.0,0.0,0.0,0.0,0.0,0.0,0.0,0.0,0.0,0.0,0.0,0.0,0.0,0.0,0.0,0.0,0.0,0.0,0.0,0.0,0.0,0.0,0.0,0.0,0.0,0.0,0.0,0.0,0.0,0.0,0.0,0.0,0.0,0.0,0.0,0.0,0.0,0.0,0.0,0.0,0.0,0.0,0.0,0.0,0.0,0.0,0.0,0.0,0.0,0.0,0.0,0.0,0.0,0.0,0.0,0.0,0.0,0.0,0.0,0.0,0.0,0.0,0.0,0.0,0.0,0.0,0.0,0.0,0.0,0.0,0.0,0.0,0.0,0.0,0.0,0.0,0.0,0.0,0.0,0.0,0.0,0.0,0.0,0.0,0.0,0.0,0.0,0.0,0.0,0.0,0.0,0.0,0.0,0.0,0.0,0.0,0.0,0.0,0.0,0.0,0.0,0.0,0.0,0.0,0.0,0.0,0.0,0.0,-1.1274,-1.0661,-0.9743,0.0,0.0,0.0,0.0,0.0,0.0,0.0,0.0,0.0,0.0,0.0,0.0,0.0,0.0,0.0,0.0,0.0,0.0,0.0,0.0,0.0,0.0,0.0,0.0,0.0,0.0,0.0,0.0,0.0,0.0,0.0,0.0,0.0,0.0,0.0,0.0,0.0,0.0,0.0,0.0,0.0,0.0,0.0,0.0,0.0,0.0,0.0,0.0,0.0,0.0,0.0,0.0,0.0,0.0,0.0,0.0,0.0,0.0,0.0,0.0,0.0,0.0,0.0,0.0,0.0,0.0,0.0,0.0,0.0,0.0,0.0,0.0,0.0,0.0,0.0,0.0,0.0,0.0,0.0,0.0,0.0,0.0,0.0,0.0,0.0,0.0,0.0,0.0,0.0,0.0,0.0,0.0,0.0,0.0,0.0,0.0,0.0,0.0,0.0,0.0,0.0,0.0,0.0,0.0,0.0,0.0,0.0,0.0,0.0,0.0,-1.3285,-1.1673,-1.1529,0.0,-0.9444,0.0,0.0,0.0,0.0,0.0,0.0,0.0,0.0,0.0,0.0,0.0,0.0,0.0,0.0,0.0,0.0,0.0,0.0,0.0,0.0,0.0,0.0,0.0,0.0,0.0,0.0,0.0,0.0,0.0,0.0,0.0,0.0,0.0,0.0,0.0,0.0,0.0,0.0,0.0,0.0,0.0,0.0,0.0,0.0,0.0,0.0,0.0,0.0,0.0,0.0,0.0,0.0,0.0,0.0,0.0,0.0,0.0,0.0,0.0,0.0,0.0,0.0,0.0,0.0,0.0,0.0,0.0,0.0,0.0,0.0,0.0,0.0,0.0,0.0,0.0,0.0,0.0,0.0,0.0,0.0,0.0,0.0,0.0,0.0,0.0,0.0,0.0,0.0,0.0,0.0,0.0,0.0,0.0,0.0,0.0,0.0,0.0,0.0,0.0,0.0,0.0,0.0,0.0,0.0,0.0,0.0,0.0,0.0,0.0,0.0,-1.3108,-1.1573,-1.0816,-0.9997,0.0,0.0,0.0,0.0,0.0,0.0,0.0,0.0,0.0,0.0,0.0,0.0,0.0,0.0,0.0,0.0,0.0,0.0,0.0,0.0,0.0,0.0,0.0,0.0,0.0,0.0,0.0,0.0,0.0,0.0,0.0,0.0,0.0,0.0,0.0,0.0,0.0,0.0,0.0,0.0,0.0,0.0,0.0,0.0,0.0,0.0,0.0,0.0,0.0,0.0,0.0,0.0,0.0,0.0,0.0,0.0,0.0,0.0,0.0,0.0,0.0,0.0,0.0,0.0,0.0,0.0,0.0,0.0,0.0,0.0,0.0,0.0,0.0,0.0,0.0,0.0,0.0,0.0,0.0,0.0,0.0,0.0,0.0,0.0,0.0,0.0,0.0,0.0,0.0,0.0,0.0,0.0,0.0,0.0,0.0,0.0,0.0,0.0,0.0,0.0,0.0,0.0,0.0,0.0,0.0,0.0,0.0,0.0,0.0,0.0,-1.3905,-1.3028,-1.1564,-1.0325,-0.9625,-0.9122,0.0,0.0,0.0,0.0,0.0,0.0,0.0,0.0,0.0,0.0,0.0,0.0,0.0,0.0,0.0,0.0,0.0,0.0,0.0,0.0,0.0,0.0,0.0,0.0,0.0,0.0,0.0,0.0,0.0,0.0,0.0,0.0,0.0,0.0,0.0,0.0,0.0,0.0,0.0,0.0,0.0,0.0,0.0,0.0,0.0,0.0,0.0,0.0,0.0,0.0,0.0,0.0,0.0,0.0,0.0,0.0,0.0,0.0,0.0,0.0,0.0,0.0,0.0,0.0,0.0,0.0,0.0,0.0,0.0,0.0,0.0,0.0,0.0,0.0,0.0,0.0,0.0,0.0,0.0,0.0,0.0,0.0,0.0,0.0,0.0,0.0,0.0,0.0,0.0,0.0,0.0,0.0,0.0,0.0,0.0,0.0,0.0,0.0,0.0,0.0,0.0,0.0,0.0,0.0,0.0,0.0,0.0,0.0,-1.4169,-1.4191,-1.3207,-1.1261,-1.0892,-1.0077,0.0,0.0,0.0,0.0,0.0,0.0,0.0,0.0,0.0,0.0,0.0,0.0,0.0,0.0,0.0,0.0,0.0,0.0,0.0,0.0,0.0,0.0,0.0,0.0,0.0,0.0,0.0,0.0,0.0,0.0,0.0,0.0,0.0,0.0,0.0,0.0,0.0,0.0,0.0,0.0,0.0,0.0,0.0,0.0,0.0,0.0,0.0,0.0,0.0,0.0,0.0,0.0,0.0,0.0,0.0,0.0,0.0,0.0,0.0,0.0,0.0,0.0,0.0,0.0,0.0,0.0,0.0,0.0,0.0,0.0,0.0,0.0,0.0,0.0,0.0,0.0,0.0,0.0,0.0,0.0,0.0,0.0,0.0,0.0,0.0,0.0,0.0,0.0,0.0,0.0,0.0,0.0,0.0,0.0,0.0,0.0,0.0,0.0,0.0,0.0,0.0,0.0,0.0,0.0,0.0,0.0,0.0,0.0,0.0,-1.4406,-1.3436,-1.2738,-1.2293,-1.0948,-0.9831,0.0,0.0,0.0,0.0,0.0,0.0,0.0,0.0,0.0,0.0,0.0,0.0,0.0,0.0,0.0,0.0,0.0,0.0,0.0,0.0,0.0,0.0,0.0,0.0,0.0,0.0,0.0,0.0,0.0,0.0,0.0,0.0,0.0,0.0,0.0,0.0,0.0,0.0,0.0,0.0,0.0,0.0,0.0,0.0,0.0,0.0,0.0,0.0,0.0,0.0,0.0,0.0,0.0,0.0,0.0,0.0,0.0,0.0,0.0,0.0,0.0,0.0,0.0,0.0,0.0,0.0,0.0,0.0,0.0,0.0,0.0,0.0,0.0,0.0,0.0,0.0,0.0,0.0,0.0,0.0,0.0,0.0,0.0,0.0,0.0,0.0,0.0,0.0,0.0,0.0,0.0,0.0,0.0,0.0,0.0,0.0,0.0,0.0,0.0,0.0,0.0,0.0,0.0,0.0,0.0,0.0,0.0,0.0,0.0,-1.4189,-1.3105,-1.2495,-1.249,-1.1041,-0.9846,0.0,0.0,0.0,0.0,0.0,0.0,0.0,0.0,0.0,0.0,0.0,0.0,0.0,0.0,0.0,0.0,0.0,0.0,0.0,0.0,0.0,0.0,0.0,0.0,0.0,0.0,0.0,0.0,0.0,0.0,0.0,0.0,0.0,0.0,0.0,0.0,0.0,0.0,0.0,0.0,0.0,0.0,0.0,0.0,0.0,0.0,0.0,0.0,0.0,0.0,0.0,0.0,0.0,0.0,0.0,0.0,0.0,0.0,0.0,0.0,0.0,0.0,0.0,0.0,0.0,0.0,0.0,0.0,0.0,0.0,0.0,0.0,0.0,0.0,0.0,0.0,0.0,0.0,0.0,0.0,0.0,0.0,0.0,0.0,0.0,0.0,0.0,0.0,0.0,0.0,0.0,0.0,0.0,0.0,0.0,0.0,0.0,0.0,0.0,0.0,0.0,0.0,0.0,0.0,0.0,0.0,0.0,0.0,-1.4988,-1.3713,-1.3537,-1.2838,-1.1533,-1.1175,-1.004,0.0,0.0,0.0,0.0,0.0,0.0,0.0,0.0,0.0,0.0,0.0,0.0,0.0,0.0,0.0,0.0,0.0,0.0,0.0,0.0,0.0,0.0,0.0,0.0,0.0,0.0,0.0,0.0,0.0,0.0,0.0,0.0,0.0,0.0,0.0,0.0,0.0,0.0,0.0,0.0,0.0,0.0,0.0,0.0,0.0,0.0,0.0,0.0,0.0,0.0,0.0,0.0,0.0,0.0,0.0,0.0,0.0,0.0,0.0,0.0,0.0,0.0,0.0,0.0,0.0,0.0,0.0,0.0,0.0,0.0,0.0,0.0,0.0,0.0,0.0,0.0,0.0,0.0,0.0,0.0,0.0,0.0,0.0,0.0,0.0,0.0,0.0,0.0,0.0,0.0,0.0,0.0,0.0,0.0,0.0,0.0,0.0,0.0,0.0,0.0,0.0,0.0,0.0,0.0,0.0,0.0,0.0,0.0,0.0,-1.3232,-1.2636,-1.2424,-1.2713,-1.1398,-0.9255,0.0,0.0,0.0,0.0,0.0,0.0,0.0,0.0,0.0,0.0,0.0,0.0,0.0,0.0,0.0,0.0,0.0,0.0,0.0,0.0,0.0,0.0,0.0,0.0,0.0,0.0,0.0,0.0,0.0,0.0,0.0,0.0,0.0,0.0,0.0,0.0,0.0,0.0,0.0,0.0,0.0,0.0,0.0,0.0,0.0,0.0,0.0,0.0,0.0,0.0,0.0,0.0,0.0,0.0,0.0,0.0,0.0,0.0,0.0,0.0,0.0,0.0,0.0,0.0,0.0,0.0,0.0,0.0,0.0,0.0,0.0,0.0,0.0,0.0,0.0,0.0,0.0,0.0,0.0,0.0,0.0,0.0,0.0,0.0,0.0,0.0,0.0,0.0,0.0,0.0,0.0,0.0,0.0,0.0,0.0,0.0,0.0,0.0,0.0,0.0,0.0,0.0,0.0,0.0,0.0,0.0,0.0,0.0,0.0,-1.3134,-1.2656,-1.2627,-1.2925,-1.1503,-0.9268,-0.6546,0.0,0.0,0.0,0.0,0.0,0.0,0.0,0.0,0.0,0.0,0.0,0.0,0.0,0.0,0.0,0.0,0.0,0.0,0.0,0.0,0.0,0.0,0.0,0.0,0.0,0.0,0.0,0.0,0.0,0.0,0.0,0.0,0.0,0.0,0.0,0.0,0.0,0.0,0.0,0.0,0.0,0.0,0.0,0.0,0.0,0.0,0.0,0.0,0.0,0.0,0.0,0.0,0.0,0.0,0.0,0.0,0.0,0.0,0.0,0.0,0.0,0.0,0.0,0.0,0.0,0.0,0.0,0.0,0.0,0.0,0.0,0.0,0.0,0.0,0.0,0.0,0.0,0.0,0.0,0.0,0.0,0.0,0.0,0.0,0.0,0.0,0.0,0.0,0.0,0.0,0.0,0.0,0.0,0.0,0.0,0.0,0.0,0.0,0.0,0.0,0.0,0.0,0.0,0.0,0.0,0.0,0.0,0.0,-1.3108,-1.3609,-1.3384,-1.2196,-1.1329,-0.9863,0.0,0.0,0.0,0.0,0.0,0.0,0.0,0.0,0.0,0.0,0.0,0.0,0.0,0.0,0.0,0.0,0.0,0.0,0.0,0.0,0.0,0.0,0.0,0.0,0.0,0.0,0.0,0.0,0.0,0.0,0.0,0.0,0.0,0.0,0.0,0.0,0.0,0.0,0.0,0.0,0.0,0.0,0.0,0.0,0.0,0.0,0.0,0.0,0.0,0.0,0.0,0.0,0.0,0.0,0.0,0.0,0.0,0.0,0.0,0.0,0.0,0.0,0.0,0.0,0.0,0.0,0.0,0.0,0.0,0.0,0.0,0.0,0.0,0.0,0.0,0.0,0.0,0.0,0.0,0.0,0.0,0.0,0.0,0.0,0.0,0.0,0.0,0.0,0.0,0.0,0.0,0.0,0.0,0.0,0.0,0.0,0.0,0.0,0.0,0.0,0.0,0.0,0.0,0.0,0.0,0.0,0.0,0.0,0.0,-1.299,-1.379,-1.3349,-1.1439,-1.1395,-1.0002,0.0,0.0,0.0,0.0,0.0,0.0,0.0,0.0,0.0,0.0,0.0,0.0,0.0,0.0,0.0,0.0,0.0,0.0,0.0,0.0,0.0,0.0,0.0,0.0,0.0,0.0,0.0,0.0,0.0,0.0,0.0,0.0,0.0,0.0,0.0,0.0,0.0,0.0,0.0,0.0,0.0,0.0,0.0,0.0,0.0,0.0,0.0,0.0,0.0,0.0,0.0,0.0,0.0,0.0,0.0,0.0,0.0,0.0,0.0,0.0,0.0,0.0,0.0,0.0,0.0,0.0,0.0,0.0,0.0,0.0,0.0,0.0,0.0,0.0,0.0,0.0,0.0,0.0,0.0,0.0,0.0,0.0,0.0,0.0,0.0,0.0,0.0,0.0,0.0,0.0,0.0,0.0,0.0,0.0,0.0,0.0,0.0,0.0,0.0,0.0,0.0,0.0,0.0,0.0,0.0,0.0,0.0,0.0,-1.5338,-1.3825,-1.3974,-1.3412,-1.1868,-1.176,-1.0431,0.0,0.0,0.0,0.0,0.0,0.0,0.0,0.0,0.0,0.0,0.0,0.0,0.0,0.0,0.0,0.0,0.0,0.0,0.0,0.0,0.0,0.0,0.0,0.0,0.0,0.0,0.0,0.0,0.0,0.0,0.0,0.0,0.0,0.0,0.0,0.0,0.0,0.0,0.0,0.0,0.0,0.0,0.0,0.0,0.0,0.0,0.0,0.0,0.0,0.0,0.0,0.0,0.0,0.0,0.0,0.0,0.0,0.0,0.0,0.0,0.0,0.0,0.0,0.0,0.0,0.0,0.0,0.0,0.0,0.0,0.0,0.0,0.0,0.0,0.0,0.0,0.0,0.0,0.0,0.0,0.0,0.0,0.0,0.0,0.0,0.0,0.0,0.0,0.0,0.0,0.0,0.0,0.0,0.0,0.0,0.0,0.0,0.0,0.0,0.0,0.0,0.0,0.0,0.0,0.0,0.0,0.0,0.0,-1.5403,-1.4899,-1.4188,-1.3452,-1.2868,-1.2278,-1.0987,0.0,0.0,0.0,0.0,0.0,0.0,0.0,0.0,0.0,0.0,0.0,0.0,0.0,0.0,0.0,0.0,0.0,0.0,0.0,0.0,0.0,0.0,0.0,0.0,0.0,0.0,0.0,0.0,0.0,0.0,0.0,0.0,0.0,0.0,0.0,0.0,0.0,0.0,0.0,0.0,0.0,0.0,0.0,0.0,0.0,0.0,0.0,0.0,0.0,0.0,0.0,0.0,0.0,0.0,0.0,0.0,0.0,0.0,0.0,0.0,0.0,0.0,0.0,0.0,0.0,0.0,0.0,0.0,0.0,0.0,0.0,0.0,0.0,0.0,0.0,0.0,0.0,0.0,0.0,0.0,0.0,0.0,0.0,0.0,0.0,0.0,0.0,0.0,0.0,0.0,0.0,0.0,0.0,0.0,0.0,0.0,0.0,0.0,0.0,0.0,0.0,0.0,0.0,0.0,0.0,0.0,0.0,0.0,-1.5044,-1.2409,-1.4219,-1.408,-1.1844,-1.2366,-1.1399,0.0,0.0,0.0,0.0,0.0,0.0,0.0,0.0,0.0,0.0,0.0,0.0,0.0,0.0,0.0,0.0,0.0,0.0,0.0,0.0,0.0,0.0,0.0,0.0,0.0,0.0,0.0,0.0,0.0,0.0,0.0,0.0,0.0,0.0,0.0,0.0,0.0,0.0,0.0,0.0,0.0,0.0,0.0,0.0,0.0,0.0,0.0,0.0,-2.7956,0.0,0.0,0.0,0.0,0.0,0.0,0.0,0.0,0.0,0.0,0.0,0.0,0.0,0.0,0.0,0.0,0.0,0.0,0.0,0.0,0.0,0.0,0.0,0.0,0.0,0.0,0.0,0.0,0.0,0.0,0.0,0.0,0.0,0.0,0.0,0.0,0.0,0.0,0.0,0.0,0.0,0.0,0.0,0.0,0.0,0.0,0.0,0.0,0.0,0.0,0.0,0.0,0.0,0.0,0.0,0.0,0.0,0.0,0.0,-1.5864,-1.3618,-1.5002,-1.4703,-1.2749,-1.3037,-1.2142,0.0,0.0,0.0,0.0,0.0,0.0,0.0,0.0,0.0,0.0,0.0,0.0,0.0,0.0,0.0,0.0,0.0,0.0,0.0,0.0,0.0,0.0,0.0,0.0,0.0,0.0,0.0,0.0,0.0,0.0,0.0,0.0,0.0,0.0,0.0,0.0,0.0,0.0,0.0,0.0,0.0,0.0,0.0,0.0,0.0,0.0,0.0,0.0,0.0,0.0,0.0,0.0,0.0,0.0,0.0,0.0,0.0,0.0,0.0,0.0,0.0,0.0,0.0,0.0,0.0,0.0,0.0,0.0,0.0,0.0,0.0,0.0,0.0,0.0,0.0,0.0,0.0,0.0,0.0,0.0,0.0,0.0,0.0,0.0,0.0,0.0,0.0,0.0,0.0,0.0,0.0,0.0,0.0,0.0,0.0,0.0,0.0,0.0,0.0,0.0,0.0,0.0,0.0,0.0,0.0,0.0,0.0,-1.7258,-1.6594,-1.5664,-1.5841,-1.5236,-1.387,-1.3718,-1.2728,-1.126,0.0,0.0,0.0,0.0,0.0,0.0,0.0,0.0,0.0,0.0,0.0,0.0,0.0,0.0,0.0,0.0,0.0,0.0,0.0,0.0,0.0,0.0,0.0,0.0,0.0,0.0,0.0,0.0,0.0,0.0,0.0,0.0,0.0,0.0,0.0,0.0,0.0,0.0,-4.7239,-4.5108,0.0,0.0,0.0,0.0,0.0,0.0,0.0,0.0,-3.1086,0.0,0.0,0.0,0.0,0.0,0.0,0.0,0.0,0.0,0.0,0.0,0.0,0.0,0.0,0.0,0.0,0.0,0.0,0.0,0.0,0.0,0.0,0.0,0.0,0.0,0.0,0.0,0.0,0.0,0.0,0.0,0.0,0.0,0.0,0.0,0.0,0.0,0.0,0.0,0.0,0.0,0.0,0.0,0.0,0.0,0.0,0.0,0.0,0.0,0.0,0.0,0.0,0.0,0.0,0.0,0.0,-1.903,-1.7507,-1.5807,-1.4338,-1.5302,-1.4836,-1.2644,-1.3425,-1.3209,-1.1411,0.0,0.0,0.0,0.0,0.0,0.0,0.0,0.0,0.0,0.0,0.0,0.0,0.0,0.0,0.0,0.0,0.0,0.0,0.0,0.0,0.0,0.0,0.0,0.0,0.0,0.0,0.0,0.0,0.0,0.0,0.0,0.0,0.0,0.0,0.0,0.0,0.0,0.0,0.0,-4.6854,-4.4588,0.0,0.0,0.0,0.0,0.0,0.0,0.0,0.0,-3.0937,0.0,0.0,0.0,0.0,0.0,0.0,0.0,0.0,0.0,0.0,0.0,0.0,0.0,0.0,0.0,0.0,0.0,0.0,0.0,0.0,0.0,0.0,0.0,0.0,0.0,0.0,0.0,0.0,0.0,0.0,0.0,0.0,0.0,0.0,0.0,0.0,0.0,0.0,0.0,0.0,0.0,0.0,0.0,0.0,0.0,0.0,0.0,0.0,0.0,0.0,0.0,0.0,0.0,0.0,0.0,-1.9297,-1.8069,-1.6798,-1.5515,-1.5847,-1.5216,-1.3627,-1.3892,-1.3346,0.0,0.0,0.0,0.0,0.0,0.0,0.0,0.0,0.0,0.0,0.0,0.0,0.0,0.0,0.0,0.0,0.0,0.0,0.0,0.0,0.0,0.0,0.0,0.0,0.0,0.0,0.0,0.0,0.0,0.0,0.0,0.0,0.0,0.0,0.0,0.0,0.0,0.0,0.0,0.0,-4.7643,-4.5871,-4.2876,0.0,0.0,0.0,0.0,0.0,0.0,-3.4911,-3.3166,0.0,0.0,0.0,0.0,0.0,0.0,0.0,0.0,0.0,0.0,0.0,0.0,0.0,0.0,0.0,0.0,0.0,0.0,0.0,0.0,0.0,0.0,0.0,0.0,0.0,0.0,0.0,0.0,0.0,0.0,0.0,0.0,0.0,0.0,0.0,0.0,0.0,0.0,0.0,0.0,0.0,0.0,0.0,0.0,0.0,0.0,0.0,0.0,0.0,0.0,0.0,0.0,0.0,0.0,0.0,-1.9468,-1.8712,-1.7817,-1.679,-1.6309,-1.549,-1.4655,-1.4403,-1.334,0.0,0.0,0.0,0.0,0.0,0.0,0.0,0.0,0.0,0.0,0.0,0.0,0.0,0.0,0.0,0.0,0.0,0.0,0.0,0.0,0.0,0.0,0.0,0.0,0.0,0.0,0.0,0.0,0.0,0.0,0.0,0.0,0.0,0.0,0.0,0.0,0.0,0.0,0.0,0.0,0.0,-4.6916,-4.4996,-4.3579,0.0,0.0,0.0,0.0,-4.0716,-3.7993,0.0,0.0,0.0,0.0,0.0,0.0,0.0,0.0,0.0,0.0,0.0,0.0,0.0,0.0,0.0,0.0,0.0,0.0,0.0,0.0,0.0,0.0,0.0,0.0,0.0,0.0,0.0,0.0,0.0,0.0,0.0,0.0,0.0,0.0,0.0,0.0,0.0,0.0,0.0,0.0,0.0,0.0,0.0,0.0,0.0,0.0,0.0,0.0,0.0,0.0,0.0,0.0,0.0,0.0,0.0,0.0,-1.996,-1.8848,-1.7818,-1.6859,-1.6052,-1.515,-1.4181,-1.416,-1.2829,0.0,0.0,0.0,0.0,0.0,0.0,0.0,0.0,0.0,0.0,0.0,0.0,0.0,0.0,0.0,0.0,0.0,0.0,0.0,0.0,0.0,0.0,0.0,0.0,0.0,0.0,0.0,0.0,0.0,0.0,0.0,0.0,0.0,0.0,0.0,0.0,0.0,0.0,0.0,0.0,0.0,-4.8185,-4.6982,-4.5614,-4.4625,0.0,0.0,-4.3136,-4.2644,-4.2094,0.0,0.0,0.0,0.0,0.0,0.0,0.0,0.0,0.0,0.0,0.0,0.0,0.0,0.0,0.0,0.0,0.0,0.0,0.0,0.0,0.0,0.0,0.0,0.0,0.0,0.0,0.0,0.0,0.0,0.0,0.0,0.0,0.0,0.0,0.0,0.0,0.0,0.0,0.0,0.0,0.0,0.0,0.0,0.0,0.0,0.0,0.0,0.0,0.0,0.0,0.0,0.0,0.0,0.0,0.0,-2.0728,-2.0238,-1.9233,-1.8018,-1.7121,-1.6293,-1.524,-1.433,-1.4311,-1.295,0.0,0.0,0.0,0.0,0.0,0.0,0.0,0.0,0.0,0.0,0.0,0.0,0.0,0.0,0.0,0.0,0.0,0.0,0.0,0.0,0.0,0.0,0.0,0.0,0.0,0.0,0.0,0.0,0.0,0.0,0.0,0.0,0.0,0.0,0.0,0.0,0.0,0.0,0.0,0.0,0.0,0.0,-4.9037,-4.8005,0.0,0.0,0.0,-4.5405,-4.4117,0.0,0.0,0.0,0.0,0.0,0.0,0.0,0.0,0.0,0.0,0.0,0.0,0.0,0.0,0.0,0.0,0.0,0.0,0.0,0.0,0.0,0.0,0.0,0.0,0.0,0.0,0.0,0.0,0.0,0.0,0.0,0.0,0.0,0.0,0.0,0.0,0.0,0.0,0.0,0.0,0.0,0.0,0.0,0.0,0.0,0.0,0.0,0.0,0.0,0.0,0.0,0.0,0.0,0.0,0.0,0.0,0.0,-2.0253,-1.9512,-1.8479,-1.7346,-1.649,-1.5414,-1.4478,-1.4358,0.0,0.0,0.0,0.0,0.0,0.0,0.0,0.0,0.0,0.0,0.0,0.0,0.0,0.0,0.0,0.0,0.0,0.0,0.0,0.0,0.0,0.0,0.0,0.0,0.0,0.0,0.0,-5.099,0.0,0.0,0.0,0.0,0.0,0.0,0.0,0.0,0.0,0.0,0.0,0.0,0.0,0.0,-5.2688,-5.0558,-4.9896,-4.9392,0.0,0.0,-4.7504,-4.6235,-4.5134,-4.3449,0.0,0.0,0.0,0.0,0.0,0.0,0.0,0.0,0.0,0.0,0.0,0.0,0.0,0.0,0.0,0.0,0.0,0.0,0.0,0.0,0.0,0.0,0.0,0.0,0.0,0.0,0.0,0.0,0.0,0.0,0.0,0.0,0.0,0.0,0.0,0.0,0.0,0.0,0.0,0.0,0.0,0.0,0.0,0.0,0.0,0.0,0.0,0.0,0.0,0.0,0.0,0.0,0.0,0.0,0.0,-1.9927,-1.976,-1.8963,-1.7551,-1.6664,-1.5621,-1.4278,-1.4242,-1.2558,0.0,0.0,0.0,0.0,0.0,0.0,0.0,0.0,0.0,0.0,0.0,0.0,0.0,0.0,0.0,0.0,0.0,0.0,0.0,0.0,0.0,0.0,0.0,0.0,0.0,0.0,0.0,0.0,0.0,0.0,0.0,0.0,0.0,0.0,0.0,0.0,0.0,0.0,0.0,0.0,0.0,-5.2702,-5.1108,-5.1038,-5.1393,0.0,0.0,-4.9715,-4.9647,-4.8516,-4.5893,-4.0889,0.0,0.0,0.0,0.0,0.0,0.0,0.0,0.0,0.0,0.0,0.0,0.0,0.0,0.0,0.0,0.0,0.0,0.0,0.0,0.0,0.0,0.0,0.0,0.0,0.0,0.0,0.0,0.0,0.0,0.0,0.0,0.0,0.0,0.0,0.0,0.0,0.0,0.0,0.0,0.0,0.0,0.0,0.0,0.0,0.0,0.0,0.0,0.0,0.0,0.0,0.0,0.0,0.0,-2.0097,-1.9522,-1.9451,-1.8578,-1.7262,-1.6552,-1.5723,-1.4434,-1.4088,-1.2644,0.0,0.0,0.0,0.0,0.0,0.0,0.0,0.0,0.0,0.0,0.0,0.0,0.0,0.0,0.0,0.0,0.0,0.0,0.0,0.0,0.0,0.0,0.0,0.0,0.0,0.0,0.0,0.0,-5.8145,-5.8635,-5.8561,0.0,0.0,0.0,0.0,0.0,0.0,0.0,0.0,0.0,0.0,-5.5266,-5.4185,-5.3109,0.0,0.0,-5.1652,-5.0555,-4.937,-4.804,-4.6001,-4.2682,-4.1689,0.0,0.0,0.0,0.0,0.0,0.0,0.0,0.0,0.0,0.0,0.0,0.0,0.0,0.0,0.0,0.0,0.0,0.0,0.0,0.0,0.0,0.0,0.0,0.0,0.0,0.0,0.0,0.0,0.0,0.0,0.0,0.0,0.0,0.0,0.0,0.0,0.0,0.0,0.0,0.0,0.0,0.0,0.0,0.0,0.0,0.0,0.0,0.0,0.0,0.0,0.0,0.0,-1.9755,-1.9418,-1.9097,-1.8292,-1.7063,-1.6521,-1.5533,-1.447,-1.3918,-1.2867,0.0,0.0,0.0,0.0,0.0,0.0,0.0,0.0,0.0,0.0,0.0,0.0,0.0,0.0,0.0,0.0,0.0,0.0,0.0,0.0,0.0,0.0,0.0,0.0,0.0,0.0,0.0,0.0,-6.0464,-6.0815,-6.0794,0.0,0.0,0.0,0.0,0.0,0.0,0.0,0.0,0.0,0.0,-5.7464,-5.6482,-5.4938,-5.3549,-5.2985,-5.1883,-5.079,-4.9455,-4.7654,-4.576,-4.3867,0.0,0.0,0.0,0.0,0.0,0.0,0.0,0.0,0.0,0.0,0.0,0.0,0.0,0.0,0.0,0.0,0.0,0.0,0.0,0.0,0.0,0.0,0.0,0.0,0.0,0.0,0.0,0.0,0.0,0.0,-2.5326,0.0,0.0,0.0,0.0,0.0,0.0,0.0,0.0,0.0,0.0,0.0,0.0,0.0,0.0,0.0,0.0,0.0,0.0,0.0,0.0,0.0,0.0,-1.9774,-1.9186,-1.8888,-1.8174,-1.7406,-1.6486,-1.5286,-1.421,-1.3939,-1.3224,-1.211,0.0,0.0,0.0,0.0,0.0,0.0,0.0,0.0,0.0,0.0,0.0,0.0,0.0,0.0,0.0,0.0,0.0,0.0,0.0,0.0,0.0,0.0,0.0,0.0,0.0,0.0,-5.8543,-6.0684,-6.2221,0.0,0.0,0.0,0.0,0.0,0.0,0.0,0.0,0.0,0.0,-5.8652,-5.8854,-5.7416,-5.6092,-5.5051,-5.4094,-5.2082,-5.0628,-5.0348,-4.779,-4.5435,0.0,0.0,0.0,0.0,0.0,0.0,0.0,0.0,0.0,0.0,0.0,0.0,0.0,0.0,0.0,0.0,0.0,0.0,0.0,0.0,0.0,0.0,0.0,0.0,0.0,0.0,0.0,-2.2052,-2.3131,0.0,0.0,0.0,0.0,0.0,0.0,0.0,0.0,0.0,0.0,0.0,-2.7079,-2.7511,0.0,0.0,0.0,0.0,0.0,0.0,0.0,0.0,0.0,0.0,0.0,0.0,-1.9068,-1.8531,-1.8359,-1.7925,-1.6868,-1.5931,-1.5113,-1.4229,-1.4024,-1.3655,-1.2898,0.0,0.0,0.0,0.0,0.0,0.0,0.0,0.0,0.0,0.0,0.0,0.0,0.0,0.0,0.0,0.0,0.0,0.0,0.0,0.0,0.0,0.0,0.0,0.0,0.0,-6.2106,0.0,0.0,0.0,0.0,0.0,0.0,0.0,0.0,0.0,0.0,0.0,-6.2662,-6.1898,-6.1274,-6.0628,-6.0001,-5.7765,-5.5926,0.0,0.0,0.0,0.0,0.0,0.0,0.0,0.0,0.0,0.0,0.0,0.0,0.0,0.0,-3.1209,-2.8144,-2.6241,-2.4836,-2.3722,0.0,0.0,0.0,0.0,0.0,0.0,0.0,0.0,0.0,0.0,0.0,0.0,0.0,0.0,0.0,0.0,-2.5336,0.0,0.0,0.0,0.0,0.0,0.0,0.0,0.0,-2.8938,-2.8747,-2.8943,-2.9182,-2.8791,0.0,-2.7647,-2.7052,0.0,0.0,0.0,0.0,0.0,0.0,0.0,0.0,-1.884,-1.8018,-1.7869,-1.7296,-1.6119,-1.4798,-1.4196,-1.43,-1.4319,-1.3814,-1.2768,-1.1311,-1.2668,0.0,0.0,0.0,0.0,0.0,0.0,0.0,0.0,0.0,0.0,0.0,0.0,0.0,0.0,0.0,0.0,0.0,0.0,0.0,0.0,0.0,0.0,0.0,-6.4795,0.0,0.0,0.0,0.0,0.0,0.0,0.0,0.0,0.0,-6.4427,-6.4431,-6.4344,-6.3844,-6.272,-6.1798,-6.1473,0.0,0.0,0.0,0.0,0.0,0.0,0.0,-4.779,-4.722,-4.4785,-4.2688,-4.1483,-3.9392,-3.775,-3.7504,0.0,0.0,-2.9944,-2.7915,-2.6415,-2.4999,-2.2769,-2.1018,-2.1262,-1.8423,-1.5963,0.0,0.0,0.0,0.0,0.0,0.0,0.0,0.0,-2.5512,-2.6779,0.0,-2.9968,0.0,0.0,0.0,0.0,0.0,0.0,0.0,0.0,-3.1286,-3.1518,-3.2128,-3.1135,-3.0658,-3.0453,-2.9453,-2.8778,-2.843,-2.5788,0.0,0.0,0.0,0.0,0.0,0.0,-1.8749,-1.8168,-1.7208,-1.627,-1.5194,-1.3293,-1.291,-1.4416,-1.4666,-1.391,-1.2006,-1.2295,-1.6711,-2.6205,-2.5863,0.0,0.0,0.0,0.0,0.0,0.0,0.0,0.0,0.0,0.0,0.0,0.0,0.0,0.0,0.0,0.0,0.0,0.0,0.0,0.0,-6.626,0.0,0.0,0.0,0.0,0.0,0.0,0.0,0.0,0.0,0.0,-6.573,-6.6,-6.575,-6.3896,0.0,0.0,0.0,0.0,-5.7463,-5.6061,-5.4847,-5.3635,-5.2253,-4.9787,-4.8186,-4.8658,0.0,0.0,-4.3303,-4.1825,-4.0529,-3.9218,-3.7821,-3.5786,-3.2441,-3.0372,-2.8512,-2.6401,-2.4638,-2.4028,-2.3908,-2.101,-1.8566,-2.3495,0.0,0.0,0.0,0.0,-2.3631,-2.4291,-2.5598,-2.4996,-2.5918,-2.79,-2.831,0.0,0.0,0.0,0.0,0.0,0.0,-3.1293,-3.2091,-3.1764,-3.1705,-3.2008,-3.184,-3.116,-3.0437,-3.0181,-2.9508,-2.8885,-2.7496,-2.5579,-2.2743,0.0,0.0,0.0,0.0,-1.864,-1.7805,-1.6525,-1.5377,-1.4381,-1.3536,-1.367,-1.4409,-1.4027,-1.3609,-1.3325,-2.2508,-3.1783,-4.0471,-4.6174,0.0,0.0,0.0,0.0,0.0,0.0,0.0,0.0,0.0,0.0,0.0,0.0,0.0,0.0,0.0,0.0,0.0,0.0,0.0,-6.6343,-6.7959,-6.9058,0.0,0.0,0.0,0.0,0.0,0.0,0.0,0.0,0.0,-6.7301,-6.7402,-6.7086,0.0,0.0,-6.4659,-6.3263,-6.0485,-5.8439,-5.7988,-5.5913,0.0,-5.442,-5.2403,-5.0885,-5.0613,-4.7727,-4.5291,-4.5408,-4.3103,-4.1568,-4.2417,-4.0549,-3.7982,-3.5511,-3.239,-2.9797,-2.7749,-2.6139,-2.5071,-2.4992,-2.2114,-1.9288,-2.4613,-2.4776,-2.4514,-2.4522,-2.4655,-2.4489,-2.5805,-2.8114,-2.7478,-2.859,-3.0808,-3.1402,-3.1985,-3.2742,-3.2759,0.0,0.0,0.0,-3.292,-3.3337,-3.3057,-3.3168,-3.3436,-3.3135,-3.2543,-3.1473,-3.0654,-3.0192,-2.9541,-2.797,-2.6089,-2.3607,0.0,0.0,-1.8651,-1.8894,-1.824,-1.7024,-1.5415,-1.4417,-1.4024,-1.371,-1.343,-1.3186,-1.19,-1.4889,-2.2414,-3.0316,-4.0973,-5.4813,-6.3681,-7.1467,0.0,0.0,0.0,0.0,0.0,0.0,0.0,0.0,0.0,0.0,0.0,-6.7342,-6.636,0.0,0.0,0.0,-6.8552,-6.8608,-6.9502,-7.1067,0.0,0.0,0.0,0.0,0.0,0.0,0.0,-7.0599,-7.0786,-7.041,-6.9189,-6.9423,-6.8763,-6.6027,-6.6142,-6.5873,-6.4166,0.0,-6.0393,-5.9886,-5.8382,-5.7126,-5.644,-5.4388,-5.2225,-5.0672,-4.8641,-4.7106,-4.7067,-4.5145,-4.3811,-4.3715,-4.2126,-3.9855,-3.7575,-3.4572,-3.1679,-2.9208,-2.7413,-2.6376,-2.5982,-2.3043,-2.0285,-2.6007,-2.677,-2.4936,-2.464,-2.5476,-2.5151,-2.7527,-3.1456,-3.1456,-3.3236,-3.6164,-3.694,-3.6469,-3.4951,-3.4951,0.0,-3.4637,-3.507,-3.5327,-3.5205,-3.5114,-3.5457,-3.5856,-3.4985,-3.4093,-3.2971,-3.14,-3.0662,-3.0421,-2.7781,-2.6106,-2.5354,-2.4196,-2.2211,-1.9488,-1.8953,-1.7756,-1.587,-1.4138,-1.3476,-1.3869,-1.3355,-1.2471,-1.1037,-1.1574,-1.9535,-3.483,-3.8145,-4.8681,-6.8825,-7.7963,-8.2135,-8.1254,0.0,0.0,0.0,0.0,0.0,0.0,0.0,0.0,0.0,0.0,0.0,0.0,0.0,0.0,0.0,-7.4746,0.0,-7.3953,-7.4664,0.0,0.0,0.0,-7.2358,-7.2121,-7.2147,-7.1739,-7.051,0.0,0.0,-7.1054,-7.1522,-7.0529,-6.6721,-6.6807,-6.6637,-6.4917,-6.3632,-6.2708,-6.1629,-6.1286,-6.0471,-5.8403,-5.5926,-5.3048,-5.0209,-4.9362,-4.8972,-4.8711,-4.7695,-4.6322,-4.4728,-4.2917,-4.1136,-3.8852,-3.685,-3.4348,-3.1208,-2.903,-2.751,-2.6713,-2.4146,-2.1028,-2.7258,-2.7406,-2.6967,-2.6651,-2.6491,-2.6323,-2.7996,-3.036,-3.0525,-3.2304,-3.5534,-3.6344,-3.7287,-3.8106,-3.8106,-3.7918,-3.7531,-3.7794,-3.7821,-3.7447,-3.7369,-3.6966,-3.6411,-3.5872,-3.4789,-3.3518,-3.2717,-3.2153,-3.1597,-2.9873,-2.8356,-2.6827,-2.5495,-2.2945,-1.9134,-1.8797,-1.7503,-1.4869,-1.3144,-1.1663,-1.0606,-1.0783,-1.0197,-0.8637,-3.0101,-3.9413,-3.4939,-6.1315,-7.8479,-8.3883,-8.4726,-8.4932,-8.474,-7.9422,0.0,0.0,0.0,0.0,0.0,0.0,0.0,0.0,0.0,-7.2884,-7.1299,0.0,-7.2594,0.0,-7.6335,-7.6192,-7.4354,-7.4794,0.0,0.0,-7.4069,-7.3978,-7.4899,-7.3938,-7.3204,-7.3005,-7.2512,-7.2128,-7.1751,-7.1617,-7.0938,-6.9556,-6.8956,-6.7879,-6.6042,-6.4152,-6.2811,-6.2709,-6.1563,-6.0456,-6.0104,-5.8184,-5.5221,-5.1642,-5.0751,-5.0633,-5.0879,-4.9425,-4.7826,-4.6541,-4.4507,-4.2707,-4.1542,-3.8733,-3.6089,-3.4311,-3.1382,-2.862,-2.8209,-2.5012,-2.1855,-2.7908,-2.8152,-2.8095,-2.7978,-2.7852,-2.768,-2.8852,-3.086,-3.086,-3.28,-3.6173,-3.7683,-3.9116,-4.0377,-4.0409,-3.9876,-3.9336,-3.9792,-3.9716,-3.9116,-3.92,-3.8678,-3.7776,-3.7595,-3.6766,-3.5099,-3.47,-3.419,-3.3146,-3.1772,-3.0228,-2.8509,-2.7237,-2.4247,-2.0257,-1.8891,-1.682,-1.3866,-1.2258,-1.0808,-1.0106,-1.6066,-1.6323,-1.0902,-3.5911,-5.3067,-5.9707,-7.273,-8.2581,-8.8503,-8.7389,-8.6131,-8.5351,-8.186,-8.03,0.0,0.0,0.0,0.0,0.0,0.0,0.0,0.0,0.0,0.0,0.0,-7.5383,-7.5564,-7.7418,-7.7695,-7.5487,-7.5968,-7.6287,-7.5859,-7.5385,-7.5289,-7.5872,-7.4748,-7.3887,-7.3809,-7.3129,-7.2667,-7.2945,-7.2592,-7.2079,-7.1534,-7.0485,-6.9105,-6.7604,-6.6157,-6.5111,-6.4362,-6.3372,-6.1808,-5.9886,-5.8512,-5.6435,-5.2987,-5.2023,-5.2126,-5.2229,-5.069,-4.8877,-4.7932,-4.5604,-4.3426,-4.2533,-3.9494,-3.6721,-3.5385,-3.247,-2.9687,-2.8962,-2.5808,-2.2328,-2.8295,-2.8804,-2.8696,-2.8828,-2.9205,-2.8855,-2.9982,-3.2082,-3.2423,-3.4493,-3.783,-3.9974,-4.1249,-4.2144,-4.1836,-4.1469,-4.0952,-4.1513,-4.123,-4.049,-4.0679,-4.0419,-3.9541,-3.9906,-3.8988,-3.7288,-3.7053,-3.625,-3.5123,-3.3327,-3.1887,-3.0546,-2.8924,-2.6113,-2.2387,-1.9662,-1.6426,-1.2679,-1.1354,-1.0344,-0.9853,-2.4932,-2.7131,-1.6051,-3.9269,-6.4151,-8.7599,-7.783,-7.6879,-8.816,-8.8072,-8.6857,-8.5348,-8.4022,-8.304,0.0,-8.1968,0.0,0.0,0.0,0.0,0.0,0.0,0.0,0.0,-8.0545,-7.918,-7.6081,-7.8511,-7.9335,-7.7228,-7.7841,-7.8105,-7.7463,-7.689,-7.6439,-7.6071,-7.5168,-7.4325,-7.4037,-7.3629,-7.3641,-7.4031,-7.3649,-7.3146,-7.2391,-7.1127,-7.0006,-6.9206,-6.8781,-6.7793,-6.5938,-6.5721,-6.3694,-5.9276,-5.8135,-5.7021,-5.3703,-5.3095,-5.3344,-5.3364,-5.1379,-4.9493,-4.8573,-4.6251,-4.3888,-4.3152,-3.9921,-3.7104,-3.6319,-3.3027,-3.0117,-2.9285,-2.6702,-2.2615,-2.9535,-2.9673,-2.9548,-2.9887,-3.01,-3.0461,-3.1782,-3.4108,-3.5941,-3.8469,-4.1361,-4.2122,-4.3004,-4.3725,-4.295,-4.3153,-4.3996,-4.3457,-4.3211,-4.3426,-4.2192,-4.1827,-4.1926,-4.1212,-4.0663,-4.0066,-3.8922,-3.8006,-3.7623,-3.5304,-3.3701,-3.2773,-3.1151,-2.8565,-2.5168,0.0,0.0,0.0,-1.0826,-0.8389,-0.4964,-3.2981,-3.9531,-2.2922,-6.1704,0.0,-7.3587,-8.233,-8.8815,-9.1353,-9.0073,0.0,0.0,0.0,0.0,0.0,0.0,0.0,0.0,0.0,0.0,0.0,-8.2606,-8.2081,-8.1501,-8.2101,-8.1598,-7.9553,-8.0904,-8.1311,-7.9928,-7.9819,-7.9519,-7.8498,-7.7905,-7.7414,-7.6925,-7.6362,-7.5846,-7.5476,-7.5136,-7.479,-7.4398,-7.3419,-7.2601,-7.2049,-7.0398,-6.9969,-7.1128,-6.9902,-6.8646,-6.7736,-6.6292,-6.3975,-6.0342,-5.9743,-5.848,-5.5238,-5.4192,-5.4255,-5.4044,-5.1731,-4.9812,-4.956,-4.7041,-4.4642,-4.3906,-4.0616,-3.7736,-3.6934,-3.3479,-3.0443,-2.9987,-2.8099,-2.4529,-3.0127,0.0,-3.0287,-3.1149,0.0,-3.3588,-3.5425,-3.7535,-3.683,-3.8804,-4.2543,-4.3304,-4.4277,-4.5216,-4.4303,-4.4341,-4.4902,-4.4576,-4.467,-4.4867,-4.454,-4.427,-4.3902,-4.4285,-4.383,-4.3071,-4.2674,-4.1998,-4.0836,-4.0027,-3.8719,-3.6927,-3.7568,-3.5767,-3.1256,-3.1156,-2.8214,-2.2219,-2.7086,-2.6148,-2.0453,-4.707,-6.075,-5.9035,0.0,0.0,0.0,0.0,0.0,0.0,0.0,0.0,0.0,0.0,0.0,-8.4792,-8.3984,-8.3443,-8.3428,-8.2974,-8.3258,-8.4546,-8.4375,-8.3923,-8.3319,-8.3516,-8.299,-8.1527,-8.1703,-8.1495,-8.0619,-8.0178,-7.9606,-7.8804,-7.8484,-7.8243,-7.8289,-7.7521,-7.6987,-7.7153,-7.6408,-7.5818,-7.5841,-7.4188,-7.321,-7.3094,-7.1313,-7.055,-7.1821,-7.0766,-6.9096,-6.7792,-6.6302,-6.3962,-6.0729,-6.0179,-5.9042,-5.5619,-5.4544,-5.4544,-5.4544,-5.2315,-5.0336,-4.9788,-4.7707,-4.5603,-4.4145,-4.1496,-3.8978,-3.7153,-3.4531,-3.1968,-3.0793,-2.8609,-2.5563,-3.0785,-3.1163,-3.1409,-3.2774,-3.5331,-3.6965,-3.9117,-4.1298,0.0,0.0,0.0,-4.4272,-4.5278,-4.6265,-4.5484,-4.5192,-4.5388,-4.5611,-4.5801,-4.582,-4.658,-4.6592,-4.5927,-4.7083,-4.7103,-4.6143,-4.6525,-4.6125,-4.4763,-4.5257,-4.448,-4.2809,-4.5309,-4.4267,-3.9901,-4.4638,-4.5084,-4.0874,-4.8054,-4.829,-4.1425,-6.3055,-7.9598,-8.9429,-9.1959,-9.3235,-9.335,-9.2859,-9.1525,-8.9307,-8.8389,-8.7174,-8.5526,-8.5194,-8.5288,-8.5825,-8.6484,-8.6858,-8.6815,-8.6171,-8.5767,-8.5767,-8.5346,-8.4971,-8.4762,-8.4506,-8.3898,-8.2803,-8.2168,-8.1596,-8.1008,-8.0432,-7.9844,-7.9351,-7.9354,-7.9648,-7.9977,-7.8798,-7.8183,-7.8571,-7.7447,-7.6545,-7.667,-7.5039,-7.3808,-7.3714,-7.2078,-7.1123,-7.1969,-7.1126,-6.9559,-6.7562,-6.6321,-6.4083,-6.0874,-6.0018,-5.8653,-5.5262,-5.4606,-5.4648,-5.4436,-5.2972,-5.1192,-5.0155,-4.8423,-4.6288,-4.4377,-4.236,-4.0169,-3.7628,-3.5563,-3.3717,-3.1439,-2.94,-2.6702,-3.2169,-3.4488,-3.4171,-3.5408,-3.8006,-3.8741,-4.0733,-4.3523,-4.3559,-4.4375,-4.5742,-4.59,-4.6269,-4.6931,-4.6346,-4.6501,-4.7248,-4.6947,-4.6941,0.0,-4.7443,-4.7481,-4.7845,-4.8454,-4.8858,-4.9432,-4.8672,-4.8805,-4.9694,-4.8747,-4.8729,-5.0215,-5.1635,-5.1809,-5.1782,-6.2532,-6.74,-6.539,-6.4368,-6.1668,-5.7923,-7.7377,-8.249,-7.2826,-8.5759,-9.2883,-9.2931,-9.3606,-9.3625,-9.2618,-9.1295,-8.9816,-8.8213,-8.6705,-8.5635,-8.5071,-8.5115,-8.5132,-8.5058,-8.493,-8.4871,-8.4896,-8.5036,-8.4712,-8.3866,-8.4556,-8.4605,-8.3581,-8.3439,-8.3281,-8.2718,-8.2128,-8.1709,-8.1706,-8.1961,-8.1994,-8.162,-8.0394,-7.9484,-7.9426,-7.8186,-7.6594,-7.5553,-7.4871,-7.3714,-7.2109,-7.1638,-7.0872,-7.0735,-7.091,-7.0246,-6.8418,-6.7195,-6.4976,-6.1806,-6.0383,-5.8814,-5.5073,-5.5025,-5.502,-5.4979,-5.3528,-5.1738,-5.0516,-4.8756,-4.6825,-4.4903,-4.2869,-4.0935,-3.8438,-3.6406,-3.4214,-3.1942,-3.0856,-2.8834,-3.2774,-3.4183,-3.4905,-3.6964,-3.9813,-4.2528,-4.4769,-4.6406,-4.6776,-4.7046,-4.7394,-4.7201,-4.7439,-4.8053,-4.7681,-4.778,-4.8373,-4.8454,-4.8472,-4.8712,-4.9163,-4.9558,-5.0166,-5.0802,-5.1429,-5.2175,-5.2546,-5.303,-5.3695,-5.4804,-5.5862,-5.6544,-5.8093,-6.1759,-6.7378,-7.1737,-7.623,-8.0633,-7.9634,-7.8645,-7.807,-8.7221,-8.8972,-8.2639,-8.9957,-9.3423,-9.3392,-9.3206,-9.2985,-9.2597,-9.1615,-9.0314,-8.8657,-8.7438,-8.6151,-8.4866,-8.4765,-8.478,-8.4693,-8.4696,-8.4649,-8.4504,-8.487,-8.4618,-8.3464,-8.4519,-8.4942,-8.4385,-8.3801,-8.3284,-8.2994,-8.2178,-8.1627,-8.1671,-8.1744,-8.1741,-8.1406,-8.069,-7.9956,-7.9632,-7.8825,-7.7651,-7.5988,-7.5061,-7.4299,-7.2723,-7.245,-7.1914,-7.0384,-7.066,-6.9999,-6.7468,-6.645,-6.4999,-6.2263,-6.0791,-5.8955,-5.615,-5.5283,-5.5005,-5.4834,-5.3833,-5.2653,-5.0662,-4.9199,-4.7507,-4.5136,-4.3825,-4.2214,-4.0122,-3.8134,-3.594,-3.3888,-3.1662,-2.8446,-3.4216,-3.5725,-3.7175,-3.9391,-4.2551,-4.6387,-4.8339,-4.9,-4.9196,-4.9237,-4.9237,-4.8574,-4.8561,-4.9126,-4.9121,-4.9182,-4.9527,-5.0152,-5.0376,-5.0457,-5.1189,-5.178,-5.2456,-5.3344,-5.4112,-5.5048,-5.6193,-5.7196,-5.8323,-6.1075,-6.263,-6.3345,-6.5745,-7.1288,-7.9209,-7.8039,-8.1052,-8.7925,-8.9086,-9.019,-9.1746,-9.2493,-9.321,-9.3746,-9.3787,-9.3836,-9.3726,-9.3051,-9.2519,-9.2226,-9.1442,-9.0248,-8.8612,-8.752,-8.6307,-8.4897,-8.4726,-8.4745,-8.4716,-8.4696,-8.4582,-8.4359,-8.4761,-8.4667,-8.3841,-8.4594,-8.5062,-8.4651,-8.3629,-8.3032,-8.2816,-8.1879,-8.1237,-8.1563,-8.1527,-8.1667,-8.1656,-8.1021,-8.0414,-8.0001,-7.9297,-7.8064,-7.6751,-7.555,-7.4554,-7.3675,-7.3828,-7.2994,-7.1069,-7.0866,-6.9549,-6.7031,-6.5899,-6.5327,-6.3276,-6.1613,-5.9743,-5.7431,-5.5868,-5.5261,-5.4942,-5.4772,-5.3467,-5.0954,-4.992,-4.8392,-4.5735,-4.4864,-4.3825,-4.1783,-3.9608,-3.7387,-3.4478,-3.1855,-2.8782,-3.8246,-4.2102,-4.2264,-4.4642,-4.7522,-4.8594,-4.9609,-5.0901,-5.1339,-5.2103,-5.2534,-5.0496,-4.9658,-4.976,-5.0463,-5.0847,-5.095,-5.1861,-5.227,-5.2312,-5.2772,-5.3556,-5.4786,-5.4958,-5.6348,-5.8612,-5.9114,-6.0991,-6.4309,-6.5344,-6.7721,-7.1941,-7.5773,-7.8046,-7.9825,-8.2771,-8.4722,-8.5202,-8.7137,-8.8895,-9.0442,-9.089,-9.1177,-9.1507,-9.271,-9.3409,-9.3445,-9.3939,-9.3814,-9.3042,-9.1754,-9.0248,-8.8612,-8.6975,-8.5663,-8.4795,-8.4723,-8.4719,-8.4717,-8.4685,-8.4649,-8.4359,-8.4839,-8.4947,-8.446,-8.5016,-8.4961,-8.4157,-8.3404,-8.3053,-8.2972,-8.1879,-8.1635,-8.2794,-8.2685,-8.2929,-8.3361,-8.2431,-8.1304,-8.1112,-7.9196,-7.7519,-7.6452,-7.5775,-7.4874,-7.3515,-7.3836,-7.3407,-7.1722,-7.1203,-7.0158,-6.772,-6.7082,-6.6554,-6.5021,-6.3384,-6.1211,-5.8586,-5.7192,-5.6168,-5.5721,-5.5414,-5.4707,-5.1691,-5.0753,-4.944,-4.7032,-4.5806,-4.4853,-4.2781,-4.0218,-3.7206,-3.3472,-3.1641,-3.0481,-3.8461,-4.0662,-4.3156,-4.5958,-4.8637,-4.9328,-5.036,-5.1955,-5.2174,-5.2924,-5.3953,-5.3092,-5.2416,-5.2366,-5.2734,-5.2966,-5.324,-5.3611,-5.4038,-5.456,-5.4754,-5.5679,-5.6866,-5.7313,-5.8388,-6.0002,-6.1133,-6.3595,-6.7234,-7.0228,-7.3558,-7.6814,-7.8464,-7.9749,-8.1303,-8.361,-8.5339,-8.6711,-8.7304,-8.8199,-8.9397,-9.0285,-9.0915,-9.14,-9.2095,-9.2641,-9.296,-9.2998,-9.2751,-9.2425,-9.1877,-9.0772,-8.9119,-8.7928,-8.6754,-8.5522,-8.4995,-8.498,-8.5437,-8.5465,-8.5463,-8.5529,-8.5733,-8.5651,-8.5129,-8.528,-8.5194,-8.4714,-8.3712,-8.3074,-8.2935,-8.1879,-8.1563,-8.2504,-8.2605,-8.2457,-8.2205,-8.1453,-8.0569,-7.9794,-7.9331,-7.8238,-7.639,-7.5247,-7.4515,-7.4106,-7.4569,-7.4092,-7.1999,-7.139,-7.0529,-6.841,-6.7689,-6.7194,-6.6051,-6.394,-6.2089,-6.0678,-5.8959,-5.7289,-5.6654,-5.6652,-5.5633,-5.1839,-5.1305,-4.977,-4.642,-4.5601,-4.4921,-4.3223,-4.0501,-3.704,-3.2846,-3.2036,-3.1761,-4.0334,-4.1524,-4.4876,-4.7714,-4.9791,-5.0309,-5.1545,-5.3046,-5.3216,-5.4122,-5.5334,-5.5689,-5.5743,-5.5397,-5.4956,-5.5043,-5.5323,-5.5731,-5.6253,-5.6931,-5.7111,-5.7802,-5.8936,-5.9401,-6.0529,-6.2299,-6.3737,-6.6295,-7.016,-7.3964,-7.7151,-7.9004,-7.9412,-8.0493,-8.2412,-8.4108,-8.5994,-8.766,-8.7885,-8.839,-8.9276,-8.9943,-9.057,-9.1083,-9.1501,-9.2028,-9.2563,-9.213,-9.1838,-9.1863,-9.1694,-9.102,-8.9787,-8.8787,-8.7682,-8.6438,-8.5807,-8.5751,-8.6356,-8.6384,-8.6373,-8.6389,-8.6404,-8.6152,-8.5628,-8.5469,-8.5543,-8.5609,-8.4406,-8.3507,-8.2957,-8.1908,-8.1453,-8.2179,-8.2378,-8.1978,-8.1188,-8.081,-8.0371,-7.9431,-7.9567,-7.899,-7.6774,-7.5358,-7.4571,-7.5172,-7.5467,-7.4798,-7.2282,-7.177,-7.1235,-6.8746,-6.822,-6.7924,-6.7038,-6.4918,-6.3341,-6.1995,-6.0319,-5.8269,-5.7569,-5.7442,-5.6974,-5.3858,-5.2187,-5.044,-4.8321,-4.7006,-4.4971,-4.367,-4.1171,-3.7486,-3.3864,-3.2908,-3.2145,-4.5407,-4.7994,-4.965,-5.0705,-5.1673,-5.216,-5.311,-5.4482,-5.4956,-5.5861,-5.6933,-5.8085,-5.8675,-5.8541,-5.7331,-5.6773,-5.6998,-5.8119,-5.8676,-5.9031,-5.9339,-5.9973,-6.0924,-6.1352,-6.3577,-6.6702,-6.724,-6.9716,-7.4019,-7.6324,-7.7368,-7.7779,-8.0084,-8.1684,-8.2752,-8.5613,-8.7379,-8.7833,-8.8763,-8.9688,-9.0291,-8.9967,-8.9852,-9.0282,-9.0863,-9.151,-9.2025,-9.1855,-9.1744,-9.1786,-9.1179,-9.0686,-9.0376,-8.9088,-8.7906,-8.7244,-8.7221,-8.7237,-8.726,-8.7252,-8.7014,-8.6522,-8.6378,-8.6143,-8.559,-8.5588,-8.5851,-8.6455,-8.5386,-8.4293,-8.3355,-8.215,-8.1597,-8.2287,-8.2404,-8.2205,-8.1804,-8.1563,-8.1153,-8.0376,-7.9867,-7.8956,-7.7174,-7.6129,-7.564,-7.5893,-7.6055,-7.4945,-7.2962,-7.2595,-7.1556,-6.9635,-6.8743,-6.8769,-6.8409,-6.6006,-6.4157,-6.3015,-6.1002,-5.8803,-5.8105,-5.7654,-5.676,-5.5613,-5.3817,-5.2165,-5.0648,-4.8231,-4.5395,-4.3174,-4.0821,-3.7529,-3.5139,-3.3136,-3.2417,-4.7445,-5.0177,-5.1064,-5.1757,-5.2388,-5.3083,-5.4171,-5.5578,-5.6308,-5.7379,-5.8503,-5.9159,-5.959,-5.9863,-6.0041,-5.9701,-5.9159,-6.006,-6.0597,-6.1333,-6.1841,-6.236,-6.3153,-6.4059,-6.5466,-6.7641,-6.9151,-7.1813,-7.5579,-7.7326,-7.8367,-7.9151,-8.0405,-8.2157,-8.4501,-8.6811,-8.855,-8.9682,-9.0007,-9.014,-9.0414,-8.9821,-8.9647,-9.0044,-9.0434,-9.0987,-9.166,-9.2118,-9.22,-9.1687,-9.1937,-9.167,-9.0584,-8.9679,-8.8818,-8.8096,-8.8123,-8.7986,-8.7495,-8.7417,-8.7105,-8.6499,-8.6403,-8.6173,-8.5742,-8.6008,-8.6426,-8.6566,-8.6214,-8.5487,-8.4812,-8.3272,-8.2323,-8.2763,-8.2998,-8.2892,-8.2535,-8.2217,-8.197,-8.1423,-8.0351,-7.8661,-7.7073,-7.5932,-7.5655,-7.6241,-7.6385,-7.5448,-7.3823,-7.3296,-7.2313,-6.9709,-6.8847,-6.8847,-6.8847,-6.6404,-6.4377,-6.3278,-6.1689,-6.0475,-5.9658,-5.935,-5.8817,-5.6995,-5.4975,-5.2502,-5.0734,-4.8562,-4.5784,-4.3836,-4.128,-3.8734,-3.6436,-3.4419,-3.3057,-4.9664,-5.1534,-5.2209,-5.2798,-5.3474,-5.4317,-5.5386,-5.6536,-5.7238,-5.8319,-5.9306,-5.9784,-6.0332,-6.1085,-6.2053,-6.2232,-6.1671,-6.185,-6.2564,-6.3298,-6.3826,-6.4309,-6.5157,-6.6347,-6.7919,-6.9817,-7.2152,-7.4685,-7.6844,-7.7747,-7.8987,-8.0575,-8.1267,-8.3228,-8.6218,-8.7992,-8.9618,-9.0871,-9.096,-9.1085,-9.1273,-9.067,-9.0578,-9.0943,-9.0784,-9.08,-9.1341,-9.1985,-9.2241,-9.2072,-9.2364,-9.1948,-9.0714,-8.9986,-8.9291,-8.8572,-8.8318,-8.8025,-8.751,-8.7386,-8.7118,-8.6544,-8.6451,-8.6268,-8.6049,-8.6506,-8.6923,-8.7122,-8.6933,-8.6667,-8.6356,-8.522,-8.41,-8.3588,-8.3422,-8.3186,-8.28,-8.2508,-8.2238,-8.1604,-8.0358,-7.8666,-7.7024,-7.6147,-7.6257,-7.6727,-7.6544,-7.5481,-7.4402,-7.3192,-7.2112,-6.9459,-6.8847,-6.8487,-6.8061,-6.6262,-6.5196,-6.4077,-6.2193,-6.1257,-6.0974,-6.0923,-6.0194,-5.8187,-5.5752,-5.3034,-5.0706,-4.8581,-4.668,-4.4972,-4.2437,-3.9913,-3.7645,-3.563,-3.4439,-5.1976,-5.257,-5.355,-5.4345,-5.518,-5.5879,-5.649,-5.747,-5.808,-5.8784,-5.9561,-6.0533,-6.1404,-6.2161,-6.3145,-6.3851,-6.3826,-6.3826,-6.4178,-6.4702,-6.5025,-6.5667,-6.6492,-6.7893,-7.029,-7.3142,-7.6632,-7.8237,-7.8276,-7.8314,-7.949,-8.169,-8.275,-8.4696,-8.7967,-8.9106,-9.0222,-9.1133,-9.1728,-9.2476,-9.3439,-9.2517,-9.2385,-9.2901,-9.1757,-9.1069,-9.1287,-9.1399,-9.1814,-9.2403,-9.2072,-9.1378,-9.0753,-9.0072,-8.9313,-8.8611,-8.7887,-8.7531,-8.7486,-8.744,-8.7192,-8.6787,-8.6605,-8.6648,-8.6734,-8.6968,-8.7381,-8.7999,-8.7863,-8.751,-8.7576,-8.7389,-8.6465,-8.4318,-8.3721,-8.34,-8.3124,-8.2732,-8.1989,-8.0906,-8.0083,-7.9051,-7.7653,-7.6876,-7.6965,-7.7456,-7.6703,-7.5364,-7.4611,-7.3192,-7.1015,-6.9485,-6.8952,-6.8721,-6.7418,-6.6167,-6.5692,-6.4982,-6.265,-6.1188,-6.1417,-6.1392,-6.1183,-5.9595,-5.6844,-5.4134,-5.1229,-4.9331,-4.8614,-4.6729,-4.3959,-4.151,-3.9664,-3.7811,-3.5515,-5.3351,-5.355,-5.4895,-5.5488,-5.6013,-5.7401,-5.8088,-5.8477,-5.9507,-6.0395,-6.0916,-6.1812,-6.2489,-6.3225,-6.3826,-6.4377,-6.4901,-6.5248,-6.5594,-6.5717,-6.576,-6.7055,-6.8857,-6.9615,-7.1869,-7.5673,-7.8645,-7.9604,-7.9259,-8.0438,-8.1923,-8.269,-8.4308,-8.6301,-8.8384,-8.9435,-9.034,-9.117,-9.1873,-9.2468,-9.2876,-9.2965,-9.3127,-9.3089,-9.2257,-9.1797,-9.1948,-9.2098,-9.2049,-9.1804,-9.2164,-9.189,-9.0869,-9.0499,-8.9815,-8.8685,-8.8397,-8.8279,-8.8188,-8.7752,-8.7504,-8.737,-8.6976,-8.6803,-8.7075,-8.7543,-8.803,-8.8492,-8.8428,-8.8296,-8.7873,-8.7826,-8.7158,-8.5608,-8.5486,-8.5189,-8.4551,-8.4113,-8.2979,-8.1115,-8.0581,-7.9707,-7.821,-7.7396,-7.768,-7.8735,-7.8006,-7.7025,-7.5427,-7.4155,-7.2403,-7.0255,-6.9862,-6.9396,-6.868,-6.7288,-6.5911,-6.5169,-6.3185,-6.1648,-6.1809,-6.1901,-6.1832,-6.048,-5.7891,-5.5242,-5.2296,-5.0363,-4.9439,-4.8639,-4.6371,-4.4319,-4.2274,-4.0002,-3.7509,-5.4276,-5.4785,-5.5664,-5.6362,-5.7056,-5.8259,-5.8964,-5.9375,-6.0724,-6.1619,-6.2175,-6.2856,-6.354,-6.4104,-6.4377,-6.4901,-6.5594,-6.6112,-6.6626,-6.6771,-6.6806,-6.8298,-7.1009,-7.2609,-7.4313,-7.7182,-7.9414,-8.0309,-8.0313,-8.2114,-8.3632,-8.4626,-8.5829,-8.7317,-8.8963,-8.9569,-9.0298,-9.1173,-9.2188,-9.2753,-9.3009,-9.3478,-9.3572,-9.3166,-9.2486,-9.2028,-9.1873,-9.1982,-9.2011,-9.1886,-9.2473,-9.2209,-9.1241,-9.0926,-9.0287,-8.9376,-8.9099,-8.9071,-8.8735,-8.8423,-8.8248,-8.8284,-8.7824,-8.7704,-8.8102,-8.8615,-8.8838,-8.8718,-8.8753,-8.8596,-8.8164,-8.8341,-8.807,-8.7407,-8.7009,-8.6592,-8.5772,-8.5411,-8.421,-8.2458,-8.1641,-8.055,-7.9009,-7.8328,-7.8593,-7.9407,-7.8929,-7.7981,-7.6143,-7.4971,-7.3024,-7.1583,-7.0704,-7.0356,-7.0309,-6.8585,-6.6508,-6.5174,-6.3769,-6.2712,-6.236,-6.2498,-6.2521,-6.0629,-5.8169,-5.5877,-5.3119,-5.1089,-4.9932,-4.907,-4.8206,-4.5977,-4.3304,-4.1235,-3.8715,-5.4785,-5.6013,-5.6188,-5.7251,-5.8694,-5.9035,-5.9639,-6.0412,-6.1353,-6.2032,-6.2666,-6.335,-6.4161,-6.4728,-6.5199,-6.5594,-6.6112,-6.6797,-6.7646,-6.8293,-6.869,-7.0011,-7.2553,-7.5743,-7.7623,-7.8237,-7.9665,-8.0938,-8.2017,-8.3199,-8.4721,-8.6656,-8.6868,-8.7903,-8.9378,-8.9748,-9.0134,-9.1212,-9.2625,-9.341,-9.3668,-9.4198,-9.4108,-9.3357,-9.2636,-9.195,-9.1413,-9.1331,-9.1668,-9.2348,-9.255,-9.2334,-9.1875,-9.1277,-9.0612,-8.9953,-8.9957,-8.9627,-8.9157,-8.9192,-8.9395,-8.9331,-8.9023,-8.9223,-8.9483,-8.9419,-8.9405,-8.9187,-8.9044,-8.8816,-8.8612,-8.8977,-8.9276,-8.909,-8.7971,-8.7046,-8.63,-8.6185,-8.5158,-8.3519,-8.2846,-8.2043,-7.9583,-7.9139,-7.954,-7.9851,-7.8891,-7.7763,-7.6791,-7.5792,-7.4008,-7.2885,-7.1928,-7.1891,-7.1734,-6.9341,-6.7438,-6.6636,-6.4976,-6.3223,-6.2682,-6.2819,-6.2837,-6.0948,-5.9051,-5.6788,-5.462,-5.2693,-5.1088,-5.0053,-4.8612,-4.661,-4.4677,-4.2497,-4.0255,-5.5664,-5.6188,-5.7573,-5.864,-5.9507,-6.0044,-6.0989,-6.1838,-6.2154,-6.2495,-6.3056,-6.3694,-6.421,-6.4678,-6.5592,-6.6112,-6.6771,-6.7502,-6.8769,-7.0338,-7.115,-7.2609,-7.4868,-7.7957,-7.9358,-7.9415,-8.1105,-8.2563,-8.3075,-8.4911,-8.626,-8.6847,-8.7315,-8.8075,-8.9336,-8.9537,-9.0134,-9.1175,-9.2521,-9.341,-9.3821,-9.4703,-9.4872,-9.4113,-9.3364,-9.2563,-9.1836,-9.1372,-9.1322,-9.1616,-9.1875,-9.1693,-9.1213,-9.1088,-9.082,-9.0234,-9.0078,-9.0265,-9.0413,-9.0015,-8.9856,-9.0128,-8.9603,-8.9291,-8.9825,-8.9496,-8.9571,-8.9754,-8.9667,-8.9312,-8.9393,-8.9821,-8.9854,-8.9223,-8.8471,-8.7666,-8.6851,-8.6695,-8.6018,-8.3867,-8.3309,-8.2142,-8.0635,-8.0001,-8.034,-8.0924,-8.0325,-7.8976,-7.8088,-7.6943,-7.5343,-7.4439,-7.3649,-7.359,-7.2774,-7.0152,-6.8574,-6.808,-6.6214,-6.3409,-6.2962,-6.2819,-6.2882,-6.2516,-6.0351,-5.826,-5.6491,-5.464,-5.3109,-5.1122,-5.0009,-4.8263,-4.6491,-4.4515,-4.1759,-5.6536,-5.7251,-5.8664,-5.9631,-6.0282,-6.1205,-6.2008,-6.2641,-6.3032,-6.3448,-6.3913,-6.453,-6.4825,-6.5018,-6.586,-6.6959,-6.7789,-6.883,-7.0528,-7.2664,-7.4351,-7.5567,-7.6933,-7.9335,-8.0268,-7.985,-8.2302,-8.3678,-8.4386,-8.6508,-8.7501,-8.7674,-8.755,-8.8113,-8.935,-8.9565,-9.019,-9.1652,-9.2939,-9.3803,-9.3687,-9.4572,-9.4249,-9.3578,-9.2942,-9.2488,-9.1759,-9.137,-9.1245,-9.1279,-9.1534,-9.1531,-9.1306,-9.1488,-9.1296,-9.0625,-9.0859,-9.1365,-9.1575,-9.1014,-9.0985,-9.132,-9.0643,-9.0211,-9.0367,-9.0183,-9.0441,-9.0385,-9.0249,-9.018,-9.0136,-9.0116,-8.9654,-8.9192,-8.8744,-8.8146,-8.7262,-8.7769,-8.687,-8.5196,-8.4225,-8.3546,-8.1275,-8.114,-8.1664,-8.2077,-8.1379,-8.0255,-7.9333,-7.8099,-7.6816,-7.5861,-7.5021,-7.4884,-7.416,-7.1873,-6.9333,-6.8665,-6.6577,-6.3922,-6.3358,-6.298,-6.3187,-6.2821,-6.1259,-5.9702,-5.7509,-5.5306,-5.3313,-5.1688,-5.0993,-4.9602,-4.7583,-4.5456,-4.2956,-5.7297,-5.8912,-5.9577,-6.0377,-6.14,-6.2153,-6.2788,-6.3081,-6.4061,-6.4577,-6.4847,-6.5614,-6.5634,-6.5503,-6.6518,-6.7841,-6.9345,-7.0178,-7.2478,-7.4964,-7.7299,-7.8599,-7.8293,-8.0019,-8.0681,-8.0496,-8.2955,-8.4363,-8.548,-8.7374,-8.834,-8.8157,-8.7762,-8.8122,-8.8962,-8.9385,-9.0421,-9.1653,-9.3064,-9.36,-9.3391,-9.3792,-9.3535,-9.2435,-9.2063,-9.1835,-9.1444,-9.1206,-9.1275,-9.1241,-9.1539,-9.1832,-9.1975,-9.2324,-9.2182,-9.1836,-9.2109,-9.2422,-9.2617,-9.2256,-9.2249,-9.2599,-9.1869,-9.1287,-9.1141,-9.1102,-9.1072,-9.0928,-9.0926,-9.0961,-9.0839,-9.0038,-8.9306,-8.9058,-8.8785,-8.8433,-8.8398,-8.8877,-8.8448,-8.6173,-8.6216,-8.5116,-8.3505,-8.2758,-8.3221,-8.2907,-8.2025,-8.0706,-7.9736,-7.8665,-7.7571,-7.6879,-7.634,-7.593,-7.4962,-7.3783,-7.1076,-6.8995,-6.6561,-6.446,-6.4059,-6.3704,-6.3607,-6.3081,-6.2099,-6.0093,-5.7509,-5.5306,-5.3518,-5.1538,-5.0601,-4.916,-4.7496,-4.5681,-4.3366,-5.9038,-5.9625,-6.1178,-6.2175,-6.2884,-6.335,-6.3989,-6.4679,-6.4554,-6.4847,-6.5163,-6.5798,-6.5917,-6.5816,-6.7363,-6.8883,-7.0395,-7.1683,-7.3732,-7.7826,-8.023,-8.1102,-8.0697,-8.0987,-8.1151,-8.1707,-8.2873,-8.4539,-8.6162,-8.7361,-8.8098,-8.8085,-8.7717,-8.7643,-8.8454,-8.8943,-8.9098,-9.035,-9.1865,-9.2796,-9.2846,-9.3191,-9.3043,-9.1942,-9.1491,-9.1297,-9.1283,-9.1361,-9.1406,-9.1492,-9.1785,-9.2296,-9.2832,-9.2713,-9.2734,-9.3008,-9.2734,-9.2812,-9.3203,-9.3029,-9.2898,-9.2852,-9.2387,-9.1941,-9.1216,-9.1157,-9.1387,-9.1544,-9.1575,-9.1594,-9.1615,-9.0328,-8.9556,-8.9254,-8.8925,-8.8674,-8.8709,-8.9429,-8.8922,-8.7445,-8.6896,-8.6269,-8.3443,-8.3687,-8.3798,-8.3522,-8.2461,-8.109,-7.9948,-7.9142,-7.8243,-7.7301,-7.7194,-7.673,-7.5875,-7.4337,-7.1433,-6.9045,-6.677,-6.5212,-6.4647,-6.4435,-6.4245,-6.3866,-6.3294,-6.0894,-5.8105,-5.6891,-5.5487,-5.282,-5.0175,-4.9508,-4.8399,-4.6149,-4.4028,-5.9702,-6.0672,-6.2056,-6.2934,-6.357,-6.4358,-6.4976,-6.5347,-6.532,-6.5514,-6.5685,-6.617,-6.6213,-6.6179,-6.8315,-7.0258,-7.223,-7.4849,-7.724,-7.9809,-8.1399,-8.1744,-8.1526,-8.1729,-8.2264,-8.2922,-8.4222,-8.5645,-8.6887,-8.791,-8.8524,-8.8254,-8.7804,-8.8309,-8.92,-8.9583,-9.0685,-9.2031,-9.3342,-9.3954,-9.3402,-9.3473,-9.2856,-9.1793,-9.1184,-9.1218,-9.1787,-9.2002,-9.2158,-9.2316,-9.2534,-9.2871,-9.3255,-9.2969,-9.3086,-9.3554,-9.3086,-9.2969,-9.3359,-9.3065,-9.2677,-9.2955,-9.2353,-9.2053,-9.1757,-9.1604,-9.1849,-9.2375,-9.2399,-9.2283,-9.2353,-9.1414,-9.0452,-8.9856,-8.9361,-8.9156,-8.9191,-8.9594,-8.9194,-8.7544,-8.6929,-8.6144,-8.5063,-8.4761,-8.4932,-8.4993,-8.3062,-8.1536,-8.0396,-7.9531,-7.8338,-7.7582,-7.761,-7.731,-7.6788,-7.4696,-7.1361,-6.9095,-6.7163,-6.6124,-6.54,-6.5001,-6.4812,-6.4435,-6.3866,-6.1883,-5.9484,-5.826,-5.6368,-5.3072,-5.0995,-5.0474,-4.9497,-4.7445,-4.5378,-6.0265,-6.1838,-6.2544,-6.3203,-6.4235,-6.5025,-6.557,-6.5594,-6.594,-6.6208,-6.6283,-6.6797,-6.6857,-6.7132,-6.9333,-7.1597,-7.4412,-7.7734,-8.0322,-8.111,-8.1765,-8.2144,-8.2142,-8.2949,-8.3756,-8.4171,-8.5277,-8.6538,-8.7526,-8.8525,-8.8978,-8.8886,-8.8692,-8.9123,-9.0298,-9.1279,-9.2008,-9.3106,-9.4464,-9.5013,-9.402,-9.3803,-9.2665,-9.1412,-9.1068,-9.1556,-9.2266,-9.2664,-9.2973,-9.3335,-9.359,-9.3704,-9.3588,-9.3047,-9.3125,-9.3945,-9.3203,-9.2969,-9.3348,-9.301,-9.275,-9.2988,-9.2729,-9.2245,-9.2488,-9.2779,-9.3163,-9.3368,-9.3438,-9.3319,-9.3051,-9.1885,-9.1173,-9.0631,-8.996,-8.9502,-8.9568,-8.9409,-8.8329,-8.7629,-8.7205,-8.6463,-8.5979,-8.5651,-8.6094,-8.5884,-8.3929,-8.2196,-8.0999,-7.9704,-7.8318,-7.7694,-7.7694,-7.6123,-7.5258,-7.4581,-7.1262,-6.8983,-6.7173,-6.6826,-6.6152,-6.6226,-6.6085,-6.5095,-6.4033,-6.2268,-6.0677,-5.907,-5.6685,-5.3138,-5.1397,-5.0673,-4.9622,-4.8524,-4.667,-6.1304,-6.2373,-6.34,-6.426,-6.5075,-6.5717,-6.5864,-6.6112,-6.6354,-6.6626,-6.6771,-6.7646,-6.7906,-6.8524,-7.0121,-7.3247,-7.6675,-7.9535,-8.111,-8.1752,-8.2234,-8.2566,-8.3825,-8.402,-8.5017,-8.6418,-8.668,-8.6887,-8.8051,-8.8916,-8.9328,-8.9616,-8.988,-9.0301,-9.0753,-9.1311,-9.2127,-9.2957,-9.3944,-9.407,-9.3612,-9.2814,-9.2095,-9.103,-9.1143,-9.1848,-9.2664,-9.309,-9.357,-9.4411,-9.4691,-9.4792,-9.4441,-9.3429,-9.3515,-9.4062,-9.3276,-9.272,-9.3164,-9.3716,-9.3392,-9.3412,-9.4121,-9.4215,-9.3778,-9.4068,-9.4454,-9.4495,-9.4596,-9.4647,-9.4007,-9.2401,-9.1204,-9.0418,-8.9466,-8.8742,-8.9188,-8.8599,-8.7968,-8.7929,-8.7546,-8.7058,-8.6501,-8.613,-8.6333,-8.5881,-8.4031,-8.262,-8.1595,-7.9818,-7.7993,-7.7694,-7.7694,-7.5426,-7.3329,-7.2837,-7.1163,-6.8732,-6.7188,-6.7188,-6.7006,-6.7461,-6.7224,-6.6062,-6.5118,-6.3889,-6.2099,-6.0093,-5.7466,-5.4444,-5.2535,-5.0886,-5.009,-4.9412,-4.8983,-6.1789,-6.2372,-6.3151,-6.4055,-6.4868,-6.5088,-6.5427,-6.5597,-6.5765,-6.628,-6.7132,-6.835,-6.9169,-7.0311,-7.3034,-7.6103,-7.8619,-8.0163,-8.1309,-8.2088,-8.2234,-8.2933,-8.4594,-8.4753,-8.5548,-8.6542,-8.6928,-8.7515,-8.8506,-8.8951,-8.9471,-8.9986,-9.0502,-9.1215,-9.1832,-9.2526,-9.3024,-9.3529,-9.4037,-9.4146,-9.365,-9.2627,-9.168,-9.1222,-9.16,-9.2415,-9.3358,-9.421,-9.4777,-9.5353,-9.5632,-9.5488,-9.4894,-9.4179,-9.3633,-9.414,-9.3255,-9.2479,-9.2943,-9.3669,-9.4034,-9.372,-9.5129,-9.5672,-9.5127,-9.5186,-9.5213,-9.4797,-9.4589,-9.4323,-9.3231,-9.259,-9.1864,-9.0622,-8.9716,-8.981,-8.9669,-8.8506,-8.8237,-8.8246,-8.7139,-8.6515,-8.6433,-8.6339,-8.6591,-8.5664,-8.4177,-8.2966,-8.1961,-8.0026,-7.788,-7.7858,-7.7666,-7.5484,-7.3249,-7.2263,-7.0911,-6.8488,-6.7242,-6.7242,-6.7386,-6.7723,-6.7413,-6.677,-6.5755,-6.5117,-6.3294,-6.1043,-5.847,-5.588,-5.4065,-5.2335,-5.1416,-5.063,-5.0265,-6.1956,-6.246,-6.282,-6.3644,-6.4429,-6.4647,-6.4839,-6.5148,-6.5811,-6.6372,-6.7204,-6.916,-7.0578,-7.1969,-7.4964,-7.8149,-8.0474,-8.0971,-8.1553,-8.2234,-8.2678,-8.3227,-8.45,-8.5197,-8.6418,-8.7527,-8.769,-8.8542,-8.8775,-8.9213,-8.9641,-9.0429,-9.1246,-9.2122,-9.2875,-9.3651,-9.4561,-9.5105,-9.5425,-9.5216,-9.4266,-9.3095,-9.2028,-9.1336,-9.2095,-9.3083,-9.4189,-9.4812,-9.5491,-9.5823,-9.5954,-9.5762,-9.5123,-9.4452,-9.4101,-9.392,-9.3143,-9.2533,-9.2528,-9.3534,-9.4141,-9.356,-9.5099,-9.5891,-9.5838,-9.5289,-9.5021,-9.457,-9.4271,-9.3961,-9.3111,-9.3017,-9.251,-9.1693,-9.1299,-9.1331,-9.0743,-8.9806,-8.8721,-8.7995,-8.6553,-8.6102,-8.6274,-8.6598,-8.6789,-8.5493,-8.3967,-8.2213,-8.1153,-7.9667,-7.8167,-7.8127,-7.7474,-7.5542,-7.3657,-7.221,-7.0401,-6.803,-6.7242,-6.7266,-6.7434,-6.7461,-6.727,-6.715,-6.727,-6.6394,-6.4212,-6.2528,-6.0435,-5.8034,-5.5541,-5.3607,-5.2282,-5.2122,-5.2166,-6.2125,-6.2987,-6.2962,-6.3644,-6.4379,-6.4738,-6.5097,-6.5378,-6.7237,-6.8466,-6.8679,-7.0749,-7.1952,-7.349,-7.6056,-7.8555,-8.0243,-8.1217,-8.1703,-8.2316,-8.3444,-8.4971,-8.6796,-8.711,-8.7744,-8.8495,-8.8566,-8.8757,-8.9039,-8.9556,-9.0304,-9.117,-9.1803,-9.2699,-9.3605,-9.4253,-9.4958,-9.5463,-9.5598,-9.5178,-9.4343,-9.3517,-9.2871,-9.2526,-9.2762,-9.354,-9.4707,-9.5204,-9.5615,-9.6266,-9.5707,-9.5307,-9.5067,-9.4933,-9.4778,-9.4503,-9.3836,-9.291,-9.256,-9.3688,-9.4227,-9.4111,-9.5329,-9.5751,-9.5499,-9.53,-9.5157,-9.5321,-9.4656,-9.4007,-9.3107,-9.2662,-9.2425,-9.2233,-9.1829,-9.194,-9.1681,-8.9949,-8.8969,-8.8443,-8.7241,-8.6651,-8.6435,-8.6695,-8.6823,-8.5303,-8.3798,-8.2131,-8.0676,-7.9307,-7.8261,-7.8196,-7.7936,-7.6069,-7.3694,-7.2253,-7.0426,-6.7893,-6.7194,-6.7242,-6.7458,-6.7413,-6.7485,-6.7437,-6.7843,-6.8011,-6.6582,-6.4843,-6.2652,-6.0114,-5.7259,-5.5042,-5.2953,-5.3047,-5.3457,-6.2455,-6.2514,-6.2845,-6.3324,-6.3855,-6.4209,-6.4948,-6.6344,-6.7424,-6.8679,-7.0186,-7.1906,-7.4079,-7.6182,-7.8543,-7.9839,-8.1048,-8.1461,-8.1881,-8.2723,-8.3963,-8.536,-8.6359,-8.7165,-8.8122,-8.8741,-8.8967,-8.8987,-8.93,-8.9726,-9.0465,-9.1472,-9.2089,-9.2868,-9.3991,-9.4545,-9.5056,-9.5311,-9.514,-9.449,-9.3846,-9.3517,-9.3293,-9.3064,-9.3753,-9.4589,-9.5278,-9.6053,-9.6434,-9.6995,-9.666,-9.6328,-9.5937,-9.5689,-9.5466,-9.4768,-9.4809,-9.4305,-9.3756,-9.4849,-9.4821,-9.4905,-9.5887,-9.6489,-9.5418,-9.4793,-9.4734,-9.4697,-9.3698,-9.3125,-9.2957,-9.2564,-9.2136,-9.2062,-9.2282,-9.1766,-9.1438,-8.999,-8.8754,-8.839,-8.7864,-8.7232,-8.6628,-8.6597,-8.621,-8.4496,-8.3441,-8.2253,-8.0885,-7.9764,-7.884,-7.8204,-7.7788,-7.695,-7.4202,-7.2122,-7.0554,-6.8303,-6.6862,-6.6958,-6.7246,-6.7389,-6.7413,-6.8059,-6.854,-6.8612,-6.8301,-6.6458,-6.3879,-6.1291,-5.874,-5.6123,-5.3785,-5.3437,-5.3363,-6.2705,-6.2495,-6.2659,-6.3148,-6.3473,-6.3635,-6.5027,-6.696,-6.7729,-6.9191,-7.1404,-7.3589,-7.6301,-7.8728,-7.9847,-8.074,-8.1399,-8.1703,-8.2285,-8.3281,-8.4535,-8.5801,-8.6993,-8.7803,-8.8185,-8.8405,-8.9023,-8.9162,-8.9471,-9.0022,-9.0939,-9.1694,-9.2399,-9.3214,-9.4086,-9.4666,-9.5143,-9.5516,-9.514,-9.4567,-9.408,-9.3823,-9.4023,-9.4362,-9.4961,-9.5635,-9.6234,-9.6507,-9.7075,-9.7151,-9.6816,-9.6373,-9.6207,-9.6044,-9.5932,-9.5592,-9.5719,-9.5642,-9.5313,-9.5709,-9.6029,-9.5982,-9.5934,-9.5836,-9.5193,-9.44,-9.3931,-9.3943,-9.3047,-9.2462,-9.2321,-9.2507,-9.251,-9.2565,-9.2801,-9.1999,-9.1057,-9.0133,-8.8969,-8.8204,-8.7791,-8.7109,-8.6725,-8.6563,-8.5501,-8.3723,-8.276,-8.2048,-8.1004,-7.9793,-7.9284,-7.8465,-7.8175,-7.7273,-7.448,-7.2105,-7.0451,-6.8634,-6.7205,-6.6742,-6.7097,-6.7338,-6.7294,-6.8107,-6.8781,-6.8661,-6.8037,-6.6458,-6.4679,-6.1947,-5.9327,-5.6712,-5.4964,-5.4333,-5.378,-6.2709,-6.3311,-6.2985,-6.3148,-6.3635,-6.3958,-6.5318,-6.7702,-6.9187,-7.0898,-7.2892,-7.5535,-7.7754,-7.9376,-8.0125,-8.0771,-8.1186,-8.1901,-8.2849,-8.4315,-8.5874,-8.7461,-8.8429,-8.8881,-8.9269,-8.9588,-8.9449,-8.9249,-8.9605,-9.0746,-9.1509,-9.2229,-9.2802,-9.3798,-9.4508,-9.4996,-9.5286,-9.5554,-9.5407,-9.5451,-9.516,-9.5018,-9.5097,-9.5779,-9.5959,-9.6195,-9.7364,-9.7015,-9.6753,-9.6816,-9.6386,-9.6202,-9.6417,-9.6312,-9.6276,-9.6483,-9.6474,-9.6405,-9.6297,-9.588,-9.5406,-9.506,-9.4763,-9.4741,-9.4458,-9.3657,-9.327,-9.3413,-9.2905,-9.2587,-9.2518,-9.2561,-9.2657,-9.3155,-9.3249,-9.247,-9.161,-9.0696,-8.9579,-8.839,-8.7594,-8.6914,-8.6725,-8.6498,-8.4914,-8.3119,-8.1604,-8.1029,-8.0225,-7.922,-7.9325,-7.8883,-7.8667,-7.721,-7.4392,-7.2341,-7.0707,-6.8833,-6.7163,-6.6682,-6.6802,-6.7067,-6.7218,-6.7554,-6.8249,-6.8011,-6.8011,-6.6844,-6.5244,-6.2383,-5.9915,-5.7697,-5.5548,-5.4188,-5.4004,-6.2985,-6.3473,-6.4338,-6.5108,-6.5739,-6.5923,-6.7702,-7.0255,-7.1307,-7.2889,-7.5021,-7.7089,-7.8567,-7.9514,-8.0433,-8.1217,-8.1901,-8.2881,-8.3865,-8.5198,-8.6958,-8.8374,-8.9111,-8.9294,-8.9396,-8.9447,-8.9253,-8.9213,-8.935,-9.102,-9.1875,-9.2505,-9.2997,-9.3798,-9.4599,-9.5191,-9.5463,-9.5554,-9.5598,-9.5643,-9.5738,-9.5867,-9.5928,-9.6352,-9.6793,-9.6853,-9.7355,-9.7309,-9.7229,-9.7089,-9.6777,-9.6796,-9.6769,-9.6754,-9.681,-9.6958,-9.686,-9.6723,-9.6487,-9.6073,-9.5634,-9.4553,-9.4029,-9.3737,-9.4169,-9.3879,-9.3869,-9.3747,-9.3338,-9.3034,-9.3182,-9.2976,-9.2924,-9.3674,-9.3662,-9.3008,-9.1917,-9.0842,-8.9399,-8.7832,-8.7117,-8.6593,-8.6466,-8.6433,-8.4423,-8.2496,-8.1009,-7.9901,-7.9167,-7.8843,-7.8862,-7.8624,-7.8251,-7.6844,-7.4013,-7.2547,-7.1185,-6.91,-6.6982,-6.7006,-6.6944,-6.7124,-6.744,-6.752,-6.7526,-6.7598,-6.7482,-6.7506,-6.5943,-6.3083,-6.0877,-5.8903,-5.6577,-5.4247,-5.4023,-6.3712,-6.4756,-6.5792,-6.6468,-6.7088,-6.7549,-6.9635,-7.22,-7.2485,-7.4166,-7.6713,-7.8064,-7.9009,-7.982,-8.0602,-8.1323,-8.2141,-8.3345,-8.4314,-8.5832,-8.7461,-8.8837,-8.9291,-8.9498,-8.9745,-8.9412,-8.9285,-8.9395,-8.9654,-9.1251,-9.2122,-9.264,-9.3099,-9.399,-9.4651,-9.5286,-9.5598,-9.5598,-9.5598,-9.5686,-9.5818,-9.6094,-9.6421,-9.6638,-9.7013,-9.7277,-9.746,-9.7533,-9.7589,-9.7571,-9.752,-9.7499,-9.7387,-9.7266,-9.713,-9.6976,-9.683,-9.6622,-9.6348,-9.5983,-9.55,-9.4528,-9.4215,-9.4073,-9.4094,-9.4265,-9.4185,-9.4336,-9.3905,-9.3633,-9.3719,-9.348,-9.3353,-9.3959,-9.3995,-9.338,-9.1537,-9.0212,-8.8707,-8.715,-8.6699,-8.6106,-8.5278,-8.4988,-8.344,-8.1415,-7.9806,-7.8708,-7.8241,-7.8137,-7.8407,-7.8019,-7.7434,-7.5755,-7.3803,-7.2322,-7.0823,-6.9052,-6.7489,-6.7136,-6.7102,-6.7238,-6.7274,-6.7421,-6.7407,-6.7205,-6.6923,-6.6682,-6.5424,-6.3791,-6.096,-5.7708,-5.6173,-5.4023,-5.4023,-6.5019,-6.7241,-6.7228,-6.7322,-6.781,-6.8915,-7.0752,-7.2886,-7.3193,-7.4832,-7.7227,-7.8138,-7.9114,-7.9957,-8.0709,-8.1337,-8.211,-8.3574,-8.4782,-8.5854,-8.7947,-8.9346,-8.9985,-9.0179,-9.0059,-9.009,-9.0008,-8.9911,-9.0249,-9.1577,-9.238,-9.3221,-9.3911,-9.4312,-9.4793,-9.5333,-9.5598,-9.5598,-9.5598,-9.5729,-9.5902,-9.6166,-9.6542,-9.6873,-9.7221,-9.746,-9.7602,-9.7659,-9.7675,-9.7682,-9.7578,-9.7433,-9.7288,-9.7137,-9.6967,-9.6822,-9.6792,-9.6513,-9.6089,-9.5623,-9.5077,-9.4659,-9.449,-9.4685,-9.44,-9.4401,-9.4595,-9.4874,-9.4305,-9.3913,-9.3891,-9.3979,-9.3924,-9.3924,-9.3959,-9.3109,-9.1296,-8.9825,-8.831,-8.704,-8.63,-8.5583,-8.4379,-8.334,-8.192,-8.0325,-7.8627,-7.7724,-7.7347,-7.7376,-7.7769,-7.7259,-7.6549,-7.4847,-7.3041,-7.1926,-7.0436,-6.8878,-6.7707,-6.7484,-6.7052,-6.707,-6.7086,-6.7258,-6.6993,-6.6726,-6.6251,-6.5706,-6.4246,-6.2562,-5.8708,-5.5602,-5.456,-5.4023,-5.4023,-6.5563,-6.8065,-6.9416,-7.0712,-7.1886,-7.2078,-7.3268,-7.4932,-7.5322,-7.6122,-7.7405,-7.8041,-7.8943,-7.9878,-8.0582,-8.133,-8.2316,-8.4631,-8.5998,-8.5997,-8.8388,-8.9708,-9.0322,-9.0309,-9.0332,-9.0748,-9.0693,-9.0945,-9.1702,-9.2564,-9.3668,-9.4664,-9.4892,-9.5075,-9.5047,-9.5286,-9.5598,-9.5598,-9.5643,-9.5691,-9.5942,-9.6294,-9.6669,-9.7027,-9.7355,-9.7602,-9.7675,-9.7675,-9.7675,-9.7656,-9.7538,-9.7409,-9.7214,-9.7076,-9.6929,-9.6761,-9.6622,-9.6171,-9.5665,-9.5201,-9.5021,-9.4896,-9.4902,-9.5219,-9.5588,-9.5436,-9.5439,-9.5218,-9.4746,-9.4352,-9.4069,-9.405,-9.3959,-9.374,-9.3462,-9.2302,-9.0815,-8.9533,-8.8209,-8.717,-8.6169,-8.511,-8.3897,-8.2748,-8.1416,-8.0062,-7.8538,-7.7466,-7.6855,-7.6892,-7.7014,-7.629,-7.5453,-7.3887,-7.2281,-7.0691,-6.9573,-6.8373,-6.7668,-6.7417,-6.7064,-6.6962,-6.6958,-6.7002,-6.6595,-6.6186,-6.5714,-6.4956,-6.3237,-6.0735,-5.802,-5.5196,-5.3801,-5.3769,-5.4023,-6.7349,-7.0649,-7.1866,-7.3604,-7.5362,-7.5092,-7.5706,-7.6925,-7.724,-7.7569,-7.8133,-7.8513,-7.9367,-8.0181,-8.0532,-8.1502,-8.2766,-8.4608,-8.5915,-8.6106,-8.846,-8.95,-8.9936,-9.0199,-9.064,-9.1134,-9.1516,-9.196,-9.2655,-9.3707,-9.4763,-9.5507,-9.5932,-9.5673,-9.5439,-9.5553,-9.5598,-9.5598,-9.5643,-9.5738,-9.6057,-9.6413,-9.6757,-9.7129,-9.7448,-9.7675,-9.7675,-9.7675,-9.7689,-9.7641,-9.7496,-9.7377,-9.7169,-9.7005,-9.689,-9.6761,-9.6352,-9.5904,-9.5439,-9.5056,-9.509,-9.5705,-9.5405,-9.5427,-9.5902,-9.5552,-9.557,-9.5404,-9.5036,-9.4551,-9.405,-9.3995,-9.3868,-9.3684,-9.2918,-9.177,-9.0605,-8.9347,-8.8176,-8.7104,-8.6413,-8.5077,-8.3507,-8.2276,-8.114,-7.9807,-7.8449,-7.7441,-7.645,-7.6486,-7.6248,-7.5467,-7.4372,-7.2749,-7.091,-6.9145,-6.829,-6.7668,-6.7267,-6.699,-6.7015,-6.6741,-6.6891,-6.6865,-6.6562,-6.6108,-6.5489,-6.4433,-6.2941,-6.1327,-5.9506,-5.6757,-5.3847,-5.3379,-5.3691,-7.0308,-7.4476,-7.4487,-7.5654,-7.742,-7.7274,-7.7759,-7.8413,-7.8352,-7.8562,-7.8955,-7.9386,-7.9768,-8.042,-8.0616,-8.1647,-8.3382,-8.4358,-8.4983,-8.5986,-8.802,-8.8805,-8.9518,-9.0094,-9.0528,-9.1291,-9.19,-9.2396,-9.3279,-9.4409,-9.5417,-9.6005,-9.61,-9.5787,-9.5629,-9.5629,-9.5592,-9.5598,-9.5691,-9.5864,-9.6198,-9.6522,-9.6849,-9.7216,-9.7533,-9.7667,-9.7682,-9.7682,-9.7667,-9.7538,-9.7382,-9.7265,-9.7108,-9.694,-9.6831,-9.659,-9.6097,-9.5703,-9.5295,-9.4946,-9.5408,-9.6083,-9.6201,-9.5623,-9.5362,-9.5731,-9.5539,-9.5133,-9.4675,-9.4321,-9.3995,-9.3995,-9.3868,-9.3333,-9.263,-9.1569,-9.05,-8.9347,-8.8176,-8.7342,-8.6897,-8.561,-8.3444,-8.2078,-8.0802,-7.9083,-7.777,-7.7265,-7.6579,-7.655,-7.5859,-7.4296,-7.319,-7.1527,-6.9837,-6.822,-6.7385,-6.694,-6.6664,-6.6438,-6.6463,-6.6564,-6.6566,-6.6541,-6.6417,-6.6092,-6.562,-6.4524,-6.3217,-6.1457,-5.9576,-5.7059,-5.3983,-5.3231,-5.3306,-7.1031,-7.3987,-7.4342,-7.5592,-7.7475,-7.8048,-7.8232,-7.8413,-7.7826,-7.7499,-7.7631,-7.7816,-7.8945,-7.9902,-8.0581,-8.1856,-8.3479,-8.4936,-8.5493,-8.6496,-8.7536,-8.8177,-8.8746,-8.9318,-8.9924,-9.0717,-9.1549,-9.2629,-9.3627,-9.4869,-9.5881,-9.6299,-9.6155,-9.5749,-9.5477,-9.5447,-9.5471,-9.5533,-9.5585,-9.5943,-9.6288,-9.6618,-9.6993,-9.7316,-9.7671,-9.7745,-9.7721,-9.7667,-9.7606,-9.7539,-9.7329,-9.7193,-9.7182,-9.694,-9.6723,-9.6134,-9.5826,-9.5615,-9.517,-9.5413,-9.5938,-9.6234,-9.6342,-9.6742,-9.6397,-9.6058,-9.5586,-9.49,-9.441,-9.405,-9.3995,-9.3995,-9.3648,-9.2918,-9.2069,-9.0919,-8.9893,-8.8745,-8.7662,-8.7342,-8.693,-8.5328,-8.3313,-8.1954,-8.054,-7.8529,-7.7268,-7.6791,-7.6462,-7.6462,-7.5316,-7.3745,-7.254,-7.0904,-6.9197,-6.7537,-6.6854,-6.6312,-6.6187,-6.6112,-6.6212,-6.6338,-6.6363,-6.6413,-6.6365,-6.6092,-6.5867,-6.4677,-6.3249,-6.1039,-5.9128,-5.661,-5.4434,-5.3526,-5.2995,-7.2621,-7.4809,-7.5186,-7.6219,-7.7422,-7.7653,-7.7833,-7.8225,-7.7929,-7.7847,-7.7847,-7.8072,-7.8676,-7.9895,-8.0808,-8.1988,-8.3661,-8.4777,-8.556,-8.6337,-8.715,-8.779,-8.8251,-8.8811,-8.9777,-9.0616,-9.1654,-9.2953,-9.397,-9.5314,-9.6426,-9.6374,-9.61,-9.5575,-9.5136,-9.4981,-9.484,-9.4934,-9.5175,-9.5658,-9.6183,-9.6687,-9.7108,-9.7487,-9.7854,-9.7979,-9.7721,-9.7641,-9.7615,-9.7577,-9.7316,-9.7165,-9.7071,-9.6809,-9.642,-9.5982,-9.6078,-9.5883,-9.5667,-9.6158,-9.6506,-9.6668,-9.6693,-9.6795,-9.6547,-9.6082,-9.5337,-9.4551,-9.4231,-9.3995,-9.3995,-9.3868,-9.3144,-9.24,-9.1331,-9.0182,-8.9048,-8.8012,-8.746,-8.7256,-8.6226,-8.476,-8.315,-8.1922,-8.0139,-7.806,-7.7031,-7.6941,-7.6612,-7.6462,-7.4829,-7.2747,-7.1793,-7.0582,-6.869,-6.7086,-6.6651,-6.6212,-6.6162,-6.6112,-6.6112,-6.6137,-6.6212,-6.6212,-6.6162,-6.594,-6.5742,-6.4677,-6.3225,-6.1039,-5.8675,-5.65,-5.4643,-5.3221,-5.2895,-7.4454,-7.6464,-7.6694,-7.6963,-7.7563,-7.6904,-7.7151,-7.8001,-7.8462,-7.8862,-7.8739,-7.9202,-7.9476,-8.0295,-8.1175,-8.2518,-8.3844,-8.4966,-8.5788,-8.6294,-8.6963,-8.7499,-8.8042,-8.8706,-8.9434,-9.089,-9.2146,-9.2819,-9.4397,-9.5518,-9.6088,-9.6299,-9.61,-9.5627,-9.492,-9.4876,-9.4543,-9.3831,-9.4403,-9.5065,-9.5879,-9.6604,-9.7349,-9.7758,-9.826,-9.8612,-9.7923,-9.7641,-9.7578,-9.7511,-9.7343,-9.7168,-9.6926,-9.6628,-9.6207,-9.6209,-9.6375,-9.6343,-9.6464,-9.6954,-9.7529,-9.7706,-9.759,-9.6951,-9.6326,-9.5801,-9.5121,-9.4374,-9.405,-9.3995,-9.3995,-9.3462,-9.2823,-9.177,-9.071,-8.9567,-8.8405,-8.7695,-8.7375,-8.7017,-8.6071,-8.4602,-8.2987,-8.1652,-8.0029,-7.7709,-7.6914,-7.6882,-7.6612,-7.6462,-7.4521,-7.2244,-7.1445,-7.0148,-6.7737,-6.6429,-6.6283,-6.6112,-6.6112,-6.6112,-6.6112,-6.6112,-6.6112,-6.594,-6.5742,-6.557,-6.5199,-6.3929,-6.2315,-6.0135,-5.8123,-5.6494,-5.4883,-5.3306,-5.2653,-7.4475,-7.5347,-7.5866,-7.6409,-7.6782,-7.6906,-7.6976,-7.7262,-7.7416,-7.757,-7.7508,-7.7965,-7.9061,-8.0585,-8.1598,-8.2987,-8.4707,-8.5267,-8.6128,-8.6494,-8.702,-8.7283,-8.765,-8.8205,-8.8947,-8.9743,-9.0907,-9.2644,-9.4095,-9.5007,-9.5488,-9.551,-9.5609,-9.5475,-9.4769,-9.4799,-9.4518,-9.3281,-9.3803,-9.482,-9.5822,-9.6771,-9.7552,-9.7953,-9.8455,-9.8533,-9.8046,-9.7648,-9.7617,-9.7555,-9.7286,-9.7082,-9.6859,-9.6519,-9.6517,-9.6705,-9.6745,-9.6855,-9.721,-9.7696,-9.8193,-9.7847,-9.7349,-9.6465,-9.5878,-9.5449,-9.495,-9.4285,-9.3995,-9.3995,-9.3776,-9.3144,-9.24,-9.1228,-9.0074,-8.8937,-8.7895,-8.7611,-8.7289,-8.6744,-8.5915,-8.4442,-8.2856,-8.1244,-7.9748,-7.8525,-7.7711,-7.718,-7.6583,-7.5953,-7.4183,-7.2244,-7.1445,-6.9985,-6.74,-6.6112,-6.6112,-6.6112,-6.6112,-6.6112,-6.6112,-6.6112,-6.6112,-6.557,-6.5199,-6.4827,-6.3929,-6.2113,-6.0498,-5.9042,-5.759,-5.5953,-5.5052,-5.3801,-5.3053,-7.4731,-7.5006,-7.5685,-7.6221,-7.6488,-7.6884,-7.7016,-7.7016,-7.7147,-7.7246,-7.7277,-7.7667,-7.8817,-8.081,-8.1901,-8.3265,-8.5046,-8.5926,-8.6329,-8.6691,-8.6985,-8.7178,-8.7501,-8.7843,-8.8899,-8.9666,-9.1363,-9.2979,-9.3942,-9.4324,-9.4721,-9.4779,-9.5156,-9.5172,-9.4516,-9.47,-9.4638,-9.3296,-9.3856,-9.4744,-9.5827,-9.6592,-9.7825,-9.8373,-9.8791,-9.8682,-9.8359,-9.7921,-9.7616,-9.75,-9.7271,-9.671,-9.656,-9.654,-9.6789,-9.7121,-9.7341,-9.7629,-9.7954,-9.8324,-9.8612,-9.7979,-9.7487,-9.6799,-9.5505,-9.4995,-9.4453,-9.3909,-9.4015,-9.3959,-9.3648,-9.3144,-9.2069,-9.0919,-8.9751,-8.8745,-8.7895,-8.7375,-8.7289,-8.7137,-8.5792,-8.393,-8.2325,-8.0618,-7.9272,-7.8585,-7.7917,-7.777,-7.7002,-7.5469,-7.3689,-7.1925,-7.0961,-6.9518,-6.6916,-6.6112,-6.6112,-6.6112,-6.6112,-6.6112,-6.6112,-6.6112,-6.5914,-6.5025,-6.4304,-6.3929,-6.2671,-6.0678,-5.959,-5.8307,-5.6868,-5.5598,-5.4883,-5.4333,-5.378,-7.5006,-7.5142,-7.5819,-7.6221,-7.662,-7.6884,-7.7016,-7.7016,-7.7408,-7.7507,-7.7765,-7.8151,-7.9223,-8.0712,-8.2001,-8.3387,-8.4751,-8.589,-8.6394,-8.6789,-8.702,-8.7275,-8.7561,-8.7843,-8.8968,-9.0522,-9.2225,-9.3163,-9.3986,-9.4286,-9.4495,-9.4273,-9.4383,-9.4566,-9.4133,-9.4381,-9.4634,-9.4293,-9.4549,-9.5117,-9.5749,-9.6297,-9.7695,-9.8731,-9.9328,-9.8963,-9.8599,-9.8158,-9.7654,-9.7472,-9.731,-9.6988,-9.6687,-9.6853,-9.7135,-9.7461,-9.8029,-9.8173,-9.8432,-9.8849,-9.8592,-9.8205,-9.7674,-9.6616,-9.5131,-9.4405,-9.3863,-9.3765,-9.3748,-9.3832,-9.3555,-9.2691,-9.1569,-9.05,-8.9457,-8.8405,-8.7812,-8.7289,-8.7289,-8.7137,-8.5263,-8.325,-8.1683,-8.009,-7.916,-7.8499,-7.8209,-7.7917,-7.7298,-7.5259,-7.3376,-7.1445,-6.9985,-6.8215,-6.6283,-6.6112,-6.6112,-6.6112,-6.6112,-6.6112,-6.6112,-6.6112,-6.5397,-6.3929,-6.3378,-6.2493,-6.1039,-5.9042,-5.8123,-5.7219,-5.6141,-5.5073,-5.4904,-5.4354,-5.4354,-7.5278,-7.5789,-7.6191,-7.6589,-7.6884,-7.7016,-7.7016,-7.7016,-7.7408,-7.7636,-7.8279,-7.944,-8.0712,-8.1853,-8.2345,-8.3716,-8.5515,-8.6294,-8.6593,-8.702,-8.7117,-8.737,-8.7843,-8.827,-8.9192,-9.0798,-9.2535,-9.3488,-9.4023,-9.4511,-9.4586,-9.4082,-9.5248,-9.5337,-9.4844,-9.5107,-9.5439,-9.5136,-9.5265,-9.584,-9.6643,-9.7138,-9.7383,-9.8146,-9.8704,-9.8359,-9.8038,-9.7733,-9.7633,-9.7515,-9.7316,-9.7276,-9.7257,-9.7277,-9.7556,-9.7949,-9.8502,-9.8272,-9.8432,-9.8437,-9.7986,-9.6591,-9.5855,-9.5109,-9.4025,-9.3479,-9.3193,-9.315,-9.3318,-9.3817,-9.3426,-9.187,-9.071,-8.9893,-8.8937,-8.8127,-8.7375,-8.7137,-8.6984,-8.5915,-8.4442,-8.2723,-8.1306,-7.998,-7.9046,-7.8644,-7.8644,-7.8354,-7.7887,-7.5686,-7.3192,-7.1284,-6.9353,-6.7569,-6.6112,-6.6112,-6.6112,-6.6112,-6.6112,-6.6112,-6.6112,-6.6112,-6.5199,-6.3201,-6.1756,-6.0678,-5.9042,-5.7612,-5.6516,-5.5786,-5.5262,-5.4544,-5.4544,-5.4544,-5.4354]}]]